Date StartTime U_cm/s V_cm/s W_cm/s Ustd_cm/s Vstd_cm/s Wstd_cm/s Uvar_(cm/s)^2 Vvar_(cm/s)^2 Wvar_(cm/s)^2 KE_(m/s)^2 TurbulentKE_(m/s)^2 HorizWindSpeed_cm/s FrictionSpeec_cm/s DragCoef SpeedOfSound_m/s SonicTemperature_C Pressure_mb 
05/09/2014  00:00:00     -276.903     -107.608      -16.907      140.478      117.640       65.677    19733.946    13839.266     4313.534        6.321        1.894      297.077       67.788        0.052      338.910       11.880      858.309
05/09/2014  00:01:00     -288.374     -105.453       -9.299      374.170      188.992      109.727   140002.928    35717.789    12039.954       14.103        9.388      307.051      149.398        0.237      338.979       11.996      858.213
05/09/2014  00:02:00     -387.699     -142.230       -5.995      279.821      176.606      106.730    78299.957    31189.735    11391.399       14.570        6.044      412.965      123.885        0.090      339.031       12.084      858.215
05/09/2014  00:03:00     -392.289     -132.389       15.278      257.211      138.596      107.404    66157.265    19208.929    11535.564       13.426        4.845      414.026      125.810        0.092      338.932       11.916      858.229
05/09/2014  00:04:00     -251.602     -110.691       14.893      203.585      120.232       77.737    41446.796    14455.617     6043.029        6.885        3.097      274.875       81.848        0.089      338.921       11.898      858.232
05/09/2014  00:05:00     -391.709     -245.381      -10.348      247.554      235.620      105.765    61283.097    55516.959    11186.312       17.085        6.399      462.221      125.140        0.073      338.894       11.853      858.217
05/09/2014  00:06:00     -325.618      -41.648       -2.680      191.938      144.504       84.697    36840.091    20881.517     7173.501        8.632        3.245      328.271       95.403        0.084      338.895       11.855      858.158
05/09/2014  00:07:00     -362.331     -177.210      -13.818      159.073      160.769       73.949    25304.090    25846.624     5468.445       10.974        2.831      403.345       65.177        0.026      338.872       11.815      858.144
05/09/2014  00:08:00     -367.821     -303.825      -25.893      201.365      151.066       77.108    40547.731    22820.912     5945.570       14.878        3.466      477.077       85.503        0.032      338.860       11.795      858.181
05/09/2014  00:09:00     -329.623     -206.531        0.224      198.978      185.054       98.512    39592.177    34245.061     9704.700       11.741        4.177      388.981       95.164        0.060      338.852       11.781      858.226
05/09/2014  00:10:00     -482.015     -392.788      -14.947      231.280      190.998      113.931    53490.259    36480.106    12980.382       24.488        5.148      621.789      127.453        0.042      338.884       11.834      858.253
05/09/2014  00:11:00     -294.303     -275.709        1.794      194.172      142.023       85.626    37702.826    20170.578     7331.826       11.391        3.260      403.274       84.491        0.044      338.898       11.858      858.265
05/09/2014  00:12:00     -323.411     -187.458       -9.814      208.924      173.816       76.477    43649.182    30211.855     5848.708       10.975        3.985      373.812       85.753        0.053      338.864       11.803      858.315
05/09/2014  00:13:00     -227.803     -161.973       -0.824      166.991       89.043       61.193    27886.101     7928.705     3744.573        5.884        1.978      279.517       63.443        0.052      338.859       11.793      858.368
05/09/2014  00:14:00     -235.145     -189.083      -11.272      146.283      156.259       78.331    21398.813    24416.906     6135.725        7.155        2.598      301.738       77.920        0.067      338.864       11.802      858.357
05/09/2014  00:15:00     -413.266     -359.774      -17.985      213.456      160.969      101.207    45563.543    25910.877    10242.876       19.112        4.086      547.929      104.856        0.037      338.976       11.991      858.387
05/09/2014  00:16:00     -420.467     -191.442        5.889      241.163      148.688       82.465    58159.362    22108.011     6800.465       15.026        4.353      461.998       96.515        0.044      338.947       11.942      858.486
05/09/2014  00:17:00     -312.472     -371.488      -15.571      190.486      171.905       86.668    36284.965    29551.181     7511.272       15.460        3.667      485.430       83.318        0.029      338.941       11.930      858.579
05/09/2014  00:18:00     -224.755     -126.613       -4.624      126.016      112.035       59.349    15880.043    12551.836     3522.274        4.925        1.598      257.965       59.971        0.054      338.903       11.868      858.477
05/09/2014  00:19:00     -322.319     -194.039      -26.734      166.023      102.980       68.035    27563.736    10604.873     4628.811        9.252        2.140      376.219       66.601        0.031      338.892       11.847      858.415
05/09/2014  00:20:00     -257.866      -97.349       -2.975      208.251      134.169       57.058    43368.436    18001.276     3255.559        7.029        3.231      275.630       73.752        0.072      338.881       11.830      858.305
05/09/2014  00:21:00     -402.180     -261.119       -6.750      220.504      176.529       94.433    48622.161    31162.497     8917.517       15.932        4.435      479.512       97.624        0.041      338.928       11.910      858.304
05/09/2014  00:22:00     -348.239     -205.994       -3.585      172.552      134.571       86.986    29774.025    18109.412     7566.521       10.957        2.772      404.603       81.347        0.040      338.920       11.897      858.240
05/09/2014  00:23:00     -246.677     -229.670      -12.593      148.517      123.505       72.517    22057.365    15253.511     5258.747        7.815        2.128      337.043       75.302        0.050      338.895       11.854      858.247
05/09/2014  00:24:00     -413.124     -198.352       -0.442      214.624      164.191       92.143    46063.665    26958.812     8490.424       14.575        4.076      458.274      108.723        0.056      338.913       11.886      858.282
05/09/2014  00:25:00     -365.321     -241.173       -7.242      221.233      161.855       96.641    48943.858    26197.144     9339.566       13.806        4.224      437.748       98.595        0.051      338.911       11.881      858.231
05/09/2014  00:26:00     -362.896     -247.487      -13.647      203.830      159.754       93.868    41546.495    25521.430     8811.143       13.449        3.794      439.253       87.125        0.039      338.898       11.858      858.303
05/09/2014  00:27:00     -285.233     -283.304       12.957      235.061      160.420       98.487    55253.574    25734.557     9699.603       12.622        4.534      402.018      114.840        0.082      338.869       11.810      858.312
05/09/2014  00:28:00     -315.940     -333.213        6.438      197.964      209.560       90.089    39189.768    43915.481     8116.118       15.104        4.561      459.183       93.447        0.041      338.868       11.809      858.261
05/09/2014  00:29:00     -454.220     -235.363      -11.999      259.670      186.742      101.877    67428.394    34872.491    10378.957       18.724        5.634      511.577      114.456        0.050      338.848       11.777      858.179
05/09/2014  00:30:00     -485.567     -339.582      -26.822      237.115      210.675      135.785    56223.540    44384.041    18437.440       23.540        5.952      592.529      133.730        0.051      338.852       11.783      858.164
05/09/2014  00:31:00     -357.239     -189.131       -1.882      188.066      253.208      100.088    35368.920    64114.195    10017.531       13.642        5.475      404.215      119.711        0.088      338.852       11.782      858.238
05/09/2014  00:32:00     -263.551     -206.675       -7.013      179.158      142.781       76.173    32097.504    20386.396     5802.365        8.524        2.914      334.924       78.742        0.055      338.834       11.752      858.292
05/09/2014  00:33:00     -320.757     -257.130      -13.274      195.324      153.793       83.549    38151.570    23652.200     6980.410       11.897        3.439      411.097       76.888        0.035      338.810       11.712      858.242
05/09/2014  00:34:00     -163.464     -153.314       10.184      151.954      149.557       72.744    23090.156    22367.197     5291.752        5.053        2.537      224.111       78.781        0.124      338.804       11.702      858.262
05/09/2014  00:35:00     -221.475     -180.519        0.018      154.663       97.653       54.280    23920.694     9536.029     2946.312        5.901        1.820      285.724       53.847        0.036      338.774       11.650      858.322
05/09/2014  00:36:00     -330.888     -205.006      -20.512      191.846      111.833       84.693    36804.848    12506.729     7172.949       10.420        2.824      389.249       95.541        0.060      338.747       11.605      858.329
05/09/2014  00:37:00     -305.285     -249.814       16.737      172.936      139.709       89.596    29906.937    19518.494     8027.397       10.666        2.873      394.470       81.006        0.042      338.729       11.574      858.310
05/09/2014  00:38:00     -375.816     -268.312      -12.734      163.591      125.019       84.915    26762.084    15629.663     7210.597       13.149        2.480      461.767       83.853        0.033      338.723       11.565      858.305
05/09/2014  00:39:00     -463.124     -310.277       -9.861      241.644      171.123      107.383    58391.788    29283.097    11531.162       20.501        4.960      557.455      116.411        0.044      338.725       11.568      858.239
05/09/2014  00:40:00     -532.940     -373.201      -29.150      322.486      207.566      111.894   103997.046    43083.496    12520.191       29.185        7.980      650.619      135.680        0.043      338.825       11.735      858.208
05/09/2014  00:41:00     -505.047     -385.782      -26.148      292.399      201.153      126.460    85496.909    40462.487    15992.145       27.324        7.098      635.532      134.467        0.045      338.890       11.844      858.128
05/09/2014  00:42:00     -462.660     -253.023       12.090      239.015      274.972      112.138    57128.167    75609.504    12575.033       21.174        7.266      527.328      135.822        0.066      338.840       11.762      858.228
05/09/2014  00:43:00     -454.937     -311.699       -1.119      255.237      235.614      116.230    65145.858    55514.041    13509.438       21.912        6.708      551.474      117.717        0.046      338.801       11.696      858.238
05/09/2014  00:44:00     -429.966     -253.120        4.077      236.389      187.405      110.807    55879.757    35120.556    12278.243       17.610        5.164      498.940      123.304        0.061      338.774       11.652      858.247
05/09/2014  00:45:00     -256.784     -107.318       26.608      194.387      155.316       87.443    37786.351    24123.019     7646.356        7.385        3.478      278.308      102.806        0.136      338.756       11.620      858.269
05/09/2014  00:46:00     -313.971     -295.433        4.361      241.312      197.803       92.511    58231.620    39125.850     8558.290       14.588        5.296      431.113      102.150        0.056      338.729       11.577      858.219
05/09/2014  00:47:00     -435.849     -314.051       -4.106      241.631      204.608       99.111    58385.572    41864.281     9823.054       19.932        5.504      537.208      101.522        0.036      338.707       11.539      858.213
05/09/2014  00:48:00     -340.686     -181.953      -15.136      171.146      165.040       67.171    29290.820    27238.154     4511.946       10.521        3.052      386.230       66.334        0.029      338.762       11.631      858.221
05/09/2014  00:49:00     -501.217     -182.752      -39.700      212.348      195.689       88.839    45091.529    38294.025     7892.337       18.872        4.564      533.495       92.156        0.030      338.768       11.642      858.260
05/09/2014  00:50:00     -373.003     -178.538       -5.715      160.877      155.042       88.656    25881.557    24037.870     7859.845       11.440        2.889      413.530       86.532        0.044      338.764       11.633      858.246
05/09/2014  00:51:00     -539.176     -351.502      -28.103      310.132      235.569      101.140    96182.076    55492.776    10229.270       28.845        8.095      643.634      131.250        0.042      338.794       11.683      858.193
05/09/2014  00:52:00     -445.297     -218.629      -15.772      224.866      166.973      101.648    50564.617    27880.141    10332.232       16.754        4.439      496.073      100.833        0.041      338.801       11.697      858.183
05/09/2014  00:53:00     -406.328     -168.013       -3.983      242.744      237.873       99.306    58924.536    56583.326     9861.716       15.933        6.268      439.694       94.506        0.046      338.796       11.688      858.238
05/09/2014  00:54:00     -357.887     -181.122      -17.806      222.163      202.782       92.936    49356.268    41120.465     8637.030       13.014        4.956      401.109      109.024        0.074      338.782       11.665      858.237
05/09/2014  00:55:00     -370.246     -301.066      -11.698      210.849      222.083      116.371    44457.343    49320.968    13542.248       16.757        5.366      477.203      104.209        0.048      338.834       11.752      858.261
05/09/2014  00:56:00     -332.294     -337.332        2.305      269.500      228.222      110.870    72630.064    52085.227    12292.062       18.058        6.850      473.510      130.288        0.076      338.830       11.744      858.290
05/09/2014  00:57:00     -481.306     -241.416      -24.584      231.419      186.436       99.340    53554.974    34758.441     9868.470       19.434        4.909      538.458       95.802        0.032      338.787       11.673      858.261
05/09/2014  00:58:00     -372.067     -204.951      -22.471      158.001      161.340       83.156    24964.228    26030.677     6914.838       11.942        2.895      424.781       79.222        0.035      338.790       11.678      858.298
05/09/2014  00:59:00     -439.969      -38.460       -2.047      207.082      198.321       92.923    42882.879    39331.233     8634.675       14.293        4.542      441.646       99.758        0.051      338.793       11.684      858.248
05/09/2014  01:00:00     -507.722      -75.975      -15.502      268.982      199.879       99.959    72351.211    39951.559     9991.891       19.302        6.115      513.375      103.392        0.041      338.785       11.667      858.293
05/09/2014  01:01:00     -311.611     -211.808      -18.548      203.924      157.044       93.056    41585.012    24662.745     8659.415       10.859        3.745      376.781      101.308        0.072      338.801       11.698      858.342
05/09/2014  01:02:00     -330.794     -202.796      -19.907      187.305      189.097       78.332    35083.129    35757.688     6135.930       11.395        3.849      388.009       84.829        0.048      338.777       11.658      858.323
05/09/2014  01:03:00     -295.405     -103.723       -8.957      120.125      117.424       63.474    14429.970    13788.492     4029.007        6.517        1.612      313.086       52.734        0.028      338.751       11.613      858.339
05/09/2014  01:04:00     -457.163      -65.195       -2.796      322.052      186.979      116.488   103717.478    34961.061    13569.547       18.272        7.612      461.788      157.276        0.116      338.775       11.652      858.341
05/09/2014  01:05:00     -366.712      -39.070       17.406      269.150      207.281      121.407    72441.911    42965.344    14739.624       13.320        6.507      368.788      128.237        0.121      338.821       11.732      858.307
05/09/2014  01:06:00     -494.248     -272.006      -29.471      229.829      231.210       97.283    52821.519    53457.834     9463.965       21.742        5.787      564.152       99.240        0.031      338.814       11.718      858.330
05/09/2014  01:07:00     -316.298      -84.964      -15.535      253.181      181.140      100.684    64100.611    32811.856    10137.204       10.726        5.352      327.510      130.323        0.158      338.821       11.731      858.318
05/09/2014  01:08:00     -537.702      -73.351      -44.464      318.254      237.446      104.587   101285.674    56380.815    10938.388       23.251        8.430      542.682       98.764        0.033      338.799       11.693      858.319
05/09/2014  01:09:00     -544.897     -217.424       -6.695      353.755      265.306      138.328   125142.636    70387.321    19134.533       27.940       10.733      586.674      178.090        0.092      338.817       11.724      858.291
05/09/2014  01:10:00     -441.070     -244.622      -13.896      283.429      223.451      113.017    80331.808    49930.193    12772.813       19.878        7.152      504.364      136.953        0.074      338.845       11.772      858.309
05/09/2014  01:11:00     -429.690     -175.870        3.972      254.552      252.428      126.064    64796.945    63720.099    15892.170       17.997        7.220      464.289      135.437        0.085      338.840       11.761      858.342
05/09/2014  01:12:00     -569.431     -214.589      -21.781      250.221      191.079      105.380    62610.352    36511.091    11104.918       24.048        5.511      608.523      106.295        0.031      338.799       11.692      858.294
05/09/2014  01:13:00     -431.578     -237.072      -22.381      206.498      220.769       95.679    42641.423    48739.139     9154.566       17.173        5.027      492.405       89.581        0.033      338.791       11.680      858.329
05/09/2014  01:14:00     -304.711     -181.452        8.395      208.617      167.290      105.567    43521.069    27985.932    11144.327       10.423        4.133      354.646      116.003        0.107      338.791       11.679      858.321
05/09/2014  01:15:00     -310.778     -261.267      -23.908      222.178      224.219      110.329    49362.952    50274.224    12172.428       13.859        5.590      406.009      113.334        0.078      338.779       11.660      858.320
05/09/2014  01:16:00     -529.180      -65.166      -13.603      249.873      189.567       92.655    62436.741    35935.514     8585.015       19.569        5.348      533.178      114.573        0.046      338.810       11.713      858.326
05/09/2014  01:17:00     -395.311     -183.985       -5.395      284.722      148.933      113.224    81066.657    22180.934    12819.648       15.309        5.803      436.029      135.783        0.097      338.763       11.632      858.321
05/09/2014  01:18:00     -416.088      -65.459       -0.633      179.689      171.019       94.400    32288.237    29247.467     8911.394       12.392        3.522      421.205      101.480        0.058      338.767       11.640      858.357
05/09/2014  01:19:00     -349.697     -135.668       -3.100      234.412      166.625       88.998    54949.083    27763.866     7920.685       11.565        4.532      375.092      109.525        0.085      338.782       11.666      858.340
05/09/2014  01:20:00     -446.967     -215.792      -15.825      200.972      148.857       88.063    40389.637    22158.463     7755.101       15.844        3.515      496.332       92.812        0.035      338.751       11.613      858.343
05/09/2014  01:21:00     -413.151     -170.583       -6.782      197.891      163.771       93.171    39160.888    26820.834     8680.883       13.724        3.733      446.982       99.394        0.049      338.780       11.661      858.383
05/09/2014  01:22:00     -443.951     -231.675      -12.803      211.879      208.709       88.349    44892.872    43559.363     7805.544       17.357        4.813      500.766       94.605        0.036      338.792       11.681      858.376
05/09/2014  01:23:00     -211.342      -64.803       15.729      137.203      134.589       55.714    18824.541    18114.320     3104.068        4.457        2.002      221.054       55.927        0.064      338.774       11.652      858.418
05/09/2014  01:24:00     -364.596     -219.705      -10.121      257.356      184.482       76.589    66232.148    34033.520     5865.808       14.370        5.307      425.677      107.473        0.064      338.813       11.717      858.403
05/09/2014  01:25:00     -344.961     -187.031       -9.848      181.025      146.479       95.005    32770.033    21456.116     9025.957       10.865        3.163      392.401      101.385        0.067      338.831       11.745      858.406
05/09/2014  01:26:00     -357.321     -115.728      -13.592      252.196      210.348      101.949    63603.036    44246.252    10393.593       12.973        5.912      375.594      127.267        0.115      338.908       11.876      858.369
05/09/2014  01:27:00     -396.847     -237.065       -1.265      260.300      169.792      121.468    67756.204    28829.246    14754.360       16.249        5.567      462.264      140.065        0.092      338.949       11.945      858.365
05/09/2014  01:28:00     -334.620       -5.988       -1.585      172.356      125.435       64.529    29706.525    15733.931     4163.929        8.080        2.480      334.674       66.327        0.039      338.980       11.998      858.382
05/09/2014  01:29:00     -171.233      -95.938       24.308      144.718      171.760       71.985    20943.257    29501.411     5181.867        4.736        2.781      196.277       81.432        0.172      338.994       12.021      858.441
05/09/2014  01:30:00     -467.279     -457.328      -25.586      259.938      217.029      133.460    67567.888    47101.778    17811.485       28.029        6.624      653.834      151.821        0.054      339.083       12.170      858.399
05/09/2014  01:31:00     -501.571     -269.662      -15.844      260.001      219.878      101.007    67600.322    48346.172    10202.469       22.532        6.307      569.466      120.648        0.045      339.100       12.198      858.425
05/09/2014  01:32:00     -428.523     -171.224      -21.319      160.552      130.410       84.774    25776.997    17006.708     7186.637       13.168        2.499      461.465       80.013        0.030      339.076       12.160      858.428
05/09/2014  01:33:00     -286.397     -178.310       19.403      204.625      206.475      109.195    41871.344    42631.862    11923.584       10.529        4.821      337.369      125.500        0.138      339.068       12.146      858.469
05/09/2014  01:34:00     -207.667     -248.252       -3.413      164.713      130.620       83.857    27130.457    17061.535     7031.986        7.799        2.561      323.659       86.659        0.072      339.058       12.129      858.508
05/09/2014  01:35:00     -263.886     -159.189       -2.484      182.992      138.191       76.925    33485.945    19096.650     5917.506        7.673        2.925      308.183       75.819        0.061      339.025       12.072      858.473
05/09/2014  01:36:00     -315.017     -180.563       17.439      222.077      228.917       96.249    49318.130    52402.790     9263.878       12.154        5.549      363.096       96.884        0.071      338.965       11.973      858.443
05/09/2014  01:37:00     -252.528     -221.054       -6.250      173.192      144.496       76.694    29995.623    20879.235     5882.033        8.470        2.838      335.612       84.250        0.063      338.981       11.999      858.495
05/09/2014  01:38:00     -312.077     -219.314      -13.068      183.090      179.023       75.204    33522.058    32049.327     5655.613       10.843        3.561      381.433       77.496        0.041      338.959       11.961      858.510
05/09/2014  01:39:00     -417.473     -271.300      -11.501      215.958      215.223      112.477    46637.678    46320.881    12651.037       17.679        5.280      497.883      107.778        0.047      338.973       11.985      858.459
05/09/2014  01:40:00     -557.434     -311.556      -16.905      291.161      213.635      116.226    84774.575    45639.747    13508.453       27.598        7.196      638.592      122.517        0.037      338.971       11.983      858.469
05/09/2014  01:41:00     -467.033     -275.933       29.693      291.008      201.279      127.670    84685.723    40513.272    16299.655       21.829        7.075      542.456      152.570        0.079      338.990       12.015      858.439
05/09/2014  01:42:00     -508.808     -293.478      -27.220      285.430      206.307      123.066    81470.086    42562.724    15145.139       24.244        6.959      587.380      139.633        0.057      338.998       12.027      858.455
05/09/2014  01:43:00     -344.177     -253.435      -13.837      255.372      209.771      102.670    65214.797    44003.832    10541.190       15.130        5.988      427.419      117.319        0.075      338.998       12.027      858.467
05/09/2014  01:44:00     -579.623     -333.592      -14.642      347.724      239.562      117.090   120912.185    57389.809    13710.147       31.970        9.601      668.765      128.585        0.037      338.946       11.941      858.421
05/09/2014  01:45:00     -562.671     -409.967       -5.624      272.762      210.883      119.952    74398.910    44471.695    14388.514       30.895        6.663      696.183       99.786        0.021      338.901       11.865      858.422
05/09/2014  01:46:00     -509.181     -254.583       -0.189      326.871      255.165      144.635   106844.744    65108.999    20919.148       25.844        9.644      569.279      163.406        0.082      338.844       11.767      858.343
05/09/2014  01:47:00     -372.234     -142.179       18.064      239.288      169.673      102.030    57258.678    28788.957    10410.079       12.776        4.823      398.464      110.948        0.078      338.827       11.740      858.408
05/09/2014  01:48:00     -413.088     -156.782      -22.840      259.208      227.783       96.918    67188.817    51885.024     9393.017       16.208        6.423      441.839      124.630        0.080      338.818       11.726      858.432
05/09/2014  01:49:00     -471.187     -314.576      -13.963      242.483      157.434       91.542    58797.823    24785.384     8379.863       20.655        4.598      566.547      102.614        0.033      338.795       11.687      858.463
05/09/2014  01:50:00     -270.801     -291.932        3.041      212.568      255.149       94.838    45185.213    65100.912     8994.199       13.890        5.964      398.193      100.292        0.063      338.806       11.707      858.486
05/09/2014  01:51:00     -372.203     -174.441      -20.857      179.444      165.630       80.296    32200.006    27433.395     6447.502       11.773        3.304      411.053       81.665        0.039      338.813       11.717      858.512
05/09/2014  01:52:00     -462.038     -224.180      -52.113      235.608      209.077       99.888    55511.079    43713.364     9977.532       18.781        5.460      513.552      109.267        0.045      338.819       11.728      858.536
05/09/2014  01:53:00     -378.546     -130.517       -0.225      269.337      197.199       91.823    72542.630    38887.402     8431.546       14.007        5.993      400.415       98.084        0.060      338.782       11.666      858.547
05/09/2014  01:54:00     -615.896     -331.710      -22.066      304.844      224.145      125.495    92930.067    50241.131    15748.973       32.435        7.946      699.542      130.954        0.035      338.787       11.674      858.471
05/09/2014  01:55:00     -201.906      -17.572       20.869      181.137      147.756       82.890    32810.790    21831.981     6870.790        5.150        3.076      202.669       90.776        0.201      338.799       11.695      858.536
05/09/2014  01:56:00     -402.691     -236.196      -37.228      178.072      158.858       77.960    31709.696    25235.813     6077.780       14.117        3.151      466.849       77.693        0.028      338.733       11.583      858.529
05/09/2014  01:57:00     -427.006     -246.251        1.697      282.959      160.021      102.401    80066.015    25606.596    10486.066       17.954        5.808      492.924      133.778        0.074      338.716       11.554      858.524
05/09/2014  01:58:00     -421.241     -300.707      -19.286      248.956      180.501      118.321    61979.184    32580.446    13999.966       18.838        5.428      517.560      113.085        0.048      338.677       11.487      858.490
05/09/2014  01:59:00     -297.360     -108.725        8.891      208.831      189.127      105.300    43610.527    35768.919    11088.099        9.538        4.523      316.614      112.317        0.126      338.698       11.525      858.546
05/09/2014  02:00:00     -419.094      -89.780      -13.971      173.765      139.925       77.394    30194.285    19578.924     5989.824       11.982        2.788      428.602       88.227        0.042      338.686       11.503      858.548
05/09/2014  02:01:00     -183.812     -148.516       14.038      157.227      147.814       74.692    24720.402    21848.834     5578.950        5.408        2.607      236.313       79.382        0.113      338.695       11.519      858.529
05/09/2014  02:02:00     -185.994      -35.766        4.130      115.754      108.975       64.725    13399.071    11875.655     4189.329        3.267        1.473      189.402       60.570        0.102      338.727       11.572      858.518
05/09/2014  02:03:00     -310.831      -47.286      -17.008      211.538      144.894       82.396    44748.226    20994.200     6789.156        8.582        3.627      314.407       80.427        0.065      338.684       11.500      858.511
05/09/2014  02:04:00     -286.050     -195.521       21.138      261.617      261.821      131.257    68443.354    68550.465    17228.299       13.733        7.711      346.486      137.125        0.157      338.686       11.503      858.479
05/09/2014  02:05:00     -309.301     -171.717       29.444      235.490      199.052      117.707    55455.699    39621.736    13854.844       11.746        5.447      353.771      141.172        0.159      338.668       11.472      858.511
05/09/2014  02:06:00     -436.183      -22.602        0.379      302.357      200.752      124.324    91419.965    40301.297    15456.469       16.894        7.359      436.768      137.542        0.099      338.679       11.491      858.453
05/09/2014  02:07:00     -276.050     -132.030        2.042      254.931      225.855      101.963    64989.662    51010.662    10396.359       10.999        6.320      305.999      120.687        0.156      338.719       11.559      858.471
05/09/2014  02:08:00     -289.324     -150.040        8.596      281.689      194.881       98.794    79348.626    37978.446     9760.336       11.667        6.354      325.915      121.007        0.138      338.708       11.540      858.492
05/09/2014  02:09:00     -498.831     -346.929       -2.891      368.555      308.540      140.163   135832.543    95196.955    19645.722       30.989       12.534      607.612      183.715        0.091      338.761       11.629      858.435
05/09/2014  02:10:00     -401.522     -159.508      -17.089      221.647      233.397      110.292    49127.329    54474.176    12164.387       15.134        5.788      432.045      119.617        0.077      338.825       11.736      858.503
05/09/2014  02:11:00     -406.976     -155.489      -10.714      228.269      233.575      108.588    52106.621    54557.177    11791.396       15.416        5.923      435.668       97.593        0.050      338.813       11.716      858.511
05/09/2014  02:12:00     -415.260     -118.834      -11.082      257.688      210.222      108.862    66402.924    44193.123    11851.021       15.454        6.122      431.928      124.872        0.084      338.826       11.738      858.488
05/09/2014  02:13:00     -577.179     -179.501      -34.313      253.824      231.307      116.282    64426.554    53503.093    13521.560       24.897        6.573      604.447      112.656        0.035      338.796       11.689      858.504
05/09/2014  02:14:00     -480.000     -327.696       -3.493      309.661      255.346      132.865    95889.894    65201.829    17653.204       25.824        8.937      581.193      163.901        0.080      338.811       11.712      858.526
05/09/2014  02:15:00     -608.347     -381.601      -44.684      258.802      214.128      140.191    66978.502    45850.647    19653.622       32.507        6.624      718.126      152.782        0.045      338.760       11.627      858.549
05/09/2014  02:16:00     -225.201     -142.406       38.882      238.816      204.146      109.955    57032.903    41675.598    12090.093        9.163        5.540      266.449      119.727        0.202      338.757       11.624      858.620
05/09/2014  02:17:00     -337.184     -238.364       -3.555      236.146      173.961       76.656    55764.783    30262.458     5876.184       13.119        4.595      412.929       83.252        0.041      338.805       11.702      858.618
05/09/2014  02:18:00     -545.603     -272.456      -14.697      246.635      242.813      111.831    60828.968    58958.241    12506.065       25.219        6.615      609.848      127.665        0.044      338.792       11.680      858.600
05/09/2014  02:19:00     -464.890     -227.464      -18.024      320.858      203.282      107.424   102949.608    41323.580    11540.009       21.197        7.791      517.555      143.826        0.077      338.778       11.657      858.608
05/09/2014  02:20:00     -336.847     -238.847       11.557      216.347      201.631      111.170    46805.885    40655.214    12358.762       13.521        4.991      412.933      115.187        0.078      338.786       11.671      858.656
05/09/2014  02:21:00     -365.860     -264.609       -6.575      265.929      164.687      117.227    70718.246    27121.951    13742.207       15.773        5.579      451.521      131.390        0.085      338.763       11.633      858.599
05/09/2014  02:22:00     -355.084     -145.714      -14.945      207.499      168.006       81.580    43055.859    28226.152     6655.260       11.272        3.897      383.819       72.235        0.035      338.744       11.600      858.604
05/09/2014  02:23:00     -437.458     -207.502       -7.525      281.424      268.684      121.607    79199.259    72190.828    14788.383       20.030        8.309      484.176      123.514        0.065      338.753       11.617      858.568
05/09/2014  02:24:00     -285.969     -181.740        5.604      207.024      145.411       94.251    42858.927    21144.430     8883.219        9.385        3.644      338.833      102.798        0.092      338.765       11.636      858.601
05/09/2014  02:25:00     -547.143     -216.509      -20.581      236.345      231.536      101.324    55859.112    53609.045    10266.549       23.318        5.987      588.423      112.602        0.037      338.703       11.530      858.565
05/09/2014  02:26:00     -315.960     -190.858       -4.983      154.811      148.064       73.188    23966.548    21922.873     5356.446        9.375        2.562      369.131       75.006        0.041      338.657       11.454      858.583
05/09/2014  02:27:00     -297.791     -165.866       -1.777      224.124      155.350       95.926    50231.750    24133.619     9201.820        9.986        4.178      340.868      118.599        0.121      338.625       11.401      858.597
05/09/2014  02:28:00     -368.969     -218.976       -9.826      251.951      178.839       84.898    63479.433    31983.402     7207.628       14.341        5.134      429.056      110.261        0.066      338.600       11.360      858.634
05/09/2014  02:29:00     -394.407     -216.039       -5.286      216.880      194.111      115.967    47036.735    37679.005    13448.257       15.019        4.908      449.700      121.059        0.072      338.590       11.342      858.626
05/09/2014  02:30:00     -298.525     -161.389       -3.058      209.929      193.455       92.620    44070.220    37424.971     8578.545       10.261        4.504      339.357      102.181        0.091      338.580       11.327      858.616
05/09/2014  02:31:00     -389.556     -179.689        0.468      291.347      145.055       90.271    84882.842    21040.892     8148.856       14.903        5.704      429.001      122.617        0.082      338.611       11.376      858.617
05/09/2014  02:32:00     -326.293     -216.151      -16.902      153.333      144.154       65.998    23511.041    20780.361     4355.687       10.105        2.432      391.393       61.101        0.024      338.644       11.432      858.699
05/09/2014  02:33:00     -459.999     -159.645      -19.230      218.159      179.838       89.996    47593.530    32341.797     8099.261       16.273        4.402      486.914       98.098        0.041      338.700       11.527      858.725
05/09/2014  02:34:00     -440.480     -216.675      -10.703      232.973      194.547      109.020    54276.437    37848.491    11885.340       17.253        5.201      490.888      127.124        0.067      338.726       11.570      858.736
05/09/2014  02:35:00     -197.924      -76.753       -4.233      126.204      119.072       60.427    15927.369    14178.240     3651.424        3.941        1.688      212.285       50.639        0.057      338.738       11.590      858.723
05/09/2014  02:36:00     -215.569      -74.229       -2.775       90.772       71.098       46.477     8239.485     5054.918     2160.129        3.372        0.773      227.991       44.813        0.039      338.687       11.505      858.731
05/09/2014  02:37:00     -352.558     -143.667      -14.826      230.164      123.248       64.424    52975.401    15190.107     4150.505       10.872        3.616      380.706       81.377        0.046      338.623       11.398      858.701
05/09/2014  02:38:00     -346.526     -132.587      -16.578      242.204      154.529       68.792    58662.716    23879.151     4732.384       11.259        4.364      371.025       92.443        0.062      338.591       11.343      858.713
05/09/2014  02:39:00     -421.774     -169.300      -25.569      193.940      187.167       86.347    37612.890    35031.569     7455.731       14.364        4.005      454.484       92.060        0.041      338.584       11.334      858.647
05/09/2014  02:40:00     -216.745     -153.633       18.332      155.767      129.139       65.868    24263.336    16676.976     4338.536        5.809        2.264      265.672       71.574        0.073      338.568       11.305      858.687
05/09/2014  02:41:00     -261.319     -144.712       -3.810      147.671      130.557       82.348    21806.683    17045.028     6781.221        6.743        2.282      298.712       76.754        0.066      338.567       11.303      858.684
05/09/2014  02:42:00     -218.210      -99.841        5.726      184.816      116.582       76.767    34157.107    13591.345     5893.130        5.562        2.682      239.966       94.071        0.154      338.590       11.343      858.747
05/09/2014  02:43:00     -171.915     -223.254        7.053      144.206      192.713       64.134    20795.247    37138.239     4113.108        7.073        3.102      281.774       57.420        0.042      338.659       11.458      858.730
05/09/2014  02:44:00     -349.978     -125.956        1.421      192.020      167.183       78.335    36871.767    27950.155     6136.420       10.464        3.548      371.954       83.785        0.051      338.664       11.466      858.705
05/09/2014  02:45:00     -235.011     -218.923        4.930      251.883      158.956       99.325    63445.250    25267.065     9865.419       10.086        4.929      321.182      116.262        0.131      338.666       11.469      858.711
05/09/2014  02:46:00     -210.642      -93.693        3.552      147.073       98.659       57.491    21630.408     9733.668     3305.175        4.391        1.733      230.539       67.610        0.086      338.678       11.489      858.738
05/09/2014  02:47:00     -271.803     -283.248      -13.011      212.503      189.019      100.655    45157.583    35728.091    10131.445       12.263        4.551      392.564      116.347        0.088      338.675       11.484      858.736
05/09/2014  02:48:00     -285.327     -121.793       -4.142      154.291       99.260       67.019    23805.635     9852.478     4491.554        6.720        1.907      310.234       80.447        0.067      338.656       11.451      858.718
05/09/2014  02:49:00     -365.613       31.604      -12.042      176.943      173.352       88.887    31308.675    30050.872     7900.884       10.202        3.463      366.976       88.076        0.058      338.678       11.489      858.708
05/09/2014  02:50:00     -209.718      -83.508        6.835      141.559      134.730       60.650    20039.054    18152.305     3678.406        4.643        2.093      225.733       48.699        0.047      338.628       11.406      858.702
05/09/2014  02:51:00     -362.555     -178.352       -0.951      190.595      178.202       85.087    36326.384    31756.012     7239.830       11.927        3.766      404.049       91.980        0.052      338.644       11.430      858.688
05/09/2014  02:52:00     -357.508     -117.696      -20.236      176.106      134.397       73.210    31013.273    18062.525     5359.725        9.824        2.722      376.383       85.220        0.051      338.588       11.339      858.659
05/09/2014  02:53:00     -235.608     -182.363       -2.241      130.766      101.664       65.264    17099.768    10335.630     4259.348        6.023        1.585      297.938       73.257        0.060      338.590       11.342      858.611
05/09/2014  02:54:00     -287.915     -114.401      -15.794      159.449      123.466       53.069    25424.085    15243.786     2816.281        6.985        2.174      309.811       42.937        0.019      338.582       11.328      858.595
05/09/2014  02:55:00     -370.960     -140.434      -15.496      213.234      230.224       89.850    45468.886    53003.106     8072.957       13.204        5.327      396.652       86.700        0.048      338.592       11.344      858.603
05/09/2014  02:56:00     -391.294     -303.701       -7.323      221.169      174.488       91.275    48915.760    30446.158     8331.195       16.653        4.385      495.323       83.219        0.028      338.618       11.389      858.623
05/09/2014  02:57:00     -292.974     -188.183        6.511      158.734      151.527       77.686    25196.361    22960.394     6035.173        8.773        2.710      348.205       93.106        0.071      338.602       11.361      858.634
05/09/2014  02:58:00     -372.511     -219.659      -28.501      185.925      139.864       84.996    34567.942    19562.071     7224.345       12.458        3.068      432.452       87.413        0.041      338.572       11.312      858.642
05/09/2014  02:59:00     -352.405     -140.910        0.754      174.944      183.777       87.131    30605.263    33774.164     7591.778       10.799        3.599      379.532       96.659        0.065      338.558       11.287      858.630
05/09/2014  03:00:00     -508.603     -198.899      -25.505      177.605      140.963       90.133    31543.592    19870.549     8123.875       17.920        2.977      546.112       92.985        0.029      338.570       11.307      858.632
05/09/2014  03:01:00     -251.594     -134.422       -5.522      198.901      117.659       73.576    39561.698    13843.615     5413.421        7.010        2.941      285.252       88.635        0.097      338.557       11.287      858.613
05/09/2014  03:02:00     -300.189      -82.071      -12.079      240.111      118.167       77.518    57653.292    13963.444     6009.048        8.729        3.881      311.206      110.337        0.126      338.621       11.394      858.576
05/09/2014  03:03:00     -406.154     -113.304       -0.588      256.318      238.548      106.077    65699.096    56905.324    11252.347       15.580        6.693      421.662      131.209        0.097      338.613       11.381      858.551
05/09/2014  03:04:00     -378.341     -197.441       -4.922      203.811      169.787      104.150    41538.967    28827.512    10847.135       13.167        4.061      426.761      116.219        0.074      338.620       11.391      858.560
05/09/2014  03:05:00     -333.008      -34.180       -3.216      234.744      157.895       85.492    55104.676    24930.693     7308.820        9.969        4.367      334.757       97.708        0.085      338.636       11.420      858.528
05/09/2014  03:06:00     -417.436     -226.109       -6.832      246.163      181.305       80.554    60596.378    32871.342     6488.928       16.267        4.998      474.740       91.730        0.037      338.600       11.358      858.482
05/09/2014  03:07:00     -485.121     -254.469      -23.526      185.794      172.485       86.491    34519.255    29750.957     7480.685       18.619        3.588      547.811       74.866        0.019      338.605       11.367      858.540
05/09/2014  03:08:00     -372.358     -252.383      -13.085      197.799      194.826      100.001    39124.447    37957.097    10000.262       14.478        4.354      449.831      114.063        0.064      338.654       11.448      858.584
05/09/2014  03:09:00     -370.831     -127.216        4.584      239.168      152.844       98.400    57201.174    23361.384     9682.650       12.196        4.512      392.045      110.229        0.079      338.649       11.440      858.581
05/09/2014  03:10:00     -416.720     -217.013       -6.629      215.977      150.610      103.483    46646.088    22683.462    10708.644       15.040        4.002      469.840      112.733        0.058      338.681       11.494      858.601
05/09/2014  03:11:00     -339.348     -166.225       -7.235      260.772      158.259       85.664    68001.789    25045.879     7338.361       12.159        5.019      377.872      119.296        0.100      338.679       11.490      858.614
05/09/2014  03:12:00     -247.615      -89.662       18.631      187.547      144.470       86.523    35173.841    20871.606     7486.257        6.660        3.177      263.348      102.157        0.150      338.629       11.407      858.662
05/09/2014  03:13:00     -327.511     -170.225      -10.619      166.928      194.163      103.326    27865.091    37699.290    10676.276       10.628        3.812      369.107       98.918        0.072      338.651       11.445      858.665
05/09/2014  03:14:00     -284.683     -311.564       12.522      234.118      186.953      117.715    54811.066    34951.450    13856.823       14.093        5.181      422.039      117.073        0.077      338.665       11.468      858.630
05/09/2014  03:15:00     -389.507     -130.670       -9.573      223.174      183.455       87.333    49806.714    33655.788     7627.110       12.997        4.554      410.841       94.338        0.053      338.702       11.531      858.659
05/09/2014  03:16:00     -442.357      -80.785        1.209      284.670      163.311       90.024    81037.183    26670.424     8104.296       15.899        5.791      449.674      112.864        0.063      338.712       11.547      858.625
05/09/2014  03:17:00     -550.624     -179.469       -8.144      211.807      184.848       88.479    44862.305    34168.668     7828.464       21.114        4.343      579.134      101.020        0.030      338.711       11.544      858.645
05/09/2014  03:18:00     -393.160     -348.628        1.548      247.696      171.417      133.013    61353.494    29383.830    17692.372       19.225        5.421      525.468      144.487        0.076      338.680       11.492      858.584
05/09/2014  03:19:00     -500.656     -209.167      -18.351      266.264      220.786      103.932    70896.758    48746.520    10801.919       21.257        6.522      542.593      126.410        0.054      338.643       11.431      858.628
05/09/2014  03:20:00     -369.468     -124.403      -16.255      147.943      133.883       69.047    21887.000    17924.626     4767.498        9.840        2.229      389.850       55.771        0.020      338.638       11.423      858.677
05/09/2014  03:21:00     -414.268     -283.461       -6.453      212.578      158.700       88.909    45189.439    25185.547     7904.743       16.513        3.914      501.964       86.563        0.030      338.691       11.511      858.687
05/09/2014  03:22:00     -212.832     -131.171       12.873      161.805      127.573       75.765    26181.017    16274.786     5740.319        5.542        2.410      250.006       78.492        0.099      338.681       11.494      858.676
05/09/2014  03:23:00     -370.126     -347.671      -11.300      220.762      160.107      105.688    48735.812    25634.315    11169.915       17.175        4.277      507.807      101.990        0.040      338.680       11.493      858.688
05/09/2014  03:24:00     -291.939     -186.556       10.502      198.388      139.724       90.650    39357.837    19522.820     8217.425        9.361        3.355      346.456      100.773        0.085      338.648       11.440      858.739
05/09/2014  03:25:00     -460.320     -241.412       -2.578      249.968      155.575      102.014    62484.189    24203.525    10406.789       18.362        4.855      519.783      108.654        0.044      338.665       11.467      858.718
05/09/2014  03:26:00     -332.593     -233.926        2.006      212.593      192.709       92.068    45195.580    37136.900     8476.471       12.806        4.540      406.619      107.295        0.070      338.651       11.444      858.768
05/09/2014  03:27:00     -254.418     -106.191       10.807      160.061      105.488       76.220    25619.584    11127.641     5809.524        5.933        2.128      275.690       92.395        0.112      338.648       11.440      858.764
05/09/2014  03:28:00     -313.598     -144.438       -3.099      131.964      106.348       60.554    17414.399    11309.915     3666.801        7.580        1.620      345.263       64.427        0.035      338.642       11.427      858.799
05/09/2014  03:29:00     -229.789     -209.079       21.927      186.518      130.758       74.141    34788.975    17097.771     5496.900        7.718        2.869      310.672       89.013        0.082      338.681       11.493      858.811
05/09/2014  03:30:00     -197.358     -151.867      -11.966      113.822      116.758       66.280    12955.398    13632.335     4393.031        4.656        1.549      249.025       45.890        0.034      338.680       11.493      858.784
05/09/2014  03:31:00     -228.505     -189.088        2.204      187.118      141.765       84.112    35013.262    20097.420     7074.822        7.507        3.109      296.595      104.889        0.125      338.674       11.482      858.772
05/09/2014  03:32:00     -326.323     -218.568      -24.700      153.073      178.305       70.830    23431.440    31792.568     5016.944       10.754        3.012      392.758       58.774        0.022      338.677       11.487      858.750
05/09/2014  03:33:00     -162.392      -54.525       15.512      130.544      116.692       52.560    17041.689    13616.996     2762.581        3.150        1.671      171.301       58.563        0.117      338.657       11.454      858.752
05/09/2014  03:34:00     -472.052     -336.846      -11.254      250.917      174.602      119.592    62959.379    30486.014    14302.300       22.206        5.387      579.912      113.117        0.038      338.647       11.437      858.731
05/09/2014  03:35:00     -345.700      -88.743        5.504      179.546      129.685       82.464    32236.837    16818.249     6800.296        9.162        2.793      356.909       82.349        0.053      338.655       11.451      858.746
05/09/2014  03:36:00     -396.052      -85.195       -4.132      258.543      166.152      104.806    66844.646    27606.457    10984.330       13.476        5.272      405.112      109.567        0.073      338.648       11.439      858.775
05/09/2014  03:37:00     -490.399     -275.622        3.235      260.269      228.069      112.603    67739.852    52015.392    12679.401       22.443        6.622      562.547      124.284        0.049      338.675       11.483      858.769
05/09/2014  03:38:00     -480.245     -315.122      -17.087      224.983      166.528      105.379    50617.286    27731.504    11104.830       20.982        4.473      574.402      114.864        0.040      338.700       11.527      858.755
05/09/2014  03:39:00     -359.978     -295.611       -4.315      248.383      174.238      112.335    61694.327    30358.927    12619.250       16.081        5.234      465.800      129.344        0.077      338.705       11.535      858.740
05/09/2014  03:40:00     -395.752     -176.711      -11.260      202.305      163.221       90.897    40927.349    26641.133     8262.211       13.189        3.792      433.412       89.804        0.043      338.689       11.508      858.741
05/09/2014  03:41:00     -464.254     -190.126      -29.077      213.038      198.706       98.644    45385.036    39484.259     9730.703       17.354        4.730      501.676       94.557        0.036      338.652       11.445      858.746
05/09/2014  03:42:00     -420.298     -251.526      -18.225      244.727      131.781       83.315    59891.230    17366.142     6941.345       16.221        4.210      489.812       82.256        0.028      338.663       11.464      858.703
05/09/2014  03:43:00     -347.029     -210.673        4.308      219.094      183.042       83.469    48002.241    33504.202     6967.067       12.663        4.424      405.971      100.487        0.061      338.654       11.448      858.721
05/09/2014  03:44:00     -357.928     -204.688       -4.378      201.563      162.425       87.521    40627.801    26381.901     7659.876       12.233        3.733      412.322      100.351        0.059      338.648       11.440      858.722
05/09/2014  03:45:00     -330.713     -181.647        5.808      221.099      149.761       80.932    48884.920    22428.496     6550.049       11.012        3.893      377.315       92.771        0.060      338.654       11.448      858.722
05/09/2014  03:46:00     -378.931     -143.280       -3.127      196.952      135.472       78.396    38789.899    18352.659     6145.903       11.370        3.164      405.115       81.935        0.041      338.661       11.460      858.743
05/09/2014  03:47:00     -228.618     -239.753       -7.657      159.414      165.117       76.444    25412.865    27263.708     5843.677        8.415        2.926      331.282       68.568        0.043      338.674       11.482      858.744
05/09/2014  03:48:00     -302.718     -261.095        2.855      204.826      179.300       97.707    41953.588    32148.402     9546.690       12.172        4.182      399.761      115.871        0.084      338.661       11.459      858.690
05/09/2014  03:49:00     -302.142     -157.831       17.145      184.348      143.137       92.917    33984.042    20488.281     8633.547        8.979        3.155      340.882       99.963        0.086      338.650       11.442      858.712
05/09/2014  03:50:00     -461.431     -272.538      -25.206      163.563      148.684       65.060    26752.907    22107.048     4232.743       17.045        2.655      535.906       31.987        0.004      338.677       11.488      858.750
05/09/2014  03:51:00     -361.446     -288.349       15.375      261.472      267.320      103.327    68367.745    71460.098    10676.544       18.223        7.525      462.372      113.953        0.061      338.693       11.515      858.760
05/09/2014  03:52:00     -499.668     -326.021       -1.560      269.398      202.039      108.456    72575.328    40819.604    11762.752       24.053        6.258      596.622      121.638        0.042      338.666       11.468      858.715
05/09/2014  03:53:00     -353.297     -185.366        5.218      179.647      129.666       80.994    32273.131    16813.222     6560.087       10.742        2.782      398.973       82.013        0.042      338.646       11.434      858.720
05/09/2014  03:54:00     -269.614     -249.581       10.249      185.002      148.335       84.813    34225.896    22003.240     7193.196        9.924        3.171      367.399       80.796        0.048      338.667       11.471      858.756
05/09/2014  03:55:00     -232.359     -172.976        3.692      187.399      138.430       73.292    35118.504    19162.936     5371.665        7.178        2.983      289.675       80.966        0.078      338.675       11.485      858.784
05/09/2014  03:56:00     -258.094     -210.826       13.985      226.510      135.621       85.062    51306.964    18393.113     7235.534        9.408        3.847      333.256       90.360        0.074      338.713       11.549      858.760
05/09/2014  03:57:00     -317.719     -220.780       -3.674      168.398      173.878       81.224    28357.891    30233.597     6597.329       10.743        3.259      386.897       96.824        0.063      338.733       11.583      858.766
05/09/2014  03:58:00     -325.838     -158.098       -9.140      177.357      117.319       71.722    31455.423    13763.768     5144.057        9.080        2.518      362.167       67.847        0.035      338.739       11.593      858.770
05/09/2014  03:59:00     -276.744     -200.434        4.457      146.147      117.389       65.869    21359.040    13780.293     4338.758        7.812        1.974      341.703       62.852        0.034      338.739       11.591      858.773
05/09/2014  04:00:00     -218.359     -217.952        3.346      144.334      140.641       71.982    20832.192    19779.924     5181.414        7.049        2.290      308.519       71.214        0.053      338.740       11.593      858.741
05/09/2014  04:01:00     -586.536     -272.248      -43.330      244.314      166.005      103.771    59689.330    27557.545    10768.340       25.900        4.901      646.640      109.672        0.029      338.727       11.572      858.720
05/09/2014  04:02:00     -315.514     -265.464        8.123      235.455      149.027      111.639    55439.159    22209.048    12463.337       13.008        4.506      412.335      120.356        0.085      338.721       11.564      858.705
05/09/2014  04:03:00     -289.452     -251.978        7.325      147.968      200.695       74.111    21894.632    40278.676     5492.429       10.748        3.383      383.765       76.030        0.039      338.708       11.541      858.749
05/09/2014  04:04:00     -303.516     -249.327       -2.800      201.584      212.171       96.807    40635.945    45016.400     9371.590       12.464        4.751      392.792      105.971        0.073      338.693       11.514      858.777
05/09/2014  04:05:00     -160.977     -163.052       24.632      254.287      224.724       99.244    64662.092    50500.873     9849.319        8.903        6.251      229.128      117.126        0.261      338.677       11.488      858.748
05/09/2014  04:06:00     -360.446     -233.914       23.148      252.975      188.354       99.722    63996.135    35477.167     9944.490       14.727        5.471      429.694      113.120        0.069      338.644       11.433      858.718
05/09/2014  04:07:00     -392.447     -275.462        3.182      258.181      232.999      113.823    66657.364    54288.541    12955.743       18.188        6.695      479.473      135.891        0.080      338.638       11.421      858.769
05/09/2014  04:08:00     -577.847     -283.426       -7.702      246.948      209.627       98.160    60983.183    43943.651     9635.328       26.441        5.728      643.613      100.943        0.025      338.639       11.423      858.765
05/09/2014  04:09:00     -250.378     -227.054       26.556      315.625      196.876      129.838    99619.415    38760.139    16857.970       13.506        7.762      337.998      159.132        0.222      338.645       11.433      858.741
05/09/2014  04:10:00     -550.990     -292.450        2.204      259.171      203.132      107.142    67169.809    41262.620    11479.462       25.449        5.996      623.792      114.037        0.033      338.642       11.429      858.777
05/09/2014  04:11:00     -423.181     -263.971        1.199      269.908      223.387      117.842    72850.191    49901.771    13886.629       19.267        6.832      498.761      149.269        0.090      338.646       11.436      858.775
05/09/2014  04:12:00     -251.418     -251.265      -19.028      166.098      131.195       84.090    27588.698    17212.001     7071.185        8.928        2.594      355.450       86.536        0.059      338.645       11.435      858.817
05/09/2014  04:13:00     -419.859     -186.342      -12.117      294.751      204.098      107.612    86877.953    41655.939    11580.284       17.561        7.006      459.353      124.724        0.074      338.614       11.383      858.816
05/09/2014  04:14:00     -370.611     -147.654        2.924      213.486      168.783       97.092    45576.089    28487.592     9426.848       12.131        4.175      398.941      101.145        0.064      338.615       11.385      858.838
05/09/2014  04:15:00     -527.374     -282.920      -16.097      236.567      192.654      105.702    55963.862    37115.532    11172.899       23.132        5.213      598.470      108.391        0.033      338.643       11.429      858.861
05/09/2014  04:16:00     -235.157     -190.516       18.177      257.762      196.868      118.438    66441.102    38757.154    14027.608       10.555        5.961      302.647      143.794        0.226      338.629       11.407      858.921
05/09/2014  04:17:00     -273.918     -114.322        2.787      187.460      157.577       87.079    35141.331    24830.443     7582.827        7.782        3.378      296.818       97.041        0.107      338.627       11.403      858.943
05/09/2014  04:18:00     -448.580      -82.899      -10.241      191.496      140.238       94.274    36670.749    19666.647     8887.658       13.670        3.261      456.175       90.759        0.040      338.590       11.342      858.940
05/09/2014  04:19:00     -361.407     -288.501       -9.710      205.878      165.942       94.900    42385.876    27536.693     9006.099       14.642        3.946      462.437      101.990        0.049      338.587       11.337      858.921
05/09/2014  04:20:00     -313.503     -203.451      -10.239      206.292      162.675       84.263    42556.262    26463.051     7100.175       10.794        3.806      373.733       86.969        0.054      338.573       11.314      858.929
05/09/2014  04:21:00     -266.878     -222.689      -21.521      176.605      133.127       74.473    31189.493    17722.726     5546.243        8.786        2.723      347.583       71.737        0.043      338.581       11.327      858.950
05/09/2014  04:22:00     -264.364     -129.650      -15.339      144.405       97.382       46.644    20852.946     9483.160     2175.635        5.972        1.626      294.444       58.443        0.039      338.576       11.319      858.975
05/09/2014  04:23:00     -315.432     -240.512       -5.338      177.338      143.306       75.050    31448.714    20536.711     5632.494       10.748        2.881      396.665       81.160        0.042      338.576       11.317      858.957
05/09/2014  04:24:00     -143.703     -126.217        8.569       79.653       60.077       50.089     6344.629     3609.267     2508.938        2.456        0.623      191.262       46.520        0.059      338.561       11.294      859.032
05/09/2014  04:25:00     -270.080     -273.015       -6.186      183.863      204.237       82.726    33805.614    41712.613     6843.614       11.492        4.118      384.032       93.448        0.059      338.573       11.314      859.032
05/09/2014  04:26:00     -294.065     -178.958      -12.482      149.863      160.435       89.846    22458.965    25739.454     8072.317        8.745        2.814      344.239       82.580        0.058      338.568       11.305      859.049
05/09/2014  04:27:00     -236.515     -179.488       -1.930      131.449      113.707       67.881    17278.957    12929.224     4607.770        6.148        1.741      296.909       68.930        0.054      338.567       11.304      859.070
05/09/2014  04:28:00     -210.457     -133.233       -3.351       96.581       86.501       46.615     9327.953     7482.386     2172.971        4.052        0.949      249.085       48.238        0.038      338.552       11.277      859.089
05/09/2014  04:29:00     -209.914      -75.960        1.918      110.542       85.565       57.181    12219.558     7321.406     3269.616        3.632        1.141      223.235       60.144        0.073      338.536       11.252      859.094
05/09/2014  04:30:00     -122.619     -103.637       16.792      120.655       82.608       55.367    14557.642     6824.130     3065.462        2.525        1.222      160.549       56.111        0.122      338.540       11.259      859.091
05/09/2014  04:31:00     -121.803     -123.927       15.080      100.769      108.883       59.152    10154.341    11855.488     3498.977        2.796        1.275      173.764       59.952        0.119      338.551       11.277      859.078
05/09/2014  04:32:00     -119.495     -202.811        5.778      116.676      151.947       55.191    13613.365    23087.963     3046.099        4.759        1.987      235.396       49.084        0.043      338.590       11.342      859.074
05/09/2014  04:33:00     -369.086     -151.546      -11.941      140.725      117.341       82.764    19803.404    13768.903     6849.936        9.987        2.021      398.987       76.801        0.037      338.605       11.367      859.052
05/09/2014  04:34:00     -176.072      -81.200        0.010       97.045       70.873       49.211     9417.769     5023.051     2421.694        2.723        0.843      193.894       51.135        0.070      338.567       11.303      859.104
05/09/2014  04:35:00     -268.982      -95.490      -12.864      135.919      118.417       68.878    18473.872    14022.502     4744.136        5.943        1.862      285.429       51.822        0.033      338.604       11.366      859.132
05/09/2014  04:36:00     -355.920     -216.537       -2.806      182.763      186.115       72.623    33402.220    34638.760     5274.154       12.343        3.666      416.614       75.519        0.033      338.613       11.381      859.149
05/09/2014  04:37:00     -168.764      -87.901       13.655      166.925      217.570       64.915    27863.889    47336.551     4213.911        5.789        3.971      190.284       73.622        0.150      338.622       11.396      859.144
05/09/2014  04:38:00     -161.251     -188.451        2.269      158.242      123.509       74.366    25040.441    15254.491     5530.259        5.366        2.291      248.023       77.986        0.099      338.604       11.366      859.152
05/09/2014  04:39:00     -300.204     -249.276        1.423      184.559      134.685       88.330    34061.900    18139.975     7802.137       10.612        3.000      390.207       98.854        0.064      338.584       11.332      859.147
05/09/2014  04:40:00     -180.688     -165.293       31.422      178.541      178.142      104.139    31877.015    31734.545    10844.982        6.769        3.723      244.887      112.560        0.211      338.600       11.359      859.131
05/09/2014  04:41:00     -466.403     -209.815      -14.808      198.284      152.131       86.303    39316.498    23143.813     7448.281       16.583        3.495      511.424       98.795        0.037      338.587       11.338      859.152
05/09/2014  04:42:00     -331.555     -258.241        6.695      229.346      157.258       96.452    52599.409    24729.984     9303.000       13.163        4.332      420.258      101.459        0.058      338.597       11.354      859.128
05/09/2014  04:43:00     -326.732     -142.735      -12.845      225.201      107.727       69.963    50715.436    11605.199     4894.775        9.724        3.361      356.549       57.988        0.026      338.576       11.318      859.141
05/09/2014  04:44:00     -236.641     -257.712       -4.472      195.672      174.279       81.205    38287.363    30373.078     6594.190        9.883        3.763      349.878       99.429        0.081      338.612       11.379      859.154
05/09/2014  04:45:00     -228.262     -204.072       -8.087      188.812      123.865       75.500    35650.014    15342.479     5700.289        7.524        2.835      306.185       50.606        0.027      338.595       11.350      859.192
05/09/2014  04:46:00     -274.265       15.728      -11.761      219.402      106.989       77.264    48137.359    11446.691     5969.784        7.057        3.278      274.716       79.027        0.083      338.555       11.284      859.180
05/09/2014  04:47:00     -281.950      -31.452       -3.363      176.691      105.030       66.253    31219.700    11031.264     4389.406        6.356        2.332      283.699       76.452        0.073      338.506       11.200      859.153
05/09/2014  04:48:00     -199.402      -49.535       14.744      220.847      146.372       81.751    48773.179    21424.743     6683.260        5.964        3.844      205.463       98.520        0.230      338.517       11.221      859.168
05/09/2014  04:49:00     -294.093     -120.469      -10.402      181.651      190.438       93.523    32997.139    36266.701     8746.603        8.955        3.901      317.811       89.620        0.080      338.526       11.234      859.190
05/09/2014  04:50:00     -426.264     -199.745      -15.664      177.999      101.731       72.059    31683.556    10349.175     5192.493       13.453        2.361      470.743       75.136        0.025      338.531       11.243      859.209
05/09/2014  04:51:00     -251.316      -87.947        5.901      137.090      113.026       60.944    18793.784    12774.791     3714.156        5.310        1.764      266.260       56.682        0.045      338.518       11.220      859.205
05/09/2014  04:52:00     -406.621     -157.413      -27.787      205.278      191.379       85.556    42139.094    36626.033     7319.898       13.847        4.304      436.027       87.798        0.041      338.526       11.234      859.248
05/09/2014  04:53:00     -207.728      -94.821       -3.841      211.763      135.746       74.525    44843.633    18427.082     5554.028        6.048        3.441      228.346      100.228        0.193      338.503       11.196      859.260
05/09/2014  04:54:00     -219.184     -155.826        6.956      134.837      140.444       70.779    18181.094    19724.556     5009.607        5.764        2.146      268.930       66.124        0.060      338.507       11.203      859.229
05/09/2014  04:55:00     -252.457     -140.018       -2.775      159.859      118.787       68.855    25554.984    14110.447     4740.966        6.387        2.220      288.686       58.150        0.041      338.496       11.184      859.251
05/09/2014  04:56:00     -367.157     -191.865        3.222      228.470      201.728       97.022    52198.457    40694.277     9413.263       13.695        5.115      414.266      118.851        0.082      338.534       11.248      859.232
05/09/2014  04:57:00     -330.733     -219.948       -2.862      153.466      147.234       72.791    23551.739    21677.777     5298.468       10.414        2.526      397.192       72.729        0.034      338.549       11.272      859.239
05/09/2014  04:58:00     -377.479     -280.800      -22.144      173.298      140.147       88.888    30032.360    19641.149     7901.068       13.969        2.879      470.467       84.855        0.033      338.527       11.237      859.182
05/09/2014  04:59:00     -158.214     -125.248       -7.333      126.662      108.856       57.353    16043.206    11849.555     3289.311        3.597        1.559      201.788       63.131        0.098      338.522       11.229      859.172
05/09/2014  05:00:00     -409.825     -243.402       -9.153      166.214      126.627       86.944    27627.258    16034.310     7559.280       13.924        2.561      476.656       90.586        0.036      338.504       11.199      859.179
05/09/2014  05:01:00     -427.456     -153.104      -32.772      201.434      152.325       75.026    40575.697    23203.004     5628.862       13.831        3.470      454.048       88.678        0.038      338.512       11.212      859.149
05/09/2014  05:02:00     -356.380     -100.200      -20.732      185.688      115.524       73.906    34479.929    13345.830     5462.122        9.537        2.664      370.198       89.364        0.058      338.479       11.155      859.172
05/09/2014  05:03:00     -121.374      -69.783       12.131      137.431      127.246       71.473    18887.178    16191.503     5108.352        2.996        2.009      140.005       59.298        0.179      338.503       11.195      859.139
05/09/2014  05:04:00     -212.004     -158.650       22.206      129.884      130.376       73.568    16869.977    16997.935     5412.294        5.494        1.964      264.794       61.181        0.053      338.491       11.175      859.101
05/09/2014  05:05:00     -375.102     -208.075      -34.299      170.252      138.213       70.939    28985.743    19102.858     5032.370       11.914        2.656      428.949       74.397        0.030      338.547       11.270      859.124
05/09/2014  05:06:00     -359.269     -238.015      -20.130      136.277      124.003       74.940    18571.497    15376.626     5616.060       11.284        1.978      430.959       71.272        0.027      338.533       11.246      859.145
05/09/2014  05:07:00     -375.076     -148.546       -9.092      172.156      121.981       69.915    29637.711    14879.350     4888.077       10.611        2.470      403.420       70.465        0.031      338.482       11.161      859.178
05/09/2014  05:08:00     -237.411     -140.112       14.707      176.288      119.223       73.051    31077.511    14214.234     5336.433        6.341        2.531      275.672       87.837        0.102      338.469       11.138      859.210
05/09/2014  05:09:00     -179.833      -54.844        4.466      117.419      101.794       53.265    13787.115    10362.053     2837.138        3.117        1.349      188.010       60.983        0.105      338.438       11.086      859.238
05/09/2014  05:10:00     -330.288     -183.512      -13.331      202.297      147.630       68.407    40924.116    21794.551     4679.499       10.516        3.370      377.845       70.092        0.034      338.458       11.121      859.239
05/09/2014  05:11:00     -161.593      -88.205       26.934      146.409      138.990       59.715    21435.568    19318.328     3565.886        3.946        2.216      184.099       75.592        0.169      338.455       11.115      859.235
05/09/2014  05:12:00     -316.153     -165.299       -4.493      183.235      126.662       71.764    33575.077    16043.234     5150.028        9.102        2.738      356.758       81.211        0.052      338.449       11.106      859.243
05/09/2014  05:13:00     -384.147     -174.819      -26.326      222.895      141.484       85.088    49682.067    20017.842     7239.886       12.787        3.847      422.055       96.354        0.052      338.468       11.136      859.263
05/09/2014  05:14:00     -226.591     -128.264       -2.780      151.263      125.075       90.127    22880.593    15643.682     8122.818        5.722        2.332      260.375       83.461        0.103      338.473       11.144      859.296
05/09/2014  05:15:00     -369.352      -81.701      -29.722      154.167      134.516       79.417    23767.566    18094.545     6307.074        9.606        2.408      378.280       63.583        0.028      338.481       11.157      859.316
05/09/2014  05:16:00     -324.676     -139.918      -12.391      142.959      111.666       66.650    20437.334    12469.224     4442.188        8.124        1.867      353.541       69.904        0.039      338.482       11.161      859.348
05/09/2014  05:17:00     -356.148     -218.961      -40.604      105.736      119.051       52.763    11180.073    14173.115     2783.927       10.228        1.407      418.074       45.969        0.012      338.482       11.159      859.372
05/09/2014  05:18:00     -300.340      -92.434       -2.626      148.639      117.459       82.934    22093.472    13796.534     6877.998        7.075        2.138      314.242       71.904        0.052      338.471       11.142      859.370
05/09/2014  05:19:00     -116.096      -64.797        5.750       80.087       87.787       53.291     6413.984     7706.560     2839.879        1.733        0.848      132.955       28.336        0.045      338.463       11.130      859.342
05/09/2014  05:20:00     -174.399      -68.597      -10.047      117.172       71.321       58.219    13729.384     5086.707     3389.430        2.871        1.110      187.404       62.622        0.112      338.453       11.110      859.341
05/09/2014  05:21:00     -114.611      -35.192       11.913       56.823       63.412       39.165     3228.845     4021.112     1533.920        1.165        0.439      119.893       34.049        0.081      338.409       11.041      859.361
05/09/2014  05:22:00     -218.622      -85.014      -20.874       70.436       96.819       36.837     4961.222     9373.860     1356.976        3.557        0.785      234.570       36.254        0.024      338.426       11.066      859.360
05/09/2014  05:23:00     -218.874      -13.299      -12.820       94.438      113.767       45.346     8918.483    12942.955     2056.221        3.608        1.196      219.278       44.814        0.042      338.404       11.029      859.405
05/09/2014  05:24:00     -215.261      -55.249       -6.480       84.628       99.310       44.110     7161.890     9862.401     1945.714        3.420        0.949      222.238       43.078        0.038      338.386       10.998      859.401
05/09/2014  05:25:00     -252.157     -126.987       -2.227      189.030      135.138       64.517    35732.354    18262.375     4162.385        6.892        2.908      282.328       66.244        0.055      338.438       11.086      859.382
05/09/2014  05:26:00     -192.731      -32.669       -7.247      196.081      143.688       73.951    38447.769    20646.192     5468.712        5.140        3.228      195.480       85.607        0.192      338.372       10.977      859.374
05/09/2014  05:27:00     -251.236     -153.398      -17.520      182.145      171.176       87.083    33176.676    29301.072     7583.428        7.850        3.503      294.365       95.031        0.104      338.390       11.005      859.412
05/09/2014  05:28:00      -46.921        5.997       17.937       50.057       42.579       34.479     2505.698     1812.932     1188.782        0.403        0.275       47.303       35.714        0.570      338.357       10.954      859.398
05/09/2014  05:29:00     -137.817       -7.945       -2.308       72.848       58.380       33.646     5306.791     3408.170     1132.057        1.445        0.492      138.046       26.999        0.038      338.344       10.932      859.410
05/09/2014  05:30:00     -180.326     -122.035       13.648       81.722      100.980       51.038     6678.493    10196.924     2604.921        3.353        0.974      217.738       40.261        0.034      338.358       10.953      859.427
05/09/2014  05:31:00     -315.290      -44.029        4.521      180.174      174.479       80.014    32462.702    30442.931     6402.310        8.532        3.465      318.350       83.559        0.069      338.325       10.896      859.437
05/09/2014  05:32:00     -238.615     -130.102      -10.752      159.796      155.346       75.924    25534.835    24132.361     5764.418        6.469        2.772      271.779       73.065        0.072      338.370       10.973      859.459
05/09/2014  05:33:00     -311.563     -142.003       18.269      208.511      163.628       80.574    43476.815    26774.133     6492.150        9.714        3.837      342.398       93.360        0.074      338.367       10.967      859.487
05/09/2014  05:34:00     -260.629     -132.668      -11.270      136.029       98.237       61.052    18503.905     9650.460     3727.320        5.876        1.594      292.452       64.068        0.048      338.355       10.946      859.511
05/09/2014  05:35:00     -288.634      -92.566      -17.232      111.638       82.035       52.893    12463.096     6729.804     2797.627        5.708        1.100      303.114       60.600        0.040      338.343       10.927      859.559
05/09/2014  05:36:00     -345.262      -92.189      -21.804      185.730      143.325       84.502    34495.557    20541.966     7140.583        9.517        3.109      357.358       86.167        0.058      338.344       10.928      859.566
05/09/2014  05:37:00     -224.132      -51.012        3.858      174.266      143.340       75.996    30368.515    20546.390     5775.381        5.476        2.835      229.864       94.610        0.169      338.334       10.913      859.576
05/09/2014  05:38:00     -428.274     -103.385      -36.512      108.273      110.134       67.451    11723.019    12129.573     4549.680       11.192        1.420      440.576       58.322        0.018      338.316       10.882      859.585
05/09/2014  05:39:00     -347.712     -135.057      -14.628      144.099      123.002       69.136    20764.428    15129.590     4779.749        9.001        2.034      373.020       50.348        0.018      338.310       10.871      859.614
05/09/2014  05:40:00     -183.592      -57.204       16.979      149.820       87.161       64.146    22446.181     7597.013     4114.760        3.571        1.708      192.297       65.887        0.117      338.348       10.938      859.635
05/09/2014  05:41:00     -241.393       17.394       -8.592      152.716      118.420       70.972    23322.261    14023.198     5037.000        5.051        2.119      242.019       74.954        0.096      338.316       10.882      859.651
05/09/2014  05:42:00     -317.571        2.434      -22.127      146.107       87.026       55.553    21347.158     7573.557     3086.184        6.667        1.600      317.581       67.748        0.046      338.276       10.814      859.639
05/09/2014  05:43:00     -322.347     -111.245      -27.376      183.034      106.783       56.634    33501.598    11402.584     3207.409        8.256        2.406      341.003       71.179        0.044      338.301       10.857      859.651
05/09/2014  05:44:00     -262.988     -112.424      -23.152       95.665       81.689       48.272     9151.794     6673.127     2330.142        5.024        0.908      286.010       44.323        0.024      338.309       10.870      859.649
05/09/2014  05:45:00     -292.739      -94.580      -21.050       69.525       78.260       47.890     4833.736     6124.558     2293.489        5.417        0.663      307.638       37.424        0.015      338.284       10.828      859.695
05/09/2014  05:46:00     -165.973       -6.122       -5.153       77.859       75.544       37.156     6062.003     5706.851     1380.584        2.038        0.657      166.085       39.330        0.056      338.260       10.789      859.695
05/09/2014  05:47:00     -111.245      -22.166       -6.008      119.789       92.830       56.076    14349.486     8617.411     3144.539        1.950        1.306      113.432       54.959        0.235      338.258       10.786      859.706
05/09/2014  05:48:00     -289.353     -137.629      -12.736      190.321      140.846       66.975    36221.903    19837.679     4485.661        8.168        3.027      320.417       70.352        0.048      338.278       10.818      859.713
05/09/2014  05:49:00     -274.117     -151.872       15.337      218.836      151.601       84.980    47889.109    22982.966     7221.628        8.825        3.905      313.377       96.212        0.094      338.262       10.791      859.733
05/09/2014  05:50:00     -251.391      -55.048       -5.264      137.069       98.167       56.101    18787.861     9636.773     3147.347        4.891        1.579      257.348       70.074        0.074      338.254       10.778      859.752
05/09/2014  05:51:00     -232.568      -52.043      -17.074       97.100       88.752       46.678     9428.413     7876.834     2178.811        3.828        0.974      238.320       42.104        0.031      338.228       10.735      859.756
05/09/2014  05:52:00     -230.565      -49.008       -1.246      130.684       96.191       61.335    17078.205     9252.658     3761.981        4.282        1.505      235.716       71.270        0.091      338.233       10.743      859.721
05/09/2014  05:53:00     -193.094        1.229       -5.561      115.247       73.971       50.066    13281.861     5471.685     2506.626        2.928        1.063      193.098       55.236        0.082      338.191       10.672      859.736
05/09/2014  05:54:00     -221.455      -36.836       -6.543      105.151      116.429       48.138    11056.727    13555.626     2317.287        3.868        1.346      224.498       48.018        0.046      338.211       10.704      859.781
05/09/2014  05:55:00     -208.169      -41.638      -21.402       83.342       63.180       43.115     6945.918     3991.714     1858.912        2.916        0.640      212.292       42.238        0.040      338.199       10.686      859.790
05/09/2014  05:56:00     -174.429       25.522        1.373      118.797       66.263       50.511    14112.717     4390.823     2551.319        2.606        1.053      176.286       51.148        0.084      338.176       10.646      859.768
05/09/2014  05:57:00     -246.348      -40.956      -15.439      105.871       66.943       51.474    11208.689     4481.327     2649.606        4.047        0.917      249.730       53.530        0.046      338.211       10.704      859.751
05/09/2014  05:58:00     -337.304      -46.376      -19.357      150.344      115.595       58.153    22603.456    13362.277     3381.740        7.782        1.967      340.477       52.767        0.024      338.205       10.694      859.758
05/09/2014  05:59:00     -181.802      -33.007        2.595      164.390      113.637       68.744    27023.915    12913.410     4725.763        3.940        2.233      184.774       80.655        0.191      338.213       10.709      859.749
05/09/2014  06:00:00     -321.675      -66.674      -11.253      196.935      150.120       67.271    38783.549    22535.958     4525.377        8.693        3.292      328.512       62.906        0.037      338.207       10.699      859.751
05/09/2014  06:01:00     -480.113      -37.779      -21.729      231.466      219.506       69.699    53576.682    48183.046     4857.907       16.949        5.331      481.598       94.150        0.038      338.239       10.752      859.743
05/09/2014  06:02:00     -482.997     -146.853      -30.185      191.968      174.020       80.574    36851.662    30282.807     6492.219       16.468        3.681      504.829       86.721        0.030      338.229       10.738      859.740
05/09/2014  06:03:00     -234.443     -108.188       -2.182      201.473      116.356       73.124    40591.407    13538.789     5347.088        6.306        2.974      258.202       70.397        0.074      338.231       10.739      859.758
05/09/2014  06:04:00     -401.013     -177.263      -15.693      147.516      135.231       66.044    21761.106    18287.362     4361.763       11.844        2.221      438.444       57.360        0.017      338.223       10.726      859.769
05/09/2014  06:05:00     -365.156     -184.274       -4.482      141.245      110.691       69.891    19950.096    12252.463     4884.758       10.219        1.854      409.018       68.752        0.028      338.213       10.707      859.777
05/09/2014  06:06:00     -303.744      -28.894       -8.106      164.661       87.151       64.224    27113.320     7595.359     4124.726        6.599        1.942      305.115       77.917        0.065      338.200       10.685      859.809
05/09/2014  06:07:00     -583.573     -129.513      -21.685      188.216      140.319       83.942    35425.396    19689.556     7046.240       20.997        3.108      597.772       94.507        0.025      338.179       10.650      859.786
05/09/2014  06:08:00     -308.175      -97.488       -0.526      197.602      141.613       67.115    39046.488    20054.296     4504.396        8.403        3.180      323.227       80.108        0.061      338.180       10.652      859.810
05/09/2014  06:09:00     -309.272      -81.156      -12.233      149.238      117.318       61.094    22272.043    13763.504     3732.472        7.107        1.988      319.743       59.280        0.034      338.147       10.598      859.811
05/09/2014  06:10:00     -405.282     -217.293       -7.359      175.581      139.850       81.401    30828.683    19558.147     6626.066       13.426        2.851      459.858       79.352        0.030      338.129       10.567      859.805
05/09/2014  06:11:00     -251.633     -144.924        1.791      144.070      124.176       71.301    20756.198    15419.798     5083.775        6.278        2.063      290.383       78.960        0.074      338.144       10.592      859.788
05/09/2014  06:12:00     -325.042      -55.802      -11.317      127.480      141.792       61.723    16251.210    20105.020     3809.773        7.452        2.008      329.797       56.388        0.029      338.130       10.568      859.814
05/09/2014  06:13:00     -500.217      -21.933      -34.210      143.378      149.126       69.334    20557.275    22238.695     4807.175       14.973        2.380      500.698       57.489        0.013      338.106       10.528      859.774
05/09/2014  06:14:00     -495.912     -120.721      -29.189      169.022      145.103       74.241    28568.554    21054.821     5511.795       15.823        2.757      510.395       67.467        0.017      338.093       10.507      859.755
05/09/2014  06:15:00     -483.260      -65.048      -25.805      174.785      155.877       80.895    30549.770    24297.698     6543.940       14.990        3.070      487.618       85.488        0.031      338.090       10.503      859.776
05/09/2014  06:16:00     -279.247      -97.081       -6.455      159.102      151.290       78.322    25313.298    22888.547     6134.347        7.088        2.717      295.641       78.163        0.070      338.100       10.519      859.811
05/09/2014  06:17:00     -484.127     -192.618      -12.734      214.384      171.364       98.138    45960.557    29365.712     9631.084       17.828        4.248      521.038      103.062        0.039      338.144       10.592      859.793
05/09/2014  06:18:00     -322.604     -156.502        0.476      185.864      204.206       86.888    34545.256    41700.013     7549.609       10.616        4.190      358.561      102.415        0.082      338.157       10.613      859.788
05/09/2014  06:19:00     -226.664     -109.285       13.785      137.216      123.791       69.946    18828.101    15324.296     4892.512        5.127        1.952      251.634       72.700        0.083      338.170       10.637      859.797
05/09/2014  06:20:00     -485.757      -80.682      -28.875      185.667      131.227       67.563    34472.310    17220.554     4564.817       14.977        2.813      492.412       73.520        0.022      338.153       10.608      859.794
05/09/2014  06:21:00     -544.644      -51.622        1.860      256.153      190.658      113.909    65614.458    36350.492    12975.348       20.710        5.747      547.085      135.242        0.061      338.126       10.562      859.722
05/09/2014  06:22:00     -420.588      -38.947      -14.131      246.387      175.712       99.625    60706.324    30874.827     9925.109       14.004        5.075      422.387      133.407        0.100      338.118       10.548      859.750
05/09/2014  06:23:00     -432.394      -95.013      -23.166      169.202      132.637       73.543    28629.215    17592.493     5408.616       12.407        2.582      442.710       76.123        0.030      338.125       10.560      859.736
05/09/2014  06:24:00     -197.078      -33.143       39.981      222.272      189.915      102.992    49404.835    36067.683    10607.307        6.879        4.804      199.845      126.427        0.400      338.196       10.680      859.714
05/09/2014  06:25:00     -406.755      -97.959      -15.627      216.360      189.211       85.818    46811.550    35800.685     7364.706       13.262        4.499      418.385       84.073        0.040      338.141       10.586      859.717
05/09/2014  06:26:00     -557.431     -107.559      -24.410      214.898      129.854       94.643    46181.191    16862.096     8957.373       19.743        3.600      567.713      112.050        0.039      338.157       10.614      859.733
05/09/2014  06:27:00     -361.302     -127.498        0.407      207.959      153.902       88.240    43246.808    23685.819     7786.280       11.074        3.736      383.138      104.036        0.074      338.187       10.663      859.737
05/09/2014  06:28:00     -381.155     -130.880      -14.924      218.388      158.773       98.428    47693.121    25208.888     9688.049       12.259        4.130      403.000      106.846        0.070      338.197       10.680      859.729
05/09/2014  06:29:00     -291.100     -109.934        3.225      148.056      123.549       66.163    21920.692    15264.332     4377.599        6.919        2.078      311.166       72.497        0.054      338.201       10.689      859.739
05/09/2014  06:30:00     -507.244     -290.131      -15.953      212.316      169.344       89.905    45078.132    28677.440     8082.989       21.177        4.092      584.356       94.887        0.026      338.196       10.679      859.718
05/09/2014  06:31:00     -364.678     -109.616        0.108      167.012      148.740       81.631    27892.869    22123.539     6663.693       10.083        2.834      380.796       82.597        0.047      338.206       10.695      859.725
05/09/2014  06:32:00     -164.993      -62.914       19.486      136.157      111.268       79.942    18538.622    12380.674     6390.711        3.443        1.866      176.581       63.218        0.128      338.242       10.757      859.723
05/09/2014  06:33:00     -314.444     -125.107      -20.694      203.952      200.926       97.187    41596.358    40371.333     9445.344       10.317        4.571      338.418       94.014        0.077      338.236       10.746      859.741
05/09/2014  06:34:00     -395.222     -185.463      -12.501      224.684      173.771       99.175    50483.059    30196.215     9835.688       14.062        4.526      436.574      111.000        0.065      338.210       10.704      859.728
05/09/2014  06:35:00     -502.766     -250.762      -15.520      227.550      190.963       92.128    51778.803    36466.932     8487.584       20.630        4.837      561.832       99.376        0.031      338.225       10.729      859.742
05/09/2014  06:36:00     -442.064      -78.208      -14.253      194.623      172.867       99.654    37878.086    29882.971     9930.987       13.970        3.885      448.929       93.300        0.043      338.229       10.735      859.738
05/09/2014  06:37:00     -480.076     -138.426       -3.489      228.023      151.205       89.034    51994.663    22862.977     7926.980       16.620        4.139      499.634       92.795        0.034      338.252       10.775      859.754
05/09/2014  06:38:00     -429.384     -144.579      -22.667      190.544      141.760       81.495    36307.033    20095.766     6641.453       13.440        3.152      453.071       92.816        0.042      338.266       10.798      859.780
05/09/2014  06:39:00     -233.188     -176.665        1.542      124.240      100.955       59.850    15435.544    10191.966     3582.068        5.739        1.460      292.552       65.132        0.050      338.324       10.895      859.797
05/09/2014  06:40:00     -342.196     -192.041      -20.244      252.792      154.356       74.323    63903.681    23825.635     5523.951       12.380        4.663      392.400      102.831        0.069      338.318       10.885      859.792
05/09/2014  06:41:00     -494.060      -85.302      -11.758      213.910      187.505       86.038    45757.648    35158.271     7402.613       16.990        4.416      501.370       97.766        0.038      338.301       10.856      859.776
05/09/2014  06:42:00     -492.314      -66.227      -17.652      189.976      178.304       94.818    36090.755    31792.423     8990.424       16.196        3.844      496.749       98.901        0.040      338.306       10.865      859.795
05/09/2014  06:43:00     -434.139     -148.860      -12.921      199.285      194.322       90.989    39714.602    37761.026     8278.980       14.826        4.288      458.951       83.729        0.033      338.308       10.869      859.775
05/09/2014  06:44:00     -346.295      -52.274        4.391      208.806      147.541       79.714    43599.859    21768.291     6354.295        9.718        3.586      350.219       95.349        0.074      338.331       10.905      859.808
05/09/2014  06:45:00     -283.141     -111.761       16.076      223.292      190.625       95.235    49859.449    36337.932     9069.756        9.407        4.763      304.400      108.935        0.128      338.371       10.973      859.819
05/09/2014  06:46:00     -304.572     -156.042       -0.663      177.303      183.342       92.872    31436.486    33614.212     8625.138        9.538        3.684      342.218       98.997        0.084      338.342       10.925      859.866
05/09/2014  06:47:00     -244.150     -179.607       10.939      189.788      203.813      105.690    36019.399    41539.747    11170.415        9.034        4.436      303.097      121.233        0.160      338.368       10.969      859.847
05/09/2014  06:48:00     -425.716     -153.727        5.722      196.624      182.142       93.502    38661.029    33175.813     8742.554       14.272        4.029      452.621       87.585        0.037      338.313       10.876      859.882
05/09/2014  06:49:00     -473.832      -24.659      -34.813      163.942      130.539       74.458    26876.898    17040.345     5544.026       13.789        2.473      474.473       83.851        0.031      338.317       10.883      859.885
05/09/2014  06:50:00     -336.745     -125.367       13.553      217.200      207.706      100.044    47175.633    43141.712    10008.709       11.479        5.016      359.324      114.187        0.101      338.332       10.910      859.886
05/09/2014  06:51:00     -204.676      -94.177        3.829      177.884      160.379       84.249    31642.891    25721.447     7097.846        5.761        3.223      225.303       79.923        0.126      338.359       10.954      859.896
05/09/2014  06:52:00     -447.531     -230.503       -7.179      268.539      177.928       95.564    72113.096    31658.211     9132.511       18.316        5.645      503.404      111.659        0.049      338.330       10.906      859.890
05/09/2014  06:53:00     -425.967     -137.884      -28.130      166.489      152.065       77.168    27718.560    23123.782     5954.941       12.901        2.840      447.727       73.528        0.027      338.322       10.893      859.927
05/09/2014  06:54:00     -280.797     -204.140      -33.040      174.493      167.498       82.979    30447.953    28055.454     6885.522        9.349        3.269      347.160       82.248        0.056      338.370       10.974      859.925
05/09/2014  06:55:00     -323.404     -164.358       -2.341      163.331      152.272       84.966    26676.886    23186.692     7219.208        9.433        2.854      362.772       92.516        0.065      338.375       10.981      859.914
05/09/2014  06:56:00     -227.353     -183.645       31.509      267.226      206.653      115.987    71409.584    42705.642    13452.928       10.696        6.378      292.258      140.939        0.233      338.408       11.035      859.898
05/09/2014  06:57:00     -300.203     -118.172       -4.427      164.710      131.620       80.374    27129.329    17323.745     6459.973        7.750        2.546      322.624       66.518        0.043      338.384       10.998      859.895
05/09/2014  06:58:00     -392.677      -85.754      -13.065      216.665      172.550       92.244    46943.682    29773.487     8508.931       12.346        4.261      401.932      114.513        0.081      338.371       10.974      859.957
05/09/2014  06:59:00     -432.701      -65.617       -8.108      260.175      155.882       90.590    67690.912    24299.284     8206.537       14.588        5.010      437.648      112.989        0.067      338.381       10.991      859.970
05/09/2014  07:00:00     -543.397     -118.406      -24.637      224.234      163.243       89.406    50280.904    26648.228     7993.387       19.740        4.246      556.148       89.949        0.026      338.297       10.850      859.941
05/09/2014  07:01:00     -516.497     -146.962      -34.952      194.677      124.402       91.143    37899.057    15475.884     8307.040       17.562        3.084      536.999       86.315        0.026      338.366       10.965      859.935
05/09/2014  07:02:00     -285.104      -94.005        1.999      261.641      162.896       89.625    68456.250    26535.255     8032.574        9.655        5.151      300.202      121.833        0.165      338.450       11.108      859.944
05/09/2014  07:03:00     -613.665     -242.707      -34.895      274.154      180.792      102.766    75160.229    32685.664    10560.927       27.753        5.920      659.918      115.742        0.031      338.333       10.911      859.941
05/09/2014  07:04:00     -365.726      -39.494       15.376      238.021      181.168      101.389    56653.900    32821.866    10279.743       11.763        4.988      367.852      106.746        0.084      338.397       11.017      859.938
05/09/2014  07:05:00     -326.219      -44.609       11.221      188.374      142.545       94.529    35484.811    20319.015     8935.824        8.662        3.237      329.255      101.703        0.095      338.381       10.991      859.971
05/09/2014  07:06:00     -521.273     -132.381        1.628      387.440      195.008      107.999   150109.965    38028.035    11663.720       24.449        9.990      537.820      119.966        0.050      338.361       10.957      859.949
05/09/2014  07:07:00     -384.032     -204.570        5.050      290.359      209.285      108.344    84308.084    43800.080    11738.458       16.457        6.992      435.120      126.701        0.085      338.391       11.006      859.977
05/09/2014  07:08:00     -320.209     -115.835      -14.787      214.970      162.704       83.241    46212.005    26472.487     6929.044        9.788        3.981      340.516       91.045        0.071      338.429       11.072      860.018
05/09/2014  07:09:00     -297.472     -143.237       -8.025      224.569      144.151       85.658    50431.216    20779.532     7337.326        9.379        3.927      330.161      100.376        0.092      338.464       11.130      860.034
05/09/2014  07:10:00     -384.016      -79.424      -19.921      226.711      170.893       90.083    51397.686    29204.259     8114.985       12.143        4.436      392.143      100.817        0.066      338.414       11.046      860.037
05/09/2014  07:11:00     -259.671      -43.980        0.416      162.361      105.858       77.606    26360.988    11205.918     6022.615        5.647        2.179      263.369       85.032        0.104      338.448       11.104      860.058
05/09/2014  07:12:00     -268.074      -54.722       -7.104      132.395      106.331       72.352    17528.450    11306.339     5234.777        5.448        1.703      273.602       76.091        0.077      338.487       11.168      860.055
05/09/2014  07:13:00     -509.342      -38.430      -21.872      237.393      169.282       95.700    56355.216    28656.512     9158.571       17.776        4.709      510.790      108.598        0.045      338.417       11.051      860.043
05/09/2014  07:14:00     -480.231      -57.270      -24.365      239.869      171.453      101.680    57537.226    29396.203    10338.885       16.586        4.864      483.634      120.513        0.062      338.435       11.080      860.047
05/09/2014  07:15:00     -481.590      -78.582        3.511      235.372      207.698      109.625    55400.132    43138.339    12017.601       17.431        5.528      487.959      118.704        0.059      338.417       11.052      860.074
05/09/2014  07:16:00     -403.350      -98.660        0.535      199.506      165.085       91.382    39802.586    27252.945     8350.650       12.390        3.770      415.241      107.068        0.066      338.462       11.126      860.099
05/09/2014  07:17:00     -251.762      -69.475       -3.491      160.647      146.533       70.387    25807.373    21472.019     4954.315        6.022        2.612      261.172       75.186        0.083      338.531       11.244      860.135
05/09/2014  07:18:00     -376.553      -97.405       -9.621      236.986      166.832      100.332    56162.569    27833.007    10066.499       12.270        4.703      388.947      104.418        0.072      338.466       11.131      860.108
05/09/2014  07:19:00     -250.524     -101.455       19.423      201.765      158.371       81.465    40709.071    25081.433     6636.581        7.292        3.621      270.288      103.789        0.147      338.584       11.330      860.103
05/09/2014  07:20:00     -434.424     -116.535      -18.128      202.161      188.031       96.112    40869.128    35355.746     9237.612       14.403        4.273      449.782       85.717        0.036      338.486       11.167      860.103
05/09/2014  07:21:00     -551.320     -107.596      -23.974      206.203      163.394       88.146    42519.622    26697.585     7769.673       19.653        3.849      561.721       76.754        0.019      338.482       11.161      860.088
05/09/2014  07:22:00     -342.479      -59.505        0.825      178.515      168.291       72.781    31867.710    28321.851     5297.043        9.315        3.274      347.610       73.937        0.045      338.559       11.290      860.077
05/09/2014  07:23:00     -452.805      -11.748      -25.871      278.230      190.547       87.919    77411.811    36308.173     7729.836       16.362        6.072      452.957      108.436        0.057      338.539       11.256      860.060
05/09/2014  07:24:00     -348.616      -90.110      -13.646      212.912      198.438       84.572    45331.706    39377.543     7152.484       11.083        4.593      360.074      102.380        0.081      338.611       11.378      860.080
05/09/2014  07:25:00     -558.663      -90.421      -22.711      237.816      185.921      107.523    56556.534    34566.784    11561.135       21.172        5.134      565.933      125.562        0.049      338.538       11.254      860.063
05/09/2014  07:26:00     -332.662      -47.425       -0.435      260.081      130.480       79.130    67642.081    17024.985     6261.544       10.190        4.546      336.025      105.300        0.098      338.646       11.438      860.101
05/09/2014  07:27:00     -455.761     -115.069      -14.287      263.149      182.791       89.375    69247.614    33412.547     7987.804       16.588        5.532      470.063       85.781        0.033      338.594       11.350      860.111
05/09/2014  07:28:00     -406.998     -174.206        0.778      206.112      157.925       90.985    42482.205    24940.365     8278.207       13.583        3.785      442.713       97.281        0.048      338.604       11.365      860.110
05/09/2014  07:29:00     -348.030      -44.598       -5.719      195.801      130.704       74.627    38338.225    17083.580     5569.230        9.206        3.050      350.876       81.702        0.054      338.600       11.359      860.117
05/09/2014  07:30:00     -288.780       56.487        4.117      199.262      148.366       98.489    39705.406    22012.551     9700.080        7.900        3.571      294.253       95.589        0.106      338.691       11.513      860.121
05/09/2014  07:31:00     -304.660      -43.426       -6.596      148.833      116.357       68.791    22151.401    13538.993     4732.224        6.758        2.021      307.739       71.114        0.053      338.704       11.534      860.130
05/09/2014  07:32:00     -497.548        7.255      -32.884      244.083      155.469       80.469    59576.616    24170.615     6475.294       16.944        4.511      497.601      106.010        0.045      338.655       11.451      860.137
05/09/2014  07:33:00     -494.230     -131.187      -10.371      204.005      137.486       86.173    41618.093    18902.356     7425.855       16.475        3.397      511.345       96.701        0.036      338.556       11.286      860.093
05/09/2014  07:34:00     -248.715     -108.267        0.995      183.178      122.361       66.562    33554.316    14972.285     4430.448        6.326        2.648      271.258       76.216        0.079      338.771       11.647      860.132
05/09/2014  07:35:00     -285.267      -86.510        8.169      220.970      116.005       73.486    48827.764    13457.124     5400.142        7.829        3.384      298.096       78.018        0.068      338.758       11.626      860.154
05/09/2014  07:36:00     -256.758     -120.584       11.634      186.932      197.678       95.973    34943.495    39076.567     9210.760        8.190        4.162      283.664      109.370        0.149      338.703       11.532      860.154
05/09/2014  07:37:00     -406.650      -75.825      -25.760      163.235      134.757       68.115    26645.541    18159.463     4639.625       11.060        2.472      413.659       68.537        0.027      338.685       11.501      860.170
05/09/2014  07:38:00     -483.665      -49.759      -18.365      175.140      135.491       95.573    30673.975    18357.925     9134.152       14.744        2.908      486.218       93.144        0.037      338.633       11.415      860.139
05/09/2014  07:39:00     -451.922      -36.731      -33.124      224.845      132.069       73.688    50555.365    17442.209     5429.864       14.004        3.671      453.413      103.423        0.052      338.668       11.473      860.143
05/09/2014  07:40:00     -382.787      -47.465      -33.384      190.269      116.941       78.782    36202.402    13675.216     6206.532       10.298        2.804      385.719       88.936        0.053      338.752       11.613      860.117
05/09/2014  07:41:00     -401.519      -97.139        8.858      180.504      133.458       85.239    32581.742    17810.935     7265.632       11.418        2.883      413.102       89.236        0.047      338.718       11.555      860.140
05/09/2014  07:42:00     -310.835       59.462        6.944      218.800      140.270       80.802    47873.521    19675.744     6528.903        8.713        3.704      316.472       97.974        0.096      338.815       11.720      860.160
05/09/2014  07:43:00     -444.055     -133.994      -19.449      250.254      187.626      100.511    62627.042    35203.393    10102.492       16.170        5.397      463.831      119.520        0.066      338.674       11.483      860.184
05/09/2014  07:44:00     -334.751     -163.546       -6.437      196.318      181.118       86.137    38540.851    32803.553     7419.663       10.879        3.938      372.566       88.531        0.056      338.773       11.649      860.171
05/09/2014  07:45:00     -132.872      -39.847        7.768      119.056      101.094       60.071    14174.254    10219.979     3608.507        2.365        1.400      138.718       66.264        0.228      338.957       11.960      860.213
05/09/2014  07:46:00     -319.241      -47.358       -3.648      210.245      173.796       71.075    44202.995    30204.906     5051.585        9.180        3.973      322.735       84.374        0.068      338.845       11.770      860.170
05/09/2014  07:47:00     -361.839     -155.482      -21.278      197.507      174.263       91.829    39008.996    30367.711     8432.601       11.667        3.890      393.830       97.198        0.061      338.859       11.794      860.168
05/09/2014  07:48:00     -460.945      -33.270      -25.716      188.397      166.731       95.948    35493.292    27799.348     9206.072       14.335        3.625      462.144      104.303        0.051      338.816       11.721      860.155
05/09/2014  07:49:00     -183.167      -58.930        6.707      150.207      159.269       73.805    22562.099    25366.545     5447.200        4.521        2.669      192.413       73.189        0.145      338.970       11.981      860.185
05/09/2014  07:50:00     -251.850     -100.414       13.485      172.257      162.419       71.993    29672.622    26379.813     5182.963        6.745        3.062      271.129       75.872        0.078      338.976       11.989      860.241
05/09/2014  07:51:00     -493.345     -207.549      -28.481      243.490      202.327       87.661    59287.202    40936.048     7684.486       19.757        5.395      535.225      108.701        0.041      338.778       11.659      860.270
05/09/2014  07:52:00     -169.851     -160.660       10.855      153.757      148.805       78.667    23641.294    22143.060     6188.471        5.337        2.599      233.797       87.625        0.140      338.928       11.912      860.272
05/09/2014  07:53:00     -437.864     -131.865      -11.625      178.749      139.156       72.095    31951.031    19364.254     5197.730       13.287        2.826      457.289       72.101        0.025      338.904       11.868      860.297
05/09/2014  07:54:00     -423.962     -163.848        2.715      284.170      218.204      109.092    80752.597    47613.095    11901.096       17.340        7.013      454.522      132.877        0.085      338.820       11.730      860.284
05/09/2014  07:55:00     -479.512      -42.795      -17.245      275.193      170.238       96.587    75731.351    28981.098     9329.038       17.303        5.702      481.418      129.548        0.072      338.875       11.821      860.302
05/09/2014  07:56:00     -331.441      -67.191        9.923      229.697      142.435       76.361    52760.599    20287.589     5831.008        9.666        3.944      338.183       85.751        0.064      338.865       11.802      860.298
05/09/2014  07:57:00     -168.984     -106.927        8.630      179.252      145.695       71.323    32131.217    21227.119     5086.946        4.924        2.922      199.973       80.670        0.163      339.008       12.046      860.288
05/09/2014  07:58:00     -104.703      -35.461        4.638      131.969       93.815       60.308    17415.778     8801.218     3637.021        2.104        1.493      110.545       70.671        0.409      339.183       12.341      860.296
05/09/2014  07:59:00     -150.182      -71.140       12.011      187.329      121.077       82.671    35092.209    14659.570     6834.421        4.216        2.829      166.180       91.401        0.303      339.157       12.295      860.308
05/09/2014  08:00:00     -425.744      -46.158       -9.028      220.479      195.709       89.731    48610.819    38301.891     8051.587       13.920        4.748      428.239      103.771        0.059      338.935       11.921      860.333
05/09/2014  08:01:00     -254.325      -58.625       10.745      137.035      152.767       71.436    18778.499    23337.826     5103.165        5.772        2.361      260.995       71.048        0.074      339.061       12.134      860.356
05/09/2014  08:02:00     -420.979     -108.814      -16.580      258.121      174.439       93.970    66626.343    30428.892     8830.370       14.759        5.294      434.814      103.373        0.057      338.939       11.929      860.368
05/09/2014  08:03:00     -343.867      -94.749        5.337      209.754      185.465       88.300    43996.800    34397.392     7796.810       10.670        4.310      356.681       94.102        0.070      338.991       12.018      860.380
05/09/2014  08:04:00     -435.448      -74.014      -23.522      233.511      149.865       89.106    54527.205    22459.380     7939.902       14.027        4.246      441.694      116.347        0.069      339.024       12.071      860.371
05/09/2014  08:05:00     -321.027      -78.225       -7.073      179.117      105.146       71.265    32082.958    11055.730     5078.654        7.871        2.411      330.420       75.213        0.052      339.028       12.078      860.393
05/09/2014  08:06:00     -285.504     -101.768        3.789      164.124      112.790       75.442    26936.841    12721.598     5691.420        6.861        2.267      303.099       83.323        0.076      339.047       12.110      860.378
05/09/2014  08:07:00     -231.897      -98.553        2.050      178.452      155.188       89.566    31845.151    24083.292     8022.053        6.371        3.198      251.970       99.322        0.155      339.108       12.212      860.357
05/09/2014  08:08:00     -464.160     -232.790       -9.175      260.767      191.660      105.294    67999.522    36733.451    11086.730       19.275        5.791      519.264      112.016        0.047      338.985       12.006      860.309
05/09/2014  08:09:00     -494.419     -110.184      -17.198      296.683      158.163      101.968    88020.944    25015.505    10397.571       19.014        6.172      506.548      134.148        0.070      339.020       12.065      860.324
05/09/2014  08:10:00     -408.711      -79.451      -29.693      126.909      126.802       63.487    16105.772    16078.685     4030.561       10.522        1.811      416.361       55.273        0.018      339.004       12.037      860.336
05/09/2014  08:11:00     -318.600     -101.725      -14.298      217.709      199.484       95.506    47397.297    39793.707     9121.342       10.417        4.816      334.445      104.822        0.098      339.077       12.158      860.374
05/09/2014  08:12:00     -354.090     -121.178        2.409      211.326      222.372      111.494    44658.561    49449.432    12430.847       12.328        5.327      374.251      122.711        0.108      339.086       12.176      860.353
05/09/2014  08:13:00     -180.887      -88.537       25.133      191.919      185.552       82.681    36832.898    34429.662     6836.202        5.963        3.905      201.393       96.782        0.231      339.318       12.568      860.374
05/09/2014  08:14:00     -215.961     -149.676       16.638      182.655      165.973       83.359    33362.825    27546.895     6948.732        6.858        3.393      262.758       99.183        0.142      339.152       12.288      860.390
05/09/2014  08:15:00     -326.725     -146.117      -24.280      184.791      188.306       79.253    34147.696    35459.213     6281.064       10.227        3.794      357.910       69.148        0.037      339.016       12.059      860.397
05/09/2014  08:16:00     -354.816      -61.175      -31.841      181.557      144.142       68.657    32963.061    20776.896     4713.838        9.454        2.923      360.051       76.803        0.046      339.117       12.227      860.436
05/09/2014  08:17:00     -324.331      -94.923        5.888      268.807      188.082      110.452    72257.212    35374.933    12199.738       11.701        5.992      337.936      112.209        0.110      339.047       12.110      860.414
05/09/2014  08:18:00     -285.218     -152.154       -8.673      196.278      151.715       91.577    38524.979    23017.562     8386.324        8.724        3.496      323.265       90.749        0.079      339.088       12.179      860.446
05/09/2014  08:19:00     -422.090      -33.890       -5.920      220.817      159.828       94.857    48759.983    25544.871     8997.794       13.131        4.165      423.448      101.031        0.057      339.040       12.098      860.459
05/09/2014  08:20:00     -228.072      -45.433        4.075      155.347      121.465       65.839    24132.588    14753.687     4334.790        4.865        2.161      232.554       58.129        0.062      339.105       12.209      860.514
05/09/2014  08:21:00     -182.343     -106.721       -4.517      136.040      126.543       71.987    18506.784    16013.086     5182.118        4.217        1.985      211.278       71.189        0.114      339.238       12.433      860.495
05/09/2014  08:22:00     -312.943      -69.438       -8.098      186.161      132.012       66.442    34656.008    17427.136     4414.572        7.965        2.825      320.554       90.825        0.080      339.204       12.375      860.528
05/09/2014  08:23:00     -473.725     -153.928      -15.286      318.401      253.391      111.627   101379.424    64206.933    12460.477       21.316        8.902      498.105      140.722        0.080      339.087       12.179      860.507
05/09/2014  08:24:00     -352.065     -135.948        8.220      238.234      221.634      114.901    56755.389    49121.457    13202.143       13.077        5.954      377.401      124.498        0.109      339.078       12.162      860.521
05/09/2014  08:25:00     -414.701     -259.456      -23.016      200.453      159.061       91.318    40181.245    25300.433     8338.984       15.681        3.691      489.177       85.811        0.031      339.086       12.177      860.547
05/09/2014  08:26:00     -334.901     -170.475      -17.350      279.894      198.920       90.632    78340.871    39569.274     8214.138       13.380        6.306      375.793      120.834        0.103      339.118       12.230      860.611
05/09/2014  08:27:00     -181.745     -170.244       22.236      230.529      180.831       99.694    53143.447    32699.851     9938.879        7.913        4.789      249.026      116.330        0.218      339.232       12.423      860.562
05/09/2014  08:28:00     -468.077     -203.454      -25.271      268.887      187.796       91.852    72300.308    35267.466     8436.782       18.854        5.800      510.382      119.060        0.054      339.024       12.073      860.585
05/09/2014  08:29:00     -280.469      -97.224        7.602      268.544      159.375      112.516    72115.726    25400.472    12659.829        9.915        5.509      296.843      142.051        0.229      339.163       12.305      860.573
05/09/2014  08:30:00     -438.655      -56.430       -5.240      226.126      159.839       99.584    51133.021    25548.638     9916.944       14.110        4.330      442.269      108.650        0.060      339.063       12.137      860.589
05/09/2014  08:31:00     -292.762     -138.109       20.392      214.917      147.187       95.929    46189.270    21663.895     9202.297        9.111        3.853      323.703      107.122        0.110      339.159       12.298      860.587
05/09/2014  08:32:00     -422.559     -247.536        2.766      196.488      174.081      103.035    38607.424    30304.194    10616.252       15.967        3.976      489.724      104.363        0.045      339.099       12.198      860.551
05/09/2014  08:33:00      -85.174      -78.826       22.900      165.436      110.718       67.367    27369.025    12258.581     4538.283        2.907        2.208      116.052       80.035        0.476      339.428       12.753      860.579
05/09/2014  08:34:00     -466.140     -118.383       -5.301      250.825      145.966       87.144    62913.006    21305.971     7594.092       16.155        4.591      480.937       81.518        0.029      339.149       12.282      860.597
05/09/2014  08:35:00     -623.977      -56.507      -52.362      216.015      176.343       87.488    46662.562    31096.910     7654.190       24.033        4.271      626.531       88.375        0.020      338.926       11.907      860.534
05/09/2014  08:36:00     -423.204     -136.193       -4.389      297.855      145.761       81.215    88717.652    21246.213     6595.830       15.709        5.828      444.579       99.339        0.050      339.152       12.288      860.547
05/09/2014  08:37:00     -453.107     -277.948       -6.925      255.127      194.550      110.291    65089.992    37849.737    12164.067       19.883        5.755      531.564      130.622        0.060      339.020       12.063      860.578
05/09/2014  08:38:00     -446.161     -232.829       -5.491      336.103      221.509      120.436   112965.066    49066.319    14504.777       21.488        8.827      503.258      170.639        0.115      339.051       12.117      860.566
05/09/2014  08:39:00     -371.188     -213.531       -3.074      238.052      177.294       95.359    56668.611    31433.275     9093.255       14.027        4.860      428.224      102.587        0.057      339.146       12.276      860.569
05/09/2014  08:40:00     -220.600      -98.539       13.878      169.292      147.020       70.643    28659.844    21615.009     4990.498        5.690        2.763      241.607       91.152        0.142      339.291       12.521      860.595
05/09/2014  08:41:00     -375.781      -59.988       -7.187      215.113      191.185       77.321    46273.572    36551.640     5978.605       11.681        4.440      380.538       81.274        0.046      339.201       12.369      860.592
05/09/2014  08:42:00     -586.466      -46.458      -34.700      257.461      209.272      101.870    66286.167    43794.969    10377.491       23.386        6.023      588.303      113.511        0.037      339.175       12.325      860.626
05/09/2014  08:43:00     -621.229     -203.265      -21.964      267.011      192.929      107.856    71294.671    37221.740    11632.986       27.391        6.007      653.638      122.505        0.035      338.995       12.024      860.672
05/09/2014  08:44:00     -403.419      -91.482      -20.136      266.472      142.780       83.520    71007.501    20386.160     6975.624       13.493        4.918      413.661      109.487        0.070      339.019       12.063      860.692
05/09/2014  08:45:00     -427.567     -289.788       -5.842      238.665      176.542      103.681    56960.951    31167.080    10749.748       18.283        4.944      516.518      105.461        0.042      338.968       11.978      860.671
05/09/2014  08:46:00     -190.729      -90.353        1.025      218.457      175.378       89.607    47723.662    30757.569     8029.406        6.551        4.326      211.048      102.643        0.237      339.358       12.634      860.660
05/09/2014  08:47:00     -260.152     -201.192       -0.074      197.996      185.706       88.177    39202.594    34486.763     7775.227        9.479        4.073      328.872      108.944        0.110      339.189       12.351      860.637
05/09/2014  08:48:00     -604.023       50.782      -44.285      283.028      188.819      106.459    80104.910    35652.566    11333.561       24.821        6.355      606.154      106.968        0.031      339.019       12.063      860.624
05/09/2014  08:49:00     -487.211     -235.711       -8.548      279.226      216.306      116.691    77967.165    46788.339    13616.875       21.566        6.919      541.234      151.015        0.078      339.096       12.192      860.622
05/09/2014  08:50:00     -737.680      -70.219      -65.584      217.019      205.773      105.423    47097.187    42342.551    11114.054       32.696        5.028      741.014       89.388        0.015      339.014       12.056      860.650
05/09/2014  08:51:00     -424.519      -30.565      -14.333      201.939      160.196       93.980    40779.185    25662.674     8832.205       12.830        3.764      425.618       88.818        0.044      339.184       12.341      860.625
05/09/2014  08:52:00     -795.885     -165.801      -64.724      265.330      254.523      108.942    70399.915    64782.105    11868.345       40.605        7.353      812.972      117.717        0.021      338.988       12.011      860.601
05/09/2014  08:53:00     -598.053      -59.183      -65.093      197.213      154.162       79.351    38893.000    23766.013     6296.591       21.717        3.448      600.974       82.336        0.019      339.046       12.108      860.633
05/09/2014  08:54:00     -516.542      -83.099      -42.972      158.853      161.322       90.758    25234.205    26024.877     8237.092       16.752        2.975      523.184       92.041        0.031      339.174       12.323      860.636
05/09/2014  08:55:00     -526.692     -111.020      -21.109      279.824      169.255       95.381    78301.516    28647.226     9097.623       20.309        5.802      538.266       97.450        0.033      339.287       12.515      860.603
05/09/2014  08:56:00     -358.807      -65.508      -12.439      177.544      179.629       91.836    31521.988    32266.558     8433.900       10.269        3.611      364.738       91.015        0.062      339.391       12.689      860.644
05/09/2014  08:57:00     -351.221        0.342      -13.540      201.919      155.452       92.496    40771.278    24165.285     8555.460        9.850        3.675      351.221      107.935        0.094      339.481       12.843      860.672
05/09/2014  08:58:00     -281.991      -91.633        5.147      225.974      129.383       77.922    51064.072    16740.037     6071.848        8.089        3.694      296.505       97.426        0.108      339.544       12.947      860.696
05/09/2014  08:59:00     -167.021      -26.183        2.668      129.555      116.280       58.973    16784.394    13521.084     3477.766        3.118        1.689      169.061       60.316        0.127      339.618       13.072      860.685
05/09/2014  09:00:00     -335.342     -130.416       12.469      322.871      171.958      111.939   104245.657    29569.523    12530.441       13.795        7.317      359.809      135.298        0.141      339.369       12.653      860.645
05/09/2014  09:01:00     -263.051     -122.655       -1.550      214.388      131.060       71.915    45962.029    17176.847     5171.785        7.626        3.416      290.241       72.396        0.062      339.189       12.350      860.628
05/09/2014  09:02:00     -226.820      -44.237       21.273      152.062      132.292       77.209    23122.790    17501.125     5961.190        5.021        2.329      231.093       70.683        0.094      339.479       12.838      860.585
05/09/2014  09:03:00     -558.998      -57.952      -31.062      238.050      173.912       90.871    56667.775    30245.544     8257.596       20.597        4.759      561.994       89.299        0.025      339.378       12.667      860.558
05/09/2014  09:04:00     -469.692      -35.943      -46.813      179.814      155.542       85.112    32333.140    24193.392     7244.061       14.392        3.189      471.065       78.193        0.028      339.281       12.505      860.574
05/09/2014  09:05:00     -359.947      -49.835      -10.036      196.235      176.001       90.932    38508.309    30976.371     8268.719       10.493        3.888      363.380       80.521        0.049      339.422       12.742      860.562
05/09/2014  09:06:00     -586.163      -71.620      -26.967      251.782      240.739      100.379    63394.253    57955.369    10076.040       24.041        6.571      590.522       99.350        0.028      339.205       12.376      860.549
05/09/2014  09:07:00     -518.503     -191.134      -19.621      279.269      177.195      100.542    77991.223    31398.175    10108.660       21.261        5.975      552.610      123.520        0.050      339.198       12.364      860.519
05/09/2014  09:08:00     -443.590       58.442      -37.132      210.901      172.119       94.655    44479.233    29624.994     8959.579       14.230        4.153      447.423       89.375        0.040      339.365       12.646      860.517
05/09/2014  09:09:00     -473.437     -173.094      -27.913      214.462      192.866      100.458    45993.854    37197.193    10091.900       17.406        4.664      504.087       95.425        0.036      339.414       12.728      860.478
05/09/2014  09:10:00     -511.855      -86.412      -27.281      290.309      321.328      127.375    84279.553   103251.964    16224.408       23.694       10.188      519.098      148.302        0.082      339.367       12.648      860.453
05/09/2014  09:11:00     -629.433      -64.392      -49.695      360.192      237.195      106.774   129738.586    56261.495    11400.785       30.006        9.870      632.719      140.048        0.049      339.352       12.623      860.517
05/09/2014  09:12:00     -549.966     -219.260      -31.885      307.929      236.789       99.853    94820.412    56069.221     9970.699       25.617        8.043      592.062      120.075        0.041      339.181       12.337      860.494
05/09/2014  09:13:00     -553.304     -231.074       -7.224      311.531      233.725      111.254    97051.347    54627.427    12377.528       26.179        8.203      599.617      138.491        0.053      339.214       12.392      860.513
05/09/2014  09:14:00     -622.541     -235.839      -52.594      219.365      207.909       93.504    48121.063    43226.125     8742.975       27.300        5.005      665.715       94.013        0.020      339.166       12.309      860.483
05/09/2014  09:15:00     -320.028      -28.008      -35.114      151.282      111.527       66.313    22886.210    12438.213     4397.384        7.207        1.986      321.251       56.539        0.031      339.506       12.883      860.511
05/09/2014  09:16:00     -643.483      -98.640      -25.450      221.977      207.894      110.086    49273.742    43220.024    12118.937       26.451        5.231      651.000      115.544        0.032      339.326       12.580      860.494
05/09/2014  09:17:00     -558.729      -26.649      -30.363      271.762      159.905       92.680    73854.671    25569.682     8589.555       21.089        5.401      559.365      116.441        0.043      339.408       12.717      860.469
05/09/2014  09:18:00     -715.056      -75.387      -52.973      255.121      265.287      103.462    65086.899    70376.946    10704.382       33.295        7.308      719.019       90.936        0.016      339.457       12.799      860.444
05/09/2014  09:19:00     -387.572     -179.742       -2.621      235.354      234.058      123.469    55391.624    54783.155    15244.507       15.395        6.271      427.223      125.522        0.086      339.511       12.891      860.431
05/09/2014  09:20:00     -475.381     -110.511       -9.443      310.778      194.624      102.405    96582.923    37878.630    10486.726       19.159        7.247      488.057      150.962        0.096      339.579       13.006      860.447
05/09/2014  09:21:00     -445.556     -325.717        3.074      291.828      217.643      145.547    85163.844    47368.326    21184.004       22.914        7.686      551.916      168.795        0.094      339.458       12.802      860.418
05/09/2014  09:22:00     -312.557     -130.821        7.756      251.102      161.296       95.507    63052.012    26016.548     9121.668       10.651        4.910      338.830      100.887        0.089      339.630       13.091      860.428
05/09/2014  09:23:00     -492.526      -90.900      -22.556      261.457      144.380       84.851    68359.565    20845.653     7199.729       17.386        4.820      500.844       78.665        0.025      339.587       13.018      860.425
05/09/2014  09:24:00     -548.626      -81.032      -29.965      249.774      176.056       98.624    62386.864    30995.608     9726.685       20.576        5.155      554.578      121.842        0.048      339.436       12.765      860.395
05/09/2014  09:25:00     -435.109     -119.953      -26.031      266.384      147.505      100.213    70960.536    21757.852    10042.677       15.355        5.138      451.341      124.019        0.076      339.570       12.992      860.388
05/09/2014  09:26:00     -388.579       -5.552      -14.366      258.064      187.682      103.839    66596.901    35224.360    10782.438       13.190        5.630      388.619      124.085        0.102      339.640       13.109      860.350
05/09/2014  09:27:00     -433.921      -90.273      -24.291      281.864      168.515       94.529    79447.326    28397.220     8935.676       15.688        5.839      443.212      125.063        0.080      339.731       13.262      860.342
05/09/2014  09:28:00     -355.217      -87.291        0.613      239.828      168.406      105.069    57517.506    28360.509    11039.545       11.534        4.846      365.785      131.414        0.129      339.898       13.545      860.408
05/09/2014  09:29:00     -507.493     -251.105       -3.837      223.091      179.132      115.465    49769.667    32088.348    13332.084       20.788        4.760      566.218      110.532        0.038      339.583       13.011      860.445
05/09/2014  09:30:00     -277.204      -50.639       13.355      213.023      202.415      101.299    45378.657    40971.887    10261.452        8.808        4.831      281.791       92.471        0.108      339.603       13.046      860.420
05/09/2014  09:31:00     -327.389     -180.321       -8.316      252.592      156.888       73.683    63802.850    24613.877     5429.243       11.679        4.692      373.764       70.030        0.035      339.520       12.907      860.427
05/09/2014  09:32:00     -207.213      -96.390        2.510      186.252      141.562       72.798    34689.732    20039.706     5299.544        5.612        3.001      228.535       82.222        0.129      339.782       13.349      860.415
05/09/2014  09:33:00     -449.534      -44.726      -24.258      204.124      156.578       76.950    41666.670    24516.707     5921.286       13.837        3.605      451.754       81.935        0.033      339.656       13.135      860.400
05/09/2014  09:34:00     -556.932      -28.915      -35.045      228.784      200.792      102.123    52342.292    40317.545    10429.092       20.764        5.154      557.682      114.699        0.042      339.501       12.875      860.379
05/09/2014  09:35:00     -537.401      -66.156      -11.185      246.188      196.620      116.684    60608.534    38659.452    13615.235       20.307        5.644      541.457      128.543        0.056      339.423       12.744      860.347
05/09/2014  09:36:00     -534.472      -61.226      -31.043      250.513      226.958      112.388    62756.940    51509.977    12631.056       20.861        6.345      537.967      112.234        0.044      339.485       12.848      860.320
05/09/2014  09:37:00     -482.838        8.763      -11.602      240.926      192.854      110.862    58045.269    37192.808    12290.445       17.041        5.376      482.918      120.830        0.063      339.607       13.052      860.333
05/09/2014  09:38:00     -586.404     -105.369      -24.516      247.853      182.519       96.970    61431.174    33313.263     9403.266       22.984        5.207      595.796      112.214        0.035      339.555       12.965      860.273
05/09/2014  09:39:00     -751.513     -100.107      -61.374      271.693      232.243      119.485    73816.844    53936.814    14276.763       36.027        7.102      758.152      138.666        0.033      339.475       12.831      860.189
05/09/2014  09:40:00     -313.515      -35.915        2.847      229.818      168.051      104.857    52816.384    28240.971    10995.048        9.580        4.603      315.566       98.659        0.098      339.862       13.484      860.223
05/09/2014  09:41:00     -478.931      -12.244      -29.022      343.471      197.443      115.715   117972.272    38983.735    13390.067       20.032        8.517      479.087      158.601        0.110      339.750       13.295      860.190
05/09/2014  09:42:00     -685.275     -133.429      -27.272      320.095      258.050      124.349   102460.516    66589.880    15462.634       33.629        9.226      698.144      142.231        0.042      339.598       13.039      860.152
05/09/2014  09:43:00     -584.943      -32.219      -38.633      310.088      237.243      115.800    96154.263    56284.130    13409.571       25.524        8.292      585.830      128.204        0.048      339.550       12.957      860.265
05/09/2014  09:44:00     -653.918      -34.224      -59.443      223.799      143.670       80.627    50086.181    20640.941     6500.665       25.476        3.861      654.813       90.207        0.019      339.518       12.904      860.289
05/09/2014  09:45:00     -426.682     -200.261      -17.208      258.898      189.660       88.208    67028.019    35970.743     7780.591       16.660        5.539      471.340       99.683        0.045      339.636       13.102      860.338
05/09/2014  09:46:00     -101.320      -33.018       18.087      131.808      111.274       77.022    17373.438    12381.943     5932.343        2.368        1.784      106.564       81.057        0.579      340.121       13.921      860.321
05/09/2014  09:47:00     -230.540        8.272       -2.317      176.602      127.199       60.345    31188.167    16179.464     3641.489        5.211        2.550      230.688       70.255        0.093      340.104       13.891      860.326
05/09/2014  09:48:00     -574.222      -64.946      -42.095      248.474      219.719       96.594    61739.495    48276.283     9330.476       22.751        5.967      577.883      104.019        0.032      339.831       13.431      860.298
05/09/2014  09:49:00     -546.658      -31.170      -36.583      206.551      218.772       93.909    42663.225    47861.382     8818.918       20.022        4.967      547.546       95.947        0.031      339.763       13.316      860.264
05/09/2014  09:50:00     -504.304     -107.268        2.950      370.581      237.840      124.025   137330.616    56568.059    15382.253       23.752       10.464      515.586      156.134        0.092      339.746       13.288      860.195
05/09/2014  09:51:00     -722.616      -13.929      -52.485      264.557      263.357      118.885    69990.333    69356.878    14133.616       33.927        7.674      722.750      125.172        0.030      339.618       13.072      860.245
05/09/2014  09:52:00     -527.204     -214.906      -23.621      231.132      249.173       96.875    53422.197    62087.289     9384.721       22.477        6.245      569.323       73.174        0.017      339.677       13.172      860.291
05/09/2014  09:53:00     -612.904     -147.623      -23.732      318.471      216.947      106.754   101423.513    47065.911    11396.469       27.891        7.994      630.431      121.842        0.037      339.717       13.240      860.285
05/09/2014  09:54:00     -551.393     -136.956      -27.897      290.143      264.303      110.419    84182.729    69855.965    12192.268       24.487        8.312      568.147      109.482        0.037      339.650       13.126      860.216
05/09/2014  09:55:00     -502.318     -226.859       -8.117      313.092      205.624      121.008    98026.304    42281.202    14643.053       22.937        7.748      551.170      141.758        0.066      339.769       13.326      860.337
05/09/2014  09:56:00     -579.168     -101.275      -26.433      264.231      183.193      115.400    69817.989    33559.809    13317.157       23.152        5.835      587.956      129.672        0.049      339.471       12.824      860.359
05/09/2014  09:57:00     -417.005      -79.367      -37.385      257.988      170.789       91.323    66557.800    29168.871     8339.854       14.281        5.203      424.491      106.778        0.063      339.663       13.147      860.378
05/09/2014  09:58:00     -646.965     -209.133      -47.749      273.922      167.906      103.187    75033.209    28192.531    10647.599       28.920        5.694      679.927      116.825        0.030      339.634       13.099      860.327
05/09/2014  09:59:00     -772.252     -254.410      -17.188      306.998      192.912      119.531    94248.031    37215.189    14287.634       40.354        7.288      813.079      154.654        0.036      339.649       13.124      860.337
05/09/2014  10:00:00     -434.491     -150.811        0.128      241.575      163.315       87.985    58358.546    26671.913     7741.427       15.213        4.639      459.920      107.740        0.055      339.820       13.411      860.447
05/09/2014  10:01:00     -553.276     -134.664      -32.305      244.687      181.180      105.563    59871.580    32826.142    11143.507       21.455        5.192      569.428      113.522        0.040      339.580       13.008      860.437
05/09/2014  10:02:00     -180.884     -112.707       26.426      187.061      137.604       82.941    34991.852    18934.820     6879.274        5.345        3.040      213.124      104.128        0.239      339.952       13.635      860.436
05/09/2014  10:03:00     -472.615     -197.529       -7.505      316.832      218.997      112.729   100382.255    47959.672    12707.896       21.171        8.052      512.233      147.229        0.083      339.780       13.346      860.484
05/09/2014  10:04:00     -491.719     -195.305        3.191      237.400      194.240       98.000    56358.588    37729.001     9603.906       19.180        5.185      529.085      117.043        0.049      339.748       13.291      860.504
05/09/2014  10:05:00     -633.588      -93.099      -27.649      207.893      207.787      101.675    43219.699    43175.232    10337.905       25.378        4.837      640.391       97.385        0.023      339.581       13.009      860.487
05/09/2014  10:06:00     -610.993     -161.798      -17.603      290.792      217.818      110.656    84559.755    47444.511    12244.669       27.200        7.212      632.053      132.572        0.044      339.673       13.163      860.509
05/09/2014  10:07:00     -361.152     -155.179        1.358      215.579      177.205      106.804    46474.245    31401.532    11407.058       12.188        4.464      393.079      123.063        0.098      339.798       13.375      860.536
05/09/2014  10:08:00     -255.285     -128.865        0.256      259.671      162.088      102.175    67429.062    26272.366    10439.714        9.294        5.207      285.966      121.615        0.181      340.019       13.748      860.544
05/09/2014  10:09:00     -292.598       38.616      -16.179      191.660      152.330       92.712    36733.374    23204.411     8595.574        7.794        3.427      295.135       91.159        0.095      340.028       13.764      860.547
05/09/2014  10:10:00     -341.195      -55.682        3.513      203.176      199.342       85.884    41280.401    39737.432     7376.134       10.394        4.420      345.709      107.270        0.096      340.027       13.762      860.561
05/09/2014  10:11:00     -168.389       61.779       -3.763      129.199      127.247       75.591    16692.320    16191.886     5713.952        3.538        1.930      179.364       49.326        0.076      340.159       13.985      860.543
05/09/2014  10:12:00     -645.648       84.355      -63.816      200.718      170.523      105.023    40287.881    29077.959    11029.799       25.421        4.020      651.136       81.650        0.016      339.769       13.327      860.544
05/09/2014  10:13:00     -484.968       -9.774      -46.591      214.832      131.860       72.128    46152.752    17387.003     5202.506       15.309        3.437      485.067       90.331        0.035      339.830       13.429      860.518
05/09/2014  10:14:00     -495.423      -86.049      -42.637      221.961      181.585       82.013    49266.844    32973.194     6726.179       17.180        4.448      502.841       86.385        0.030      339.960       13.647      860.532
05/09/2014  10:15:00     -351.304       23.324      -41.292      215.150      169.813       90.878    46289.362    28836.324     8258.877       10.451        4.169      352.077       92.273        0.069      339.868       13.494      860.530
05/09/2014  10:16:00     -204.846       25.545        4.245      204.323      220.009       92.696    41747.871    48404.067     8592.509        7.067        4.937      206.433       92.166        0.199      340.279       14.187      860.486
05/09/2014  10:17:00     -421.951      -19.454      -24.665      283.051      144.343       87.363    80118.093    20835.004     7632.234       14.379        5.429      422.399      109.835        0.068      340.011       13.735      860.445
05/09/2014  10:18:00     -609.765     -131.871      -38.762      278.290      187.920      127.079    77445.578    35313.967    16148.948       25.978        6.445      623.862      137.997        0.049      339.857       13.475      860.370
05/09/2014  10:19:00     -267.970      -22.845      -18.227      207.430      222.594       90.872    43027.407    49547.871     8257.757        8.673        5.042      268.942       79.486        0.087      340.127       13.930      860.367
05/09/2014  10:20:00     -655.133     -110.587      -42.891      261.540      185.023      111.695    68403.239    34233.438    12475.838       27.917        5.756      664.401      126.074        0.036      339.793       13.366      860.393
05/09/2014  10:21:00     -425.881       73.114      -31.357      225.438      178.086      100.718    50822.383    31714.727    10144.031       14.017        4.634      432.112       97.573        0.051      339.987       13.694      860.444
05/09/2014  10:22:00     -562.395       27.792      -51.244      202.477      170.327       84.522    40997.116    29011.392     7143.949       19.840        3.858      563.081       89.665        0.025      339.905       13.555      860.440
05/09/2014  10:23:00     -541.942     -125.011      -24.821      188.388      240.014       90.291    35490.115    57606.680     8152.413       20.558        5.062      556.173       88.235        0.025      339.795       13.370      860.448
05/09/2014  10:24:00     -376.714     -134.031       -2.145      234.573      157.228       91.578    55024.524    24720.503     8386.472       12.399        4.407      399.848       98.237        0.060      339.894       13.539      860.507
05/09/2014  10:25:00     -228.364      -63.087        4.309      215.318      142.655      103.812    46361.950    20350.431    10776.970        6.680        3.874      236.918      106.084        0.200      340.225       14.097      860.518
05/09/2014  10:26:00     -582.017     -160.961      -52.036      215.084      216.894       89.580    46261.171    47042.816     8024.493       23.432        5.066      603.864       94.239        0.024      339.823       13.417      860.485
05/09/2014  10:27:00     -277.585     -144.727       -8.720      170.081      149.320       84.534    28927.523    22296.472     7145.954        7.821        2.918      313.048       67.377        0.046      340.076       13.845      860.458
05/09/2014  10:28:00     -356.787     -107.188        8.071      250.129      170.797       90.732    62564.303    29171.773     8232.338       11.939        4.998      372.540       92.380        0.061      340.073       13.839      860.452
05/09/2014  10:29:00     -625.898      -93.192      -29.342      316.754      205.640      114.802   100332.942    42287.690    13179.467       27.852        7.790      632.798      134.302        0.045      339.930       13.596      860.428
05/09/2014  10:30:00     -493.617      -91.658      -33.150      263.046      189.693       92.695    69193.387    35983.290     8592.321       18.344        5.688      502.054      123.433        0.060      339.954       13.637      860.463
05/09/2014  10:31:00     -507.967     -235.506        0.541      213.301      189.231       92.346    45497.309    35808.512     8527.692       20.165        4.492      559.906       83.684        0.022      340.029       13.764      860.427
05/09/2014  10:32:00     -572.615     -104.707      -38.250      224.742      186.748       98.744    50508.901    34874.731     9750.413       21.770        4.757      582.109      105.018        0.033      339.956       13.642      860.382
05/09/2014  10:33:00     -697.746      -64.567      -60.339      281.318      215.247      109.031    79139.807    46331.174    11887.864       31.598        6.868      700.727      125.725        0.032      340.108       13.897      860.347
05/09/2014  10:34:00     -430.543     -144.122       -3.601      235.960      168.006       87.351    55677.191    28226.139     7630.162       14.882        4.577      454.024       87.640        0.037      340.203       14.058      860.388
05/09/2014  10:35:00     -422.481       34.682      -44.328      158.269      177.810       73.367    25049.125    31616.334     5382.655       12.184        3.102      423.902       67.270        0.025      340.303       14.227      860.438
05/09/2014  10:36:00     -411.579      -81.823      -22.494      130.763      124.349       72.952    17099.033    15462.708     5322.043       10.723        1.894      419.633       64.188        0.023      340.287       14.201      860.441
05/09/2014  10:37:00     -592.200     -110.065      -36.593      201.780      169.835       95.455    40715.006    28844.074     9111.628       22.140        3.934      602.341       95.851        0.025      340.154       13.976      860.457
05/09/2014  10:38:00     -505.957       -2.211      -37.725      240.251      166.792       85.712    57720.728    27819.502     7346.599       17.514        4.644      505.962       96.869        0.037      340.449       14.475      860.466
05/09/2014  10:39:00     -666.398       75.668      -48.548      305.772      228.917       95.410    93496.711    52403.166     9103.018       30.355        7.750      670.680      113.393        0.029      340.189       14.035      860.482
05/09/2014  10:40:00     -621.306      -21.314      -63.210      276.607      216.121      115.799    76511.385    46708.205    13409.515       26.352        6.831      621.671      120.581        0.038      340.144       13.957      860.527
05/09/2014  10:41:00     -508.458      -85.373      -26.896      231.509      166.124       91.368    53596.574    27597.141     8348.133       17.802        4.477      515.576      102.629        0.040      340.156       13.977      860.519
05/09/2014  10:42:00     -431.183      -28.522      -12.238      215.978      209.400      102.779    46646.693    43848.320    10563.561       14.395        5.053      432.125       97.858        0.051      340.303       14.229      860.518
05/09/2014  10:43:00     -397.586     -123.975       -7.107      227.842      158.717       92.398    51912.061    25191.162     8537.316       12.955        4.282      416.467      106.787        0.066      340.423       14.431      860.503
05/09/2014  10:44:00     -443.265      -47.481      -11.937      304.075      163.286      103.030    92461.707    26662.443    10615.229       16.428        6.487      445.800      128.093        0.083      340.498       14.557      860.488
05/09/2014  10:45:00     -352.314     -198.694       18.764      233.002      224.277      113.544    54289.990    50300.101    12892.182       14.070        5.874      404.480      134.524        0.111      340.563       14.667      860.528
05/09/2014  10:46:00     -396.469     -153.676       -9.783      296.015      191.691      102.823    87624.848    36745.592    10572.621       15.789        6.747      425.210      132.433        0.097      340.611       14.748      860.532
05/09/2014  10:47:00     -454.695      -52.915      -18.073      202.996      155.102      101.610    41207.384    24056.777    10324.511       14.272        3.779      457.764       99.608        0.047      340.304       14.228      860.550
05/09/2014  10:48:00     -540.160       26.068      -28.929      225.746      161.468       83.261    50961.438    26072.042     6932.333       18.861        4.198      540.789       77.050        0.020      340.274       14.179      860.530
05/09/2014  10:49:00     -433.024       -7.701       -4.049      322.632      188.813      104.132   104091.621    35650.450    10843.452       16.906        7.529      433.092      150.530        0.121      340.630       14.782      860.498
05/09/2014  10:50:00     -350.040      -54.338       23.056      242.017      240.553      129.954    58572.210    57865.907    16888.066       12.964        6.666      354.233      135.563        0.146      340.775       15.026      860.518
05/09/2014  10:51:00     -604.970     -214.727      -31.959      355.802      283.924      150.469   126594.950    80612.997    22640.922       32.144       11.492      641.947      151.439        0.056      340.419       14.423      860.497
05/09/2014  10:52:00     -798.563     -170.726      -25.435      342.798      244.001      115.346   117510.772    59536.376    13304.681       42.889        9.518      816.609      145.521        0.032      340.293       14.208      860.508
05/09/2014  10:53:00     -733.197     -196.280      -30.157      249.729      223.002      116.793    62364.429    49729.745    13640.554       35.135        6.287      759.014      115.895        0.023      340.232       14.106      860.536
05/09/2014  10:54:00     -489.943      -74.075      -35.429      243.324      162.450       84.559    59206.481    26389.985     7150.260       16.975        4.637      495.512      111.160        0.050      340.427       14.436      860.546
05/09/2014  10:55:00     -589.780     -176.469      -23.037      252.614      180.350       92.469    63813.982    32526.299     8550.449       24.218        5.245      615.615      104.264        0.029      340.380       14.357      860.548
05/09/2014  10:56:00     -393.357       23.178      -15.191      229.778      161.246       93.487    52797.837    26000.199     8739.812       12.150        4.377      394.039       93.098        0.056      340.740       14.965      860.535
05/09/2014  10:57:00     -731.568     -108.865      -28.345      292.401      198.840      101.506    85498.517    39537.339    10303.567       34.157        6.767      739.624      112.921        0.023      340.335       14.281      860.510
05/09/2014  10:58:00     -556.442     -215.528      -14.362      265.841      207.226      102.256    70671.685    42942.682    10456.309       24.015        6.204      596.724      100.925        0.029      340.426       14.435      860.484
05/09/2014  10:59:00     -562.108     -267.470      -12.729      274.877      228.578      109.492    75557.176    52247.873    11988.603       26.370        6.990      622.499      109.476        0.031      340.531       14.610      860.532
05/09/2014  11:00:00     -524.876     -220.569      -15.768      339.324      244.321      121.598   115140.582    59692.689    14786.047       25.697        9.481      569.338      157.167        0.076      340.417       14.421      860.536
05/09/2014  11:01:00     -674.073     -366.740      -31.390      300.848      211.644      123.996    90509.517    44793.384    15375.125       37.024        7.534      767.380      135.175        0.031      340.038       13.780      860.554
05/09/2014  11:02:00     -592.984     -217.917      -25.047      283.615      243.901      110.556    80437.562    59487.504    12222.732       27.592        7.607      631.758      135.511        0.046      340.204       14.060      860.584
05/09/2014  11:03:00     -521.477     -130.200      -35.189      256.842      200.362      101.452    65967.888    40144.864    10292.570       20.324        5.820      537.485      114.356        0.045      340.366       14.333      860.588
05/09/2014  11:04:00     -562.463     -162.766      -14.541      291.376      278.870      134.385    84899.999    77768.671    18059.366       26.186        9.036      585.541      154.869        0.070      340.299       14.220      860.596
05/09/2014  11:05:00     -428.785     -317.072       -9.121      207.120      214.560      119.519    42898.793    46035.909    14284.834       19.383        5.161      533.283      111.020        0.043      340.176       14.012      860.593
05/09/2014  11:06:00     -518.783     -302.843      -26.424      315.214      205.960      136.994    99360.130    42419.677    18767.253       26.102        8.027      600.708      164.457        0.075      340.302       14.226      860.567
05/09/2014  11:07:00     -379.612     -255.481       -2.253      273.076      262.322      124.049    74570.521    68812.903    15388.080       18.404        7.939      457.576      154.631        0.114      340.297       14.217      860.518
05/09/2014  11:08:00     -552.664     -146.757       -5.712      312.571      265.888      120.869    97700.746    70696.568    14609.350       25.497        9.150      571.817      148.406        0.067      340.330       14.273      860.512
05/09/2014  11:09:00     -555.886     -224.817      -10.784      298.915      293.562      133.907    89350.428    86178.739    17931.132       27.653        9.673      599.626      148.374        0.061      340.353       14.312      860.518
05/09/2014  11:10:00     -521.656     -250.765       -3.675      264.119      224.913      107.359    69758.714    50585.697    11526.037       23.342        6.594      578.799      122.815        0.045      340.471       14.511      860.576
05/09/2014  11:11:00     -401.173     -232.608      -26.461      233.448      163.005      110.479    54497.766    26570.469    12205.686       15.449        4.664      463.731      110.396        0.057      340.550       14.644      860.594
05/09/2014  11:12:00     -578.972     -307.978       -7.520      350.889      241.789      125.799   123123.359    58461.687    15825.348       31.372        9.871      655.789      139.960        0.046      340.204       14.059      860.628
05/09/2014  11:13:00     -321.530     -204.086        0.699      210.307      181.306       93.369    44228.956    32871.706     8717.822       11.541        4.291      380.831       98.122        0.066      340.307       14.235      860.625
05/09/2014  11:14:00     -540.247      -31.545      -25.052      344.798      209.570      110.531   118885.372    43919.410    12217.102       23.422        8.751      541.167      125.101        0.053      340.495       14.553      860.589
05/09/2014  11:15:00     -475.187     -311.010      -12.239      335.399      265.903      127.948   112492.509    70704.554    16370.608       26.108        9.978      567.917      150.169        0.070      340.431       14.443      860.675
05/09/2014  11:16:00     -573.134     -282.271      -18.822      268.414      219.472       96.903    72046.165    48168.146     9390.274       26.903        6.480      638.874       95.909        0.023      340.126       13.928      860.702
05/09/2014  11:17:00     -388.401     -103.703      -20.648      244.222      160.533       99.891    59644.245    25770.748     9978.173       12.870        4.770      402.007      129.620        0.104      340.315       14.248      860.713
05/09/2014  11:18:00     -461.173      -85.471       -4.162      275.704      155.969      102.419    76012.935    24326.184    10489.677       16.539        5.541      469.026      117.057        0.062      340.516       14.587      860.689
05/09/2014  11:19:00     -494.057      -66.020        7.203      242.079      183.809      109.220    58602.130    33785.915    11928.911       17.639        5.216      498.448      116.854        0.055      340.487       14.537      860.684
05/09/2014  11:20:00     -442.017     -246.785      -12.826      270.190      332.795      139.659    73002.735   110752.285    19504.562       22.981       10.163      506.243      168.344        0.111      340.412       14.412      860.660
05/09/2014  11:21:00     -629.647     -256.323      -19.593      255.048      245.167      101.735    65049.426    60106.871    10350.104       29.900        6.775      679.821      102.379        0.023      340.179       14.019      860.626
05/09/2014  11:22:00     -556.299     -328.079        4.094      322.741      264.536      135.789   104161.771    69979.193    18438.671       30.481        9.629      645.836      168.415        0.068      340.409       14.407      860.629
05/09/2014  11:23:00     -506.811     -319.008      -21.943      217.942      145.061      100.613    47498.554    21042.785    10122.879       21.887        3.933      598.852       95.531        0.025      340.359       14.322      860.643
05/09/2014  11:24:00     -525.087     -212.446      -35.508      214.694      149.415       92.679    46093.509    22324.954     8589.311       19.954        3.850      566.436      106.754        0.036      340.401       14.393      860.638
05/09/2014  11:25:00     -526.664     -306.098      -11.100      281.876      209.394      141.329    79454.342    43846.017    19973.783       25.721        7.164      609.156      133.094        0.048      340.460       14.492      860.609
05/09/2014  11:26:00     -483.142     -205.227        3.088      312.633      227.975      125.323    97739.306    51972.525    15705.973       22.045        8.271      524.924      137.419        0.069      340.608       14.742      860.645
05/09/2014  11:27:00     -434.587     -145.874      -10.127      221.358      263.961      105.066    48999.405    69675.263    11038.893       16.995        6.486      458.416       98.095        0.046      340.273       14.175      860.695
05/09/2014  11:28:00     -285.413     -172.902       19.501      215.705      183.296      101.726    46528.453    33597.442    10348.104       10.109        4.524      333.700      102.586        0.095      340.480       14.527      860.682
05/09/2014  11:29:00     -412.946     -244.027      -20.656      254.521      136.686       79.786    64781.176    18682.987     6365.746       16.015        4.491      479.660       99.512        0.043      340.298       14.219      860.651
05/09/2014  11:30:00     -337.924     -106.230       -0.115      235.532      161.439       84.440    55475.191    26062.534     7130.186       10.705        4.433      354.228       90.192        0.065      340.753       14.988      860.623
05/09/2014  11:31:00     -560.995      -65.535       14.865      337.897      234.733      133.542   114174.150    55099.386    17833.364       25.313        9.355      564.810      144.973        0.066      340.551       14.646      860.578
05/09/2014  11:32:00     -573.878     -281.605      -25.833      253.501      175.630       97.842    64262.972    30845.999     9572.979       25.697        5.234      639.247      109.755        0.029      340.189       14.035      860.685
05/09/2014  11:33:00     -351.054     -152.924       10.006      221.225      160.934       90.441    48940.678    25899.671     8179.661       11.486        4.151      382.916       92.981        0.059      340.445       14.467      860.658
05/09/2014  11:34:00     -386.862     -222.933        8.443      239.748      196.580      111.608    57478.898    38643.883    12456.441       15.398        5.429      446.499      135.430        0.092      340.460       14.492      860.627
05/09/2014  11:35:00     -416.965     -288.185      -30.262      236.338      179.828      110.464    55855.765    32338.113    12202.221       17.909        5.020      506.863      117.084        0.053      340.503       14.565      860.632
05/09/2014  11:36:00     -430.861       51.047      -12.532      232.401      181.145       82.163    54010.111    32813.651     6750.742       14.097        4.679      433.874       82.220        0.036      340.623       14.769      860.615
05/09/2014  11:37:00     -302.167     -247.884        5.490      200.795      172.159       97.215    40318.723    29638.689     9450.723       11.608        3.970      390.834      112.840        0.083      340.460       14.492      860.624
05/09/2014  11:38:00     -392.699     -154.373      -10.682      300.984      199.613       96.004    90591.440    39845.517     9216.817       15.888        6.983      421.952      115.743        0.075      340.792       15.054      860.636
05/09/2014  11:39:00     -493.538     -111.661      -15.652      263.937      190.423      113.618    69662.743    36260.959    12908.947       18.754        5.942      506.011      116.454        0.053      340.601       14.731      860.616
05/09/2014  11:40:00     -502.303      -58.661       -4.727      248.040      235.610      103.494    61524.082    55511.987    10711.038       19.173        6.387      505.717      118.653        0.055      340.783       15.038      860.709
05/09/2014  11:41:00     -361.688     -101.637        3.121      167.529      180.720       84.379    28065.927    32659.879     7119.844       10.449        3.392      375.697       87.387        0.054      340.470       14.510      860.721
05/09/2014  11:42:00     -402.250      -98.047      -19.257      246.379      167.257       88.911    60702.562    27974.892     7905.228       13.417        4.829      414.027      116.606        0.079      340.549       14.641      860.704
05/09/2014  11:43:00     -507.852       41.234      -34.467      201.359      160.908       94.757    40545.603    25891.453     8978.811       16.809        3.771      509.523       99.953        0.038      340.670       14.848      860.673
05/09/2014  11:44:00     -543.779     -116.264      -13.350      326.329      214.313      126.522   106490.699    45930.252    16007.721       23.888        8.421      556.069      132.391        0.057      340.698       14.896      860.619
05/09/2014  11:45:00     -672.639     -263.057       -8.746      283.569      253.107      113.648    80411.556    64063.093    12915.762       33.952        7.870      722.248      129.138        0.032      340.495       14.552      860.648
05/09/2014  11:46:00     -497.664     -116.093      -16.149      266.960      223.503      115.473    71267.730    49953.790    13333.932       19.795        6.728      511.026      100.989        0.039      340.502       14.564      860.673
05/09/2014  11:47:00     -519.583     -381.940      -26.556      276.019      181.568      108.120    76186.423    32967.020    11689.966       26.867        6.042      644.860      127.340        0.039      340.472       14.513      860.664
05/09/2014  11:48:00     -445.511     -230.954      -13.875      249.115      171.686      100.053    62058.039    29476.065    10010.668       17.676        5.077      501.817      114.767        0.052      340.721       14.934      860.662
05/09/2014  11:49:00     -498.443     -168.868       -8.319      332.141      201.729      111.922   110317.457    40694.556    12526.622       22.025        8.177      526.272      148.421        0.080      340.716       14.925      860.667
05/09/2014  11:50:00     -457.945      -66.027       -3.506      221.171      195.126      102.860    48916.540    38074.225    10580.270       15.581        4.879      462.681      112.559        0.059      340.659       14.829      860.657
05/09/2014  11:51:00     -405.082     -347.371        2.455      240.901      219.514      121.210    58033.114    48186.210    14691.964       20.281        6.046      533.627      130.937        0.060      340.590       14.713      860.686
05/09/2014  11:52:00     -517.927     -259.187        5.749      316.477      194.335      114.587   100157.692    37765.969    13130.233       24.323        7.553      579.160      134.476        0.054      340.436       14.453      860.666
05/09/2014  11:53:00     -613.791     -399.113      -13.616      255.040      194.776      107.231    65045.485    37937.744    11498.556       32.533        5.724      732.140      121.205        0.027      340.257       14.150      860.700
05/09/2014  11:54:00     -437.219     -239.864       -9.894      235.265      143.307       82.565    55349.715    20536.905     6816.960       16.573        4.135      498.694       82.691        0.027      340.521       14.596      860.690
05/09/2014  11:55:00     -248.996     -455.315      -14.445      168.453      225.266       97.777    28376.463    50744.929     9560.328       17.908        4.434      518.952       96.691        0.035      340.516       14.586      860.650
05/09/2014  11:56:00     -271.228     -142.510       15.189      161.434      161.035       86.449    26060.819    25932.251     7473.464        7.677        2.973      306.388       78.848        0.066      340.908       15.250      860.628
05/09/2014  11:57:00     -368.295     -236.551       -9.721      196.948      166.312       95.960    38788.708    27659.632     9208.403       13.366        3.783      437.719       91.591        0.044      341.029       15.456      860.638
05/09/2014  11:58:00     -489.344     -322.786       -0.541      245.182      217.553      109.375    60114.371    47329.284    11962.890       23.150        5.970      586.216      108.384        0.034      340.527       14.606      860.689
05/09/2014  11:59:00     -297.308     -232.436       -6.061      204.708      129.745       82.480    41905.345    16833.793     6802.870       10.399        3.277      377.384       93.069        0.061      340.704       14.905      860.687
05/09/2014  12:00:00     -488.313     -389.413      -19.736      235.186      178.462      110.907    55312.377    31848.858    12300.435       24.495        4.973      624.573      108.994        0.030      340.592       14.716      860.679
05/09/2014  12:01:00     -360.968     -219.800       -5.217      174.766      152.395       93.062    30543.233    23224.148     8660.448       12.052        3.121      422.623       82.484        0.038      340.651       14.815      860.640
05/09/2014  12:02:00     -231.486     -106.860       -2.751      182.532      143.379       85.648    33317.789    20557.646     7335.515        6.310        3.061      254.960      102.174        0.161      341.041       15.477      860.627
05/09/2014  12:03:00     -308.631     -203.429        7.424      264.050      172.604      106.314    69722.391    29792.076    11302.732       12.373        5.541      369.644      110.755        0.090      340.868       15.184      860.641
05/09/2014  12:04:00     -561.368     -440.591      -28.374      281.628      221.153      126.156    79314.086    48908.830    15915.362       32.707        7.207      713.621      141.252        0.039      340.650       14.814      860.595
05/09/2014  12:05:00     -564.216     -344.832       -5.908      248.104      202.397      100.212    61555.692    40964.620    10042.499       27.490        5.628      661.248      116.497        0.031      340.393       14.380      860.628
05/09/2014  12:06:00     -323.435     -243.520       25.433      228.506      184.752      101.657    52215.074    34133.246    10334.221       13.060        4.834      404.861      110.186        0.074      340.814       15.092      860.613
05/09/2014  12:07:00     -360.557     -247.482        0.929      238.892      167.620       94.180    57069.365    28096.544     8869.845       14.262        4.702      437.320       92.597        0.045      340.549       14.644      860.611
05/09/2014  12:08:00     -128.675     -286.741       -2.887      164.465      189.628       95.540    27048.636    35958.882     9127.953        8.545        3.607      314.290       88.985        0.080      340.675       14.856      860.577
05/09/2014  12:09:00     -500.651     -295.657      -21.710      198.715      146.967       93.295    39487.666    21599.406     8703.934       20.415        3.490      581.433       95.495        0.027      340.615       14.754      860.544
05/09/2014  12:10:00     -336.429     -223.542       -9.999      194.551      189.821       81.695    37850.061    36031.841     6674.089       12.189        4.028      403.925       93.230        0.053      340.694       14.888      860.485
05/09/2014  12:11:00     -523.315     -282.420      -14.968      153.665      163.276       83.232    23612.871    26659.031     6927.539       20.551        2.860      594.659       63.030        0.011      340.768       15.014      860.484
05/09/2014  12:12:00     -437.527      -66.798       -8.831      191.164      164.081       86.271    36543.850    26922.527     7442.741       13.343        3.545      442.596       85.994        0.038      340.826       15.111      860.506
05/09/2014  12:13:00     -353.484     -185.439        1.401      200.959      173.306       86.001    40384.495    30035.114     7396.232       11.856        3.891      399.172       87.103        0.048      340.765       15.009      860.541
05/09/2014  12:14:00     -310.879     -247.363       17.869      239.590      194.230      106.301    57403.161    37725.155    11299.810       13.227        5.321      397.284      127.269        0.103      340.682       14.869      860.518
05/09/2014  12:15:00     -450.138     -222.724       -5.075      325.456      227.842      111.325   105921.365    51912.053    12393.316       21.121        8.511      502.225      130.039        0.067      340.611       14.749      860.519
05/09/2014  12:16:00     -337.557     -294.348       -0.808      217.445      215.883       98.179    47282.211    46605.397     9639.047       15.204        5.176      447.868       97.176        0.047      340.599       14.728      860.556
05/09/2014  12:17:00     -412.567     -252.379       -0.043      174.310      176.511       81.816    30383.803    31156.051     6693.833       15.106        3.412      483.639       65.684        0.018      340.525       14.601      860.531
05/09/2014  12:18:00     -510.269     -328.475       -8.814      236.558      171.041       95.914    55959.513    29255.194     9199.546       23.136        4.721      606.853      107.510        0.031      340.346       14.300      860.515
05/09/2014  12:19:00     -630.120     -414.704      -30.819      303.158      249.364      131.449    91904.618    62182.231    17278.717       37.064        8.568      754.341      152.759        0.041      340.418       14.422      860.468
05/09/2014  12:20:00     -470.977     -171.423       -6.968      273.194      186.311       88.612    74635.201    34711.831     7852.165       18.420        5.860      501.204      113.429        0.051      340.400       14.390      860.489
05/09/2014  12:21:00     -342.176     -275.030        4.536      213.759      145.741       77.781    45693.073    21240.529     6049.856       13.285        3.649      439.006       83.456        0.036      340.294       14.212      860.453
05/09/2014  12:22:00     -434.362     -181.713      -21.592      131.006      187.362       84.415    17162.606    35104.700     7125.950       14.076        2.970      470.839       80.545        0.029      340.269       14.169      860.392
05/09/2014  12:23:00     -273.855      -24.033       -8.443      146.012      112.939       70.546    21319.411    12755.211     4976.807        5.734        1.953      274.908       65.249        0.056      340.678       14.862      860.350
05/09/2014  12:24:00     -149.143     -101.227       16.102      145.295      117.917       62.294    21110.698    13904.330     3880.513        3.581        1.945      180.251       69.235        0.148      340.877       15.200      860.334
05/09/2014  12:25:00     -174.614     -213.191       18.892      139.801      176.205       72.582    19544.281    31048.331     5268.179        6.607        2.793      275.572       62.169        0.051      340.880       15.203      860.304
05/09/2014  12:26:00     -266.257     -223.093       17.726      210.352      216.049       90.220    44248.001    46677.122     8139.665       11.000        4.953      347.366      105.901        0.093      341.047       15.486      860.263
05/09/2014  12:27:00     -309.575      -62.265      -22.657      152.512      125.053       58.952    23259.838    15638.211     3475.284        7.129        2.119      315.775       64.839        0.042      341.093       15.562      860.305
05/09/2014  12:28:00     -294.955     -135.944        9.514      174.532      122.664       81.810    30461.479    15046.573     6692.893        7.888        2.610      324.776       84.475        0.068      341.145       15.653      860.312
05/09/2014  12:29:00     -205.426     -159.021        7.529      179.986      160.762       88.005    32394.976    25844.279     7744.850        6.675        3.299      259.783       95.672        0.136      341.103       15.580      860.339
05/09/2014  12:30:00     -468.017     -324.764      -11.766      220.122      151.923      103.729    48453.700    23080.626    10759.626       20.346        4.115      569.659      115.035        0.041      340.631       14.781      860.278
05/09/2014  12:31:00     -325.611     -247.762        2.989      216.013      150.743       84.284    46661.654    22723.387     7103.860       12.194        3.824      409.156      100.691        0.061      340.868       15.183      860.277
05/09/2014  12:32:00     -295.615     -190.318        4.404      218.553      154.491       88.375    47765.371    23867.605     7810.105       10.152        3.972      351.581      106.129        0.091      340.794       15.058      860.238
05/09/2014  12:33:00     -269.310     -153.371        3.210      153.303      147.152       86.762    23501.797    21653.815     7527.602        7.436        2.634      309.920       87.038        0.079      340.925       15.279      860.216
05/09/2014  12:34:00     -311.252     -272.355       -8.453      180.553      163.883       75.390    32599.564    26857.773     5683.679       11.812        3.257      413.588       81.682        0.039      341.003       15.411      860.188
05/09/2014  12:35:00     -195.707      -12.437       14.716      153.041      131.634       75.411    23421.601    17327.391     5686.806        4.254        2.322      196.102       75.046        0.146      341.211       15.763      860.200
05/09/2014  12:36:00     -198.141     -343.734       -1.495      198.096      224.806      100.739    39242.011    50537.576    10148.294       12.865        4.996      396.753      108.570        0.075      341.091       15.561      860.176
05/09/2014  12:37:00     -426.226     -225.019        0.027      193.025      197.613      102.282    37258.535    39050.825    10461.530       15.952        4.339      481.978      104.615        0.047      341.004       15.412      860.182
05/09/2014  12:38:00     -547.107     -269.934      -19.052      235.794      190.651      105.014    55599.023    36347.763    11027.936       23.774        5.149      610.074      100.901        0.027      340.804       15.074      860.227
05/09/2014  12:39:00     -468.718     -179.132      -12.496      217.421      170.177       92.833    47271.758    28960.101     8618.041       16.838        4.242      501.782       99.807        0.040      340.476       14.521      860.255
05/09/2014  12:40:00     -360.837     -200.962       -0.564      187.339      176.227       93.756    35095.873    31056.079     8790.111       12.275        3.747      413.024       95.759        0.054      340.585       14.704      860.210
05/09/2014  12:41:00     -527.733     -279.694      -13.665      246.757      174.087       90.521    60889.177    30306.385     8193.982       22.813        4.969      597.269      114.659        0.037      340.584       14.703      860.214
05/09/2014  12:42:00     -542.708     -241.127      -21.528      304.893      222.358      114.479    92959.589    49442.985    13105.458       25.429        7.775      593.864      136.799        0.053      340.598       14.725      860.249
05/09/2014  12:43:00     -319.508     -239.054       -6.207      214.720      140.126       97.329    46104.830    19635.214     9472.966       11.723        3.761      399.039      106.686        0.071      340.554       14.651      860.270
05/09/2014  12:44:00     -354.081     -195.758       -1.860      278.948      161.006      100.705    77811.925    25923.075    10141.451       13.876        5.694      404.592      131.263        0.105      340.701       14.899      860.217
05/09/2014  12:45:00     -285.582     -155.196       -2.615      174.147      114.458       66.808    30327.301    13100.694     4463.277        7.676        2.395      325.028       57.436        0.031      340.821       15.103      860.208
05/09/2014  12:46:00     -372.002     -217.800        6.672      247.472      221.179      102.813    61242.454    48920.234    10570.611       15.328        6.037      431.071      139.395        0.105      340.908       15.251      860.210
05/09/2014  12:47:00     -323.717      -93.108       -0.973      154.384      144.668       89.912    23834.490    20928.700     8084.180        8.314        2.642      336.841       89.192        0.070      340.949       15.319      860.223
05/09/2014  12:48:00     -459.567     -135.146      -13.138      281.752      223.098      106.707    79384.337    49772.665    11386.280       18.506        7.027      479.027      131.013        0.075      340.922       15.275      860.240
05/09/2014  12:49:00     -386.430     -123.106       13.071      190.187      158.272       86.162    36171.274    25050.100     7423.851       11.664        3.432      405.565       89.035        0.048      340.836       15.128      860.205
05/09/2014  12:50:00     -334.955      -19.159       -3.253      197.069      140.837       88.713    38836.015    19835.139     7870.011        8.954        3.327      335.502       81.737        0.059      340.993       15.394      860.203
05/09/2014  12:51:00     -226.510     -246.590       14.188      218.410      164.882       87.690    47702.775    27185.962     7689.552        9.743        4.129      334.834       89.843        0.072      341.044       15.481      860.199
05/09/2014  12:52:00     -570.879     -371.104       -8.654      276.254      192.515      116.179    76316.233    37061.909    13497.598       29.526        6.344      680.897      122.940        0.033      340.885       15.211      860.144
05/09/2014  12:53:00     -547.876     -312.530       14.743      353.629      206.220      123.547   125053.184    42526.775    15263.914       29.042        9.142      630.748      153.597        0.059      341.013       15.428      860.086
05/09/2014  12:54:00     -640.079     -360.065      -43.992      263.207      191.462       95.024    69278.149    36657.822     9029.641       32.810        5.748      734.403       75.166        0.010      341.050       15.491      860.176
05/09/2014  12:55:00     -274.356      -72.063       12.794      266.403      157.590      109.165    70970.299    24834.652    11917.002        9.415        5.386      283.662      131.264        0.214      341.254       15.837      860.257
05/09/2014  12:56:00     -370.108     -185.762        8.400      241.804      179.189       99.696    58469.029    32108.580     9939.261       13.602        5.026      414.111      108.090        0.068      340.895       15.229      860.255
05/09/2014  12:57:00     -321.196     -201.539       33.033      263.352      211.706      119.916    69354.110    44819.276    14379.812       13.669        6.428      379.190      139.322        0.135      340.963       15.343      860.247
05/09/2014  12:58:00     -428.532     -219.194      -11.954      245.550      195.259      101.485    60294.761    38126.154    10299.239       17.025        5.436      481.337      118.539        0.061      340.983       15.377      860.212
05/09/2014  12:59:00     -313.303     -144.477        4.275      223.091      161.018       90.294    49769.708    25926.846     8152.983       10.143        4.192      345.011      110.396        0.102      341.197       15.740      860.246
05/09/2014  13:00:00     -205.204     -204.430       27.162      231.381      161.432      104.570    53537.144    26060.432    10934.980        8.757        4.527      289.655      125.722        0.188      340.935       15.295      860.163
05/09/2014  13:01:00      -47.793     -134.383       -4.595      151.239      124.803       58.250    22873.316    15575.708     3393.032        3.109        2.092      142.629       50.307        0.124      341.271       15.866      860.163
05/09/2014  13:02:00     -370.011     -255.820      -21.325      260.610      170.775       91.948    67917.592    29164.098     8454.394       15.415        5.277      449.836      108.546        0.058      341.219       15.776      860.228
05/09/2014  13:03:00     -569.832     -355.032        3.079      285.620      257.633      131.304    81578.951    66374.702    17240.632       30.795        8.260      671.384      133.296        0.039      340.856       15.162      860.263
05/09/2014  13:04:00     -368.112     -220.604        0.401      209.165      169.984       90.852    43750.074    28894.469     8253.999       13.252        4.045      429.153      115.057        0.072      341.011       15.425      860.271
05/09/2014  13:05:00     -398.294     -260.745       21.321      276.259      246.746      112.990    76318.812    60883.529    12766.753       18.849        7.498      476.052      117.972        0.061      341.217       15.774      860.255
05/09/2014  13:06:00     -320.173     -346.392       -0.353      210.949      233.517      113.006    44499.457    54530.317    12770.406       16.713        5.590      471.697      132.893        0.079      341.221       15.781      860.293
05/09/2014  13:07:00     -470.598     -291.605      -10.396      176.514      170.554       92.128    31157.081    29088.556     8487.496       18.765        3.437      553.620       88.890        0.026      340.820       15.100      860.277
05/09/2014  13:08:00     -414.756     -253.891      -36.691      205.963      160.173       83.873    42420.573    25655.335     7034.618       15.646        3.756      486.296      104.200        0.046      340.909       15.251      860.246
05/09/2014  13:09:00     -272.978     -183.662       -8.211      153.842      161.502       86.383    23667.491    26083.022     7461.973        8.275        2.861      329.011       63.424        0.037      341.210       15.762      860.246
05/09/2014  13:10:00     -378.895     -131.396       -7.349      173.405      110.326       72.600    30069.121    12171.718     5270.703       10.419        2.376      401.031       68.424        0.029      341.493       16.240      860.264
05/09/2014  13:11:00     -234.598      -90.689        7.164      145.289      122.066       69.003    21108.915    14900.184     4761.378        5.203        2.039      251.516       76.688        0.093      341.363       16.021      860.260
05/09/2014  13:12:00     -319.657     -232.288      -15.738      219.905      189.379       93.140    48358.340    35864.271     8675.039       12.462        4.645      395.144       98.820        0.063      341.092       15.561      860.332
05/09/2014  13:13:00     -302.007     -340.810       -4.770      181.617      185.335       82.898    32984.840    34348.969     6872.061       14.078        3.710      455.368       81.527        0.032      340.966       15.349      860.274
05/09/2014  13:14:00     -288.708     -222.870       -3.237      196.327      196.188       91.472    38544.334    38489.893     8367.059       10.920        4.270      364.724       82.616        0.051      341.249       15.826      860.207
05/09/2014  13:15:00     -360.791     -157.273      -15.568      230.019      187.844       82.371    52908.542    35285.512     6784.951       12.504        4.749      393.580       96.172        0.060      341.031       15.458      860.181
05/09/2014  13:16:00     -179.033     -227.910       -0.643      161.613      143.916       68.033    26118.824    20711.755     4628.545        6.772        2.573      289.820       71.279        0.060      341.197       15.739      860.165
05/09/2014  13:17:00     -404.397     -301.607      -20.984      183.355      183.953      100.738    33618.929    33838.723    10148.106       16.626        3.880      504.484       88.960        0.031      341.301       15.916      860.135
05/09/2014  13:18:00     -634.638     -341.225      -27.564      333.705      276.584      132.145   111358.884    76498.545    17462.217       36.260       10.266      720.555      150.670        0.044      341.214       15.768      860.141
05/09/2014  13:19:00     -357.238     -280.907       17.611      230.459      184.448      114.916    53111.148    34020.983    13205.660       15.357        5.017      454.453      129.281        0.081      340.982       15.375      860.234
05/09/2014  13:20:00     -275.840     -136.899        4.280      220.176      141.414       75.352    48477.373    19997.930     5677.898        8.449        3.708      307.943       94.597        0.094      341.214       15.769      860.216
05/09/2014  13:21:00     -349.944     -186.965        1.220      173.875      131.957       70.201    30232.428    17412.654     4928.182       10.499        2.629      396.758       66.419        0.028      341.373       16.036      860.218
05/09/2014  13:22:00     -234.184     -207.173       -1.042      179.663      143.516       69.546    32278.809    20596.732     4836.585        7.773        2.886      312.670       75.827        0.059      341.364       16.022      860.231
05/09/2014  13:23:00     -536.777     -223.778      -21.982      254.257      159.056       96.179    64646.552    25298.744     9250.430       21.892        4.960      581.555       90.093        0.024      341.110       15.592      860.183
05/09/2014  13:24:00     -476.063     -160.377      -18.626      271.051      233.098      110.584    73468.707    54334.582    12228.931       19.634        7.002      502.352       96.778        0.037      341.478       16.214      860.247
05/09/2014  13:25:00     -429.823     -214.276       -1.861      190.782      226.410      100.726    36397.866    51261.302    10145.790       16.422        4.890      480.273       99.391        0.043      341.381       16.050      860.263
05/09/2014  13:26:00     -342.431     -253.332       19.175      270.088      273.099      122.227    72947.754    74582.884    14939.471       17.210        8.124      425.953      127.354        0.089      341.271       15.865      860.255
05/09/2014  13:27:00     -369.213     -343.312        1.454      263.530      240.038      120.204    69448.156    57618.110    14449.028       19.782        7.076      504.164      140.059        0.077      341.207       15.757      860.281
05/09/2014  13:28:00     -486.361     -211.592      -28.403      221.125      185.612       98.850    48896.099    34451.902     9771.325       18.760        4.656      530.395      109.829        0.043      341.016       15.432      860.298
05/09/2014  13:29:00     -359.145     -155.208        5.353      243.258      155.523       84.113    59174.323    24187.424     7074.961       12.175        4.522      391.248      108.149        0.076      341.047       15.485      860.283
05/09/2014  13:30:00     -577.604     -312.388      -21.602      303.659      246.839      118.714    92209.032    60929.604    14093.132       29.942        8.362      656.668      151.948        0.054      341.250       15.829      860.246
05/09/2014  13:31:00     -176.696      -97.018        2.161      152.875      128.619       76.471    23370.647    16542.798     5847.766        4.319        2.288      201.578       82.784        0.169      341.595       16.414      860.281
05/09/2014  13:32:00     -285.923     -177.418       15.572      188.574      179.494       78.872    35560.294    32218.192     6220.719        9.372        3.700      336.496       98.904        0.086      341.550       16.337      860.290
05/09/2014  13:33:00     -270.807     -205.979       -1.115      211.021      183.436       68.651    44530.064    33648.664     4712.994        9.931        4.145      340.241       79.905        0.055      341.448       16.164      860.251
05/09/2014  13:34:00     -174.416     -250.091      -12.749      182.145      128.676       79.995    33176.980    16557.621     6399.166        7.462        2.807      304.904       57.361        0.035      341.496       16.245      860.226
05/09/2014  13:35:00     -380.068     -317.928       -3.096      227.792      196.712      111.593    51889.114    38695.496    12453.029       17.427        5.152      495.510      111.343        0.050      341.474       16.209      860.292
05/09/2014  13:36:00     -381.010     -294.148        0.086      180.314      156.579       94.231    32513.297    24516.883     8879.513       14.879        3.295      481.344       92.539        0.037      341.378       16.046      860.318
05/09/2014  13:37:00     -287.799     -201.725       13.041      207.829      155.688       97.875    43193.000    24238.720     9579.572       10.034        3.851      351.456      111.621        0.101      341.431       16.136      860.380
05/09/2014  13:38:00      -95.921     -124.061       27.559      156.450      142.709       87.545    24476.688    20365.781     7664.191        3.892        2.625      156.818       87.853        0.314      341.783       16.734      860.385
05/09/2014  13:39:00     -380.977     -331.288       -4.665      167.106      176.858       95.957    27924.258    31278.729     9207.751       16.165        3.421      504.871       77.667        0.024      341.300       15.913      860.367
05/09/2014  13:40:00     -483.478     -262.749      -29.910      171.897      154.163       92.377    29548.531    23766.082     8533.491       18.275        3.092      550.262       88.158        0.026      341.197       15.740      860.343
05/09/2014  13:41:00     -544.425     -190.143      -15.233      221.724      269.441       94.572    49161.682    72598.712     8943.924       23.172        6.535      576.674      106.257        0.034      341.357       16.011      860.306
05/09/2014  13:42:00     -324.175     -203.354      -12.406      253.249      191.125       96.094    64135.231    36528.848     9234.015       12.823        5.495      382.678      114.624        0.090      341.341       15.984      860.370
05/09/2014  13:43:00     -327.666     -109.080       -1.917      171.350      137.748       75.879    29360.848    18974.493     5757.581        8.667        2.705      345.345       77.400        0.050      341.485       16.227      860.315
05/09/2014  13:44:00     -284.155     -226.174        6.199      201.338      184.869       85.967    40536.953    34176.378     7390.241       10.700        4.105      363.179       85.356        0.055      341.595       16.414      860.322
05/09/2014  13:45:00     -297.460     -233.642       20.949      207.579      172.388       88.596    43089.056    29717.504     7849.229       11.207        4.033      378.247      107.379        0.081      341.409       16.099      860.343
05/09/2014  13:46:00     -288.512     -157.039       30.244      217.427      181.488       97.088    47274.607    32937.971     9426.047        9.921        4.482      328.482      112.155        0.117      341.755       16.685      860.327
05/09/2014  13:47:00     -148.774     -157.256       19.115      158.477      136.750       70.610    25115.043    18700.473     4985.785        4.801        2.440      216.479       73.411        0.115      341.737       16.655      860.324
05/09/2014  13:48:00     -367.568      -95.045       -0.946      160.951      143.673       74.981    25905.277    20641.790     5622.221        9.814        2.608      379.658       73.532        0.038      341.907       16.942      860.339
05/09/2014  13:49:00     -250.169     -220.356       -9.105      201.252      180.137       87.593    40502.357    32449.315     7672.571        9.591        4.031      333.379       84.313        0.064      341.734       16.650      860.351
05/09/2014  13:50:00     -408.823     -310.624      -30.158      179.683      171.350       98.217    32285.938    29360.918     9646.565       16.790        3.565      513.443      107.663        0.044      341.685       16.567      860.368
05/09/2014  13:51:00     -285.440     -223.353      -13.119      188.358      126.325       77.265    35478.844    15957.982     5969.849        9.446        2.870      362.440       67.786        0.035      341.792       16.747      860.377
05/09/2014  13:52:00     -188.953     -141.512       11.900      146.962      129.952       61.234    21597.903    16887.457     3749.631        4.904        2.112      236.069       64.425        0.074      341.406       16.093      860.371
05/09/2014  13:53:00     -242.091     -241.260      -23.716      143.756      147.884       58.712    20665.852    21869.728     3447.087        8.167        2.299      341.782       43.631        0.016      341.219       15.778      860.300
05/09/2014  13:54:00     -261.626     -114.098        8.731      162.060      123.765       66.554    26263.410    15317.804     4429.428        6.377        2.301      285.424       75.270        0.070      341.468       16.199      860.255
05/09/2014  13:55:00     -200.681     -214.503       -8.905      164.503      118.392       80.754    27061.214    14016.661     6521.175        6.697        2.380      293.743       72.329        0.061      341.632       16.476      860.325
05/09/2014  13:56:00     -457.970     -247.659       -7.639      288.151      207.852      108.396    83031.193    43202.447    11749.628       20.453        6.899      520.645      125.716        0.058      341.593       16.410      860.279
05/09/2014  13:57:00     -258.226     -224.860        4.211      202.255      178.628       82.572    40907.244    31907.908     6818.134        9.843        3.982      342.407       62.942        0.034      341.416       16.109      860.282
05/09/2014  13:58:00     -267.779     -170.297       -1.416      161.476      138.276       69.975    26074.455    19120.166     4896.515        7.539        2.505      317.343       69.963        0.049      341.426       16.127      860.281
05/09/2014  13:59:00     -496.682     -382.027       -1.923      266.371      216.272      113.160    70953.601    46773.507    12805.217       26.156        6.527      626.608      133.523        0.045      341.289       15.893      860.313
05/09/2014  14:00:00     -237.751     -370.120        4.609      226.733      160.820       81.647    51407.685    25863.019     6666.191       13.872        4.197      439.902       88.577        0.041      341.358       16.011      860.316
05/09/2014  14:01:00     -134.109     -297.640        6.375      202.577      127.946       81.478    41037.430    16370.214     6638.672        8.532        3.202      326.458       88.250        0.073      341.668       16.538      860.290
05/09/2014  14:02:00      -89.847     -298.657       -7.844      175.162      185.442       90.238    30681.678    34388.835     8142.813        8.526        3.661      311.879       78.076        0.063      341.729       16.642      860.256
05/09/2014  14:03:00     -341.782     -140.962        3.871      316.370      182.560      105.175   100090.006    33328.219    11061.866       14.056        7.224      369.710      138.305        0.140      341.745       16.667      860.232
05/09/2014  14:04:00     -186.712     -230.891       -8.769      212.800      134.010       90.944    45283.946    17958.790     8270.756        7.987        3.576      296.938       73.451        0.061      341.756       16.686      860.264
05/09/2014  14:05:00     -166.570     -113.280       -7.464      128.066      119.803       68.524    16400.956    14352.798     4695.582        3.803        1.772      201.439       52.391        0.068      342.117       17.300      860.237
05/09/2014  14:06:00      -44.969     -288.630        8.309      142.290      185.353       79.535    20246.403    34355.609     6325.883        7.315        3.046      292.112       63.084        0.047      341.969       17.048      860.236
05/09/2014  14:07:00     -111.656     -123.816       -6.165       98.171      206.281       60.841     9637.511    42551.878     3701.669        4.185        2.795      166.726       67.994        0.166      342.191       17.427      860.189
05/09/2014  14:08:00     -102.121     -211.592       10.462      164.761      200.583       80.987    27146.332    40233.697     6558.865        6.461        3.697      234.947       64.458        0.075      342.083       17.241      860.168
05/09/2014  14:09:00     -204.601     -164.489       11.769      187.841      155.501       83.655    35284.071    24180.671     6998.089        6.775        3.323      262.523      100.246        0.146      342.296       17.603      860.210
05/09/2014  14:10:00     -147.595     -156.879       -5.318      144.042      123.858       88.124    20748.194    15340.836     7765.764        4.513        2.193      215.396       49.801        0.053      342.242       17.512      860.214
05/09/2014  14:11:00     -263.305     -266.354       -8.837      317.599      189.259      117.444   100869.208    35818.911    13793.017       14.539        7.524      374.532       99.277        0.070      341.958       17.029      860.164
05/09/2014  14:12:00     -410.977     -278.736      -19.117      208.133      157.234       75.703    43319.166    24722.605     5730.890       16.035        3.689      496.584       80.002        0.026      341.476       16.211      860.249
05/09/2014  14:13:00     -428.746     -186.738        0.066      276.723      191.166      102.698    76575.482    36544.549    10546.908       17.116        6.183      467.648      124.261        0.071      341.491       16.237      860.204
05/09/2014  14:14:00     -376.303     -204.321       14.815      219.147      165.722       86.280    48025.518    27463.787     7444.167       13.324        4.147      428.195       97.513        0.052      341.653       16.513      860.233
05/09/2014  14:15:00     -394.671     -332.355      -10.954      261.769      173.388       89.771    68522.875    30063.367     8058.827       18.647        5.332      515.970       74.694        0.021      341.698       16.588      860.224
05/09/2014  14:16:00     -239.976     -199.805       23.882      196.691      196.735       96.560    38687.220    38704.711     9323.903        9.238        4.336      312.267       90.588        0.084      341.691       16.576      860.216
05/09/2014  14:17:00     -130.026     -235.988       -4.107      171.779      154.041       86.766    29507.914    23728.512     7528.308        6.668        3.038      269.439       77.664        0.083      341.911       16.951      860.194
05/09/2014  14:18:00     -306.847     -176.871        5.497      186.200      138.351       79.559    34670.600    19140.868     6329.672        9.279        3.007      354.173       87.115        0.061      342.064       17.208      860.279
05/09/2014  14:19:00     -334.760     -227.063      -16.537      170.274      130.883      102.433    28993.252    17130.418    10492.548       11.024        2.831      404.502      101.980        0.064      341.894       16.920      860.297
05/09/2014  14:20:00     -387.363      -78.931        2.679      254.578      168.144       89.552    64809.728    28272.257     8019.637       12.867        5.055      395.323      119.558        0.091      341.905       16.940      860.266
05/09/2014  14:21:00     -297.564       -8.040        4.249      182.134      124.494       68.497    33172.932    15498.656     4691.775        7.098        2.668      297.673       75.294        0.064      341.989       17.083      860.264
05/09/2014  14:22:00     -467.844      -85.596      -14.277      195.337      126.663       90.930    38156.686    16043.611     8268.355       14.443        3.123      475.610      101.564        0.046      341.898       16.928      860.296
05/09/2014  14:23:00     -254.656     -126.641        4.338      202.153      160.535      103.289    40865.750    25771.409    10668.540        7.909        3.865      284.407       97.564        0.118      342.006       17.110      860.358
05/09/2014  14:24:00     -237.433     -468.894      -23.918      174.344      228.457       94.038    30395.964    52192.657     8843.062       18.410        4.572      525.581       70.549        0.018      341.555       16.346      860.353
05/09/2014  14:25:00     -247.800      -51.523      -22.843      181.163      130.020       70.448    32819.964    16905.072     4962.928        5.962        2.734      253.100       74.313        0.086      341.554       16.344      860.326
05/09/2014  14:26:00     -314.042     -213.671        0.703      244.624      152.698       83.103    59840.674    23316.620     6906.035       11.715        4.503      379.839       87.141        0.053      341.849       16.845      860.302
05/09/2014  14:27:00     -248.524     -157.264       23.271      199.622      114.818       82.014    39848.780    13183.061     6726.330        7.339        2.988      294.102       84.473        0.082      342.129       17.319      860.300
05/09/2014  14:28:00     -364.564     -247.596        2.267      239.791      170.652       96.245    57499.517    29121.957     9263.102       14.503        4.794      440.693      112.932        0.066      341.944       17.007      860.333
05/09/2014  14:29:00     -440.270     -274.809       -3.316      210.460      166.179       95.247    44293.336    27615.392     9071.897       17.516        4.049      518.997      106.818        0.042      341.769       16.710      860.325
05/09/2014  14:30:00     -311.913     -141.681       -5.965      160.235      136.120       77.641    25675.309    18528.750     6028.156        8.381        2.512      342.583       78.195        0.052      341.889       16.912      860.306
05/09/2014  14:31:00     -302.186     -211.398       -1.677      210.012      145.044       79.788    44104.914    21037.806     6366.069       10.374        3.575      368.790       93.214        0.064      341.645       16.500      860.290
05/09/2014  14:32:00     -400.011     -133.980       -1.695      243.631      158.834       90.026    59355.868    25228.294     8104.701       13.531        4.634      421.853      106.770        0.064      342.032       17.155      860.243
05/09/2014  14:33:00     -350.541     -329.177        2.698      228.728      302.074      101.683    52316.393    91248.553    10339.337       19.254        7.695      480.870      119.258        0.062      341.905       16.940      860.275
05/09/2014  14:34:00     -233.961     -196.014      -29.661      136.998      186.959       74.264    18768.346    34953.653     5515.130        7.663        2.962      305.220       65.968        0.047      341.976       17.060      860.297
05/09/2014  14:35:00     -236.535      -78.651        8.942      162.790      120.673       62.282    26500.694    14561.927     3879.050        5.357        2.247      249.268       59.826        0.058      342.653       18.212      860.338
05/09/2014  14:36:00     -329.376     -107.789        0.389      206.382      184.615       90.864    42593.448    34082.603     8256.191       10.250        4.247      346.565      103.818        0.090      342.001       17.102      860.351
05/09/2014  14:37:00     -447.363     -147.266      -11.990      212.216      111.437       86.605    45035.603    12418.239     7500.408       14.345        3.248      470.979       99.259        0.044      341.777       16.723      860.358
05/09/2014  14:38:00      -77.814      -55.781       21.853      166.703       92.240       50.442    27789.884     8508.209     2544.434        2.424        1.942       95.742       69.758        0.531      342.578       18.085      860.355
05/09/2014  14:39:00      -48.571     -236.541       20.731      104.801      126.030       66.804    10983.236    15883.542     4462.794        4.503        1.566      241.476       51.133        0.045      342.095       17.263      860.332
05/09/2014  14:40:00      -97.985     -231.248       13.953      172.581      169.132       75.930    29784.053    28605.729     5765.305        6.370        3.208      251.151       50.991        0.041      342.078       17.233      860.302
05/09/2014  14:41:00     -251.360     -128.568        7.054      167.813      136.598       76.178    28161.270    18658.930     5803.074        6.618        2.631      282.332       62.899        0.050      342.174       17.397      860.246
05/09/2014  14:42:00     -421.373     -399.513      -16.582      279.670      194.093       99.531    78215.036    37672.226     9906.395       23.159        6.290      580.660      119.941        0.043      342.091       17.254      860.223
05/09/2014  14:43:00     -345.892     -369.567      -10.869      260.626      215.280       87.485    67925.716    46345.657     7653.650       18.911        6.096      506.183      102.405        0.041      341.741       16.661      860.212
05/09/2014  14:44:00     -296.643     -163.210       -1.326      158.980      166.751       81.125    25274.562    27806.000     6581.283        8.714        2.983      338.577       68.719        0.041      342.080       17.236      860.198
05/09/2014  14:45:00     -172.210     -115.849        6.693      142.769      182.128       85.611    20383.124    33170.701     7329.227        5.199        3.044      207.551       72.838        0.123      342.260       17.543      860.134
05/09/2014  14:46:00     -305.506     -211.378       19.603      251.294      189.999      103.321    63148.506    36099.451    10675.137       12.414        5.496      371.503      115.102        0.096      342.225       17.484      860.168
05/09/2014  14:47:00     -466.546     -166.482      -11.955      277.712      196.889      104.095    77124.146    38765.213    10835.799       18.610        6.336      495.360      124.760        0.063      341.547       16.331      860.134
05/09/2014  14:48:00     -408.323      -34.453       -0.175      291.494      215.397      115.511    84968.475    46395.924    13342.852       15.628        7.235      409.774      144.602        0.125      341.820       16.796      860.072
05/09/2014  14:49:00     -444.276     -118.162       -7.927      255.880      171.637       94.396    65474.535    29459.248     8910.608       15.760        5.192      459.721       98.087        0.046      342.038       17.165      860.091
05/09/2014  14:50:00     -396.877     -245.372       -3.883      221.120      181.341      103.975    48894.134    32884.454    10810.821       15.514        4.629      466.603      115.638        0.061      341.912       16.952      860.114
05/09/2014  14:51:00     -464.319     -226.456      -16.376      228.103      212.013       92.267    52030.854    44949.467     8513.240       18.630        5.275      516.599      101.971        0.039      341.532       16.307      860.125
05/09/2014  14:52:00     -384.526     -247.377       -6.308      168.632      149.941       83.630    28436.642    22482.164     6993.985       13.349        2.896      457.226       70.681        0.024      341.632       16.475      860.113
05/09/2014  14:53:00     -372.110     -164.018      -13.613      147.665      211.596       89.437    21804.814    44772.723     7998.999       12.005        3.729      406.654       77.415        0.036      341.920       16.964      860.086
05/09/2014  14:54:00     -430.910      -37.915      -14.676      251.358      153.663       82.316    63180.714    23612.279     6775.898       14.043        4.678      432.575      100.863        0.054      342.075       17.228      860.162
05/09/2014  14:55:00     -276.635     -142.354        2.982      218.096      176.443       95.608    47565.873    31132.112     9140.794        9.230        4.392      311.114      103.215        0.110      341.880       16.897      860.179
05/09/2014  14:56:00     -212.627      -69.737        7.627      225.303      137.104       92.869    50761.460    18797.453     8624.561        6.414        3.909      223.771      122.018        0.297      341.987       17.079      860.181
05/09/2014  14:57:00     -236.368       21.481      -11.779      180.799       91.367       67.314    32688.319     8347.926     4531.224        5.101        2.278      237.342       80.309        0.114      342.098       17.269      860.159
05/09/2014  14:58:00     -116.598      -89.912       42.790      132.997      109.781       83.674    17688.099    12051.888     7001.318        3.012        1.837      147.239       90.011        0.374      342.150       17.356      860.091
05/09/2014  14:59:00     -182.072      -55.674      -14.359       72.063       74.330       33.028     5193.147     5524.881     1090.860        2.413        0.590      190.394       30.365        0.025      342.197       17.437      860.126
05/09/2014  15:00:00     -409.345       57.338      -39.899      130.490      131.843       60.260    17027.643    17382.564     3631.250       10.523        1.902      413.341       54.183        0.017      341.915       16.956      860.091
05/09/2014  15:01:00     -388.576      -51.728      -20.470      156.371      127.078       59.610    24451.926    16148.882     3553.409        9.911        2.208      392.003       67.777        0.030      342.170       17.390      860.095
05/09/2014  15:02:00     -239.355      -73.814        4.889      154.050       94.539       59.563    23731.531     8937.589     3547.784        4.948        1.811      250.478       62.898        0.063      342.566       18.064      860.102
05/09/2014  15:03:00     -221.841     -265.624      -17.271      158.253      101.776       64.127    25044.118    10358.397     4112.323        7.978        1.976      346.078       44.504        0.017      341.930       16.980      860.128
05/09/2014  15:04:00     -423.432     -340.399      -10.603      293.485      165.156       83.372    86133.401    27276.626     6950.843       20.780        6.018      543.292       77.996        0.021      341.977       17.060      860.114
05/09/2014  15:05:00     -567.173     -412.498      -12.919      256.727      215.501      121.564    65908.693    46440.804    14777.711       30.954        6.356      701.313      112.051        0.026      341.698       16.588      860.127
05/09/2014  15:06:00     -403.691     -147.393       -5.537      225.293      156.215       83.917    50757.158    24403.136     7041.986       13.345        4.110      429.758       92.999        0.047      341.861       16.865      860.200
05/09/2014  15:07:00     -404.425      -79.939        3.275      313.230      162.331       94.485    98113.091    26351.297     8927.416       15.165        6.670      412.250      129.771        0.099      342.117       17.300      860.264
05/09/2014  15:08:00     -466.251     -130.570      -42.159      136.889      136.822       68.156    18738.497    18720.137     4645.252       13.915        2.105      484.188       70.938        0.021      341.501       16.254      860.253
05/09/2014  15:09:00     -277.451       27.625      -26.552      109.382      142.408       55.066    11964.448    20280.151     3032.273        5.685        1.764      278.822       49.341        0.031      341.646       16.499      860.204
05/09/2014  15:10:00      -45.592      108.448       -4.790       85.577      142.381       58.914     7323.481    20272.247     3470.891        2.246        1.553      117.642       55.497        0.223      341.893       16.920      860.136
05/09/2014  15:11:00      -82.366       57.992       -3.790       69.207      105.570       40.791     4789.605    11145.128     1663.911        1.388        0.880      100.733       38.890        0.149      342.152       17.361      860.086
05/09/2014  15:12:00      -73.927      -73.687       -6.338       82.953       49.567       39.674     6881.150     2456.922     1573.990        1.092        0.546      104.379       28.465        0.074      342.471       17.904      860.093
05/09/2014  15:13:00      -45.387      -27.991       19.437       81.484       88.706       38.603     6639.687     7868.829     1490.202        0.961        0.800       53.324       38.868        0.531      342.688       18.272      860.095
05/09/2014  15:14:00     -149.283     -146.825       13.996      173.319      130.324       64.944    30039.321    16984.229     4217.782        4.763        2.562      209.388       80.870        0.149      342.264       17.550      860.082
05/09/2014  15:15:00      -42.583      -77.775      -17.673      129.386      137.365       65.102    16740.638    18869.115     4238.319        2.400        1.992       88.669       57.323        0.418      342.493       17.939      860.020
05/09/2014  15:16:00     -315.536     -125.311      -21.641      154.185      158.797       62.339    23772.997    25216.339     3886.128        8.429        2.644      339.508       58.502        0.030      342.536       18.010      860.075
05/09/2014  15:17:00     -239.262     -118.388        1.482      138.867      171.407       58.818    19284.012    29380.333     3459.594        6.168        2.606      266.949       79.159        0.088      342.094       17.260      860.093
05/09/2014  15:18:00     -278.648     -201.253       -7.089      181.277      127.118       83.188    32861.358    16158.901     6920.302        8.706        2.797      343.726       96.961        0.080      341.744       16.665      860.116
05/09/2014  15:19:00     -192.003     -199.369       14.253      185.536      173.001       74.735    34423.526    29929.248     5585.310        7.336        3.497      276.791       91.075        0.108      341.740       16.660      860.091
05/09/2014  15:20:00     -204.639     -155.454        2.022      131.162      116.545       58.808    17203.465    13582.684     3458.338        5.014        1.712      256.988       51.798        0.041      341.577       16.383      860.108
05/09/2014  15:21:00     -145.840     -107.322      -13.041       95.326       60.153       30.899     9087.040     3618.379      954.723        2.331        0.683      181.073       30.152        0.028      341.728       16.642      860.082
05/09/2014  15:22:00      -96.725     -101.531       14.465      113.338      105.944       48.619    12845.421    11224.226     2363.775        2.315        1.322      140.229       47.948        0.117      342.308       17.626      860.059
05/09/2014  15:23:00     -217.638      -76.013        1.162      130.544      115.526       58.279    17041.863    13346.215     3396.390        4.346        1.689      230.531       58.623        0.065      342.258       17.538      860.048
05/09/2014  15:24:00     -130.123     -144.488        0.298      178.809       95.946       58.042    31972.815     9205.730     3368.863        4.117        2.227      194.445       61.558        0.100      342.416       17.809      860.025
05/09/2014  15:25:00     -295.108     -252.564       -7.707      236.017      206.492       83.559    55704.076    42638.769     6982.186       12.811        5.266      388.429       83.421        0.046      341.755       16.685      859.971
05/09/2014  15:26:00     -327.472     -213.249       14.533      247.663      224.511      125.168    61337.095    50405.294    15667.121       14.014        6.370      390.785      122.855        0.099      341.902       16.936      859.939
05/09/2014  15:27:00     -544.306     -395.714       10.293      299.229      261.395      132.194    89537.923    68327.207    17475.195       31.412        8.767      672.948      140.793        0.044      341.615       16.448      859.963
05/09/2014  15:28:00     -451.085     -357.486      -17.561      228.234      184.169       95.609    52090.649    33918.293     9141.119       21.335        4.758      575.564       95.052        0.027      341.592       16.409      860.020
05/09/2014  15:29:00     -329.474     -284.630      -10.214      201.989      196.863       78.576    40799.389    38755.195     6174.264       13.768        4.286      435.393       99.695        0.052      341.724       16.632      860.027
05/09/2014  15:30:00     -259.289     -137.408       -2.962      210.495      127.235       65.980    44308.258    16188.796     4353.373        7.547        3.243      293.448       66.701        0.052      341.894       16.920      860.010
05/09/2014  15:31:00     -154.198     -165.267       13.539      139.276      181.551       71.467    19397.835    32960.937     5107.595        5.436        2.873      226.031       78.806        0.122      342.017       17.129      860.017
05/09/2014  15:32:00      -59.104      -17.498       12.843       80.185       70.712       48.479     6429.572     5000.191     2350.231        0.887        0.689       61.640       48.953        0.631      342.525       17.995      860.006
05/09/2014  15:33:00     -124.986       20.267      -33.758      103.821       91.258       40.344    10778.736     8327.992     1627.650        1.895        1.037      126.619       40.451        0.102      342.310       17.630      859.949
05/09/2014  15:34:00     -177.447      -32.992        0.591       90.039       82.208       40.318     8106.997     6758.098     1625.527        2.453        0.825      180.488       43.175        0.057      342.398       17.778      859.961
05/09/2014  15:35:00     -271.152     -159.533        3.728      252.471      136.379       84.420    63741.557    18599.276     7126.801        9.421        4.473      314.602      100.583        0.102      342.132       17.325      859.977
05/09/2014  15:36:00     -372.491     -352.508       -2.507      258.539      244.601      107.849    66842.647    59829.763    11631.407       20.063        6.915      512.847      130.198        0.064      341.669       16.539      859.913
05/09/2014  15:37:00     -504.348     -364.722       -7.845      267.009      184.121       99.228    71293.605    33900.683     9846.283       25.122        5.752      622.406      116.882        0.035      341.724       16.632      859.873
05/09/2014  15:38:00     -409.797     -302.020       -6.380      211.957      185.958      110.600    44925.565    34580.282    12232.330       17.545        4.587      509.067      107.322        0.044      341.692       16.579      859.916
05/09/2014  15:39:00     -377.539      -81.329      -24.132      229.120      129.115       81.376    52496.019    16670.767     6621.992       11.275        3.789      386.200      100.088        0.067      341.930       16.982      859.931
05/09/2014  15:40:00     -336.573     -114.357      -12.225      183.008      144.767       70.015    33491.933    20957.616     4902.036        9.292        2.968      355.470       39.527        0.012      341.793       16.748      859.935
05/09/2014  15:41:00     -105.222      -33.160       21.822      132.077      148.560       75.556    17444.274    22070.159     5708.678        2.893        2.261      110.323       60.402        0.300      341.826       16.807      859.923
05/09/2014  15:42:00     -281.101     -134.398       -7.364      234.585      154.533       75.067    55030.269    23880.571     5634.999        9.082        4.227      311.578       82.139        0.069      341.845       16.838      859.884
05/09/2014  15:43:00     -297.781     -247.047        5.002      169.775      141.613       76.758    28823.471    20054.287     5891.802       10.224        2.738      386.919       78.939        0.042      341.622       16.460      859.871
05/09/2014  15:44:00     -216.401     -129.621       -1.293      136.524      135.232       72.823    18638.711    18287.719     5303.183        5.292        2.111      252.251       69.003        0.075      341.950       17.016      859.897
05/09/2014  15:45:00     -259.436      -97.658       -4.776      155.349      128.484       59.450    24133.392    16508.092     3534.296        6.051        2.209      277.208       66.852        0.058      342.115       17.297      859.875
05/09/2014  15:46:00     -251.118     -112.183        2.532      182.605      122.640       63.182    33344.490    15040.502     3991.972        6.400        2.619      275.037       65.057        0.056      342.318       17.641      859.902
05/09/2014  15:47:00     -311.375     -232.645        0.717      209.277      177.070      104.762    43796.917    31353.666    10974.974       11.858        4.306      388.687      119.672        0.095      342.063       17.208      859.904
05/09/2014  15:48:00     -369.211     -262.210        0.977      189.156      122.123       88.142    35779.863    14913.958     7768.955       13.176        2.923      452.848       97.385        0.046      342.128       17.318      859.851
05/09/2014  15:49:00     -293.158     -141.230       -0.429      120.210      114.315       69.722    14450.546    13068.004     4861.162        6.913        1.619      325.404       72.204        0.049      342.164       17.380      859.855
05/09/2014  15:50:00     -229.844      -57.566        9.205      208.298      129.404       60.588    43388.248    16745.330     3670.889        6.000        3.190      236.943       83.359        0.124      342.367       17.724      859.861
05/09/2014  15:51:00     -288.040     -296.515       -0.021      229.743      143.395       75.670    52781.728    20562.000     5725.883       12.496        3.953      413.386       85.131        0.042      341.933       16.986      859.843
05/09/2014  15:52:00     -176.654     -180.388       13.045      162.126      109.572       73.925    26284.794    12005.928     5464.894        5.383        2.188      252.481       75.370        0.089      341.923       16.969      859.800
05/09/2014  15:53:00     -242.405     -286.101        1.079      147.665      127.363       78.377    21804.919    16221.237     6142.911        9.238        2.208      374.985       83.407        0.049      342.066       17.213      859.806
05/09/2014  15:54:00     -106.049     -239.447       15.719      171.435      254.778       96.626    29390.068    64911.729     9336.580        8.621        5.182      261.880       77.341        0.087      342.195       17.432      859.800
05/09/2014  15:55:00     -251.764     -239.018       13.781      173.075      231.263       96.580    29954.873    53482.654     9327.733       10.672        4.638      347.152       78.527        0.051      342.099       17.269      859.760
05/09/2014  15:56:00     -449.836     -446.808        3.935      260.409      292.094      124.795    67813.061    85319.133    15573.853       28.532        8.435      634.026      135.484        0.046      341.769       16.709      859.806
05/09/2014  15:57:00     -513.273     -119.490       -5.957      238.178      210.183       88.051    56728.756    44176.790     7752.992       19.319        5.433      526.998       94.829        0.032      341.713       16.614      859.749
05/09/2014  15:58:00     -425.136     -217.710      -10.923      225.160      212.654       98.671    50696.821    45221.533     9735.983       16.693        5.283      477.638      100.683        0.044      341.794       16.753      859.698
05/09/2014  15:59:00     -244.584     -148.417       36.558      231.145      133.285       85.527    53428.009    17764.831     7314.809        8.083        3.925      286.093      109.408        0.146      342.128       17.318      859.676
05/09/2014  16:00:00     -160.541     -186.220        9.345      145.270      128.259       76.611    21103.511    16450.362     5869.173        5.197        2.171      245.869       80.149        0.106      342.366       17.721      859.707
05/09/2014  16:01:00     -284.160      -57.473        6.136      184.039      109.867       68.265    33870.308    12070.747     4660.050        6.733        2.530      289.914       89.436        0.095      342.323       17.649      859.718
05/09/2014  16:02:00     -115.110      -72.238       35.540      142.432       85.833       69.227    20286.785     7367.283     4792.444        2.608        1.622      135.899       79.913        0.346      342.458       17.880      859.740
05/09/2014  16:03:00     -133.723      -93.961       11.619      173.851      160.595       75.224    30224.114    25790.632     5658.632        4.425        3.084      163.434       74.464        0.208      342.368       17.726      859.741
05/09/2014  16:04:00     -468.234     -225.798      -19.080      182.029      169.475       87.100    33134.595    28721.610     7586.482       17.000        3.472      519.835       87.334        0.028      341.766       16.705      859.716
05/09/2014  16:05:00     -419.882      -24.125      -29.912      171.285      175.114       85.203    29338.472    30664.791     7259.495       12.251        3.363      420.574       80.609        0.037      342.028       17.149      859.803
05/09/2014  16:06:00     -406.686      -56.010      -24.341      245.115      142.421       83.462    60081.464    20283.740     6965.874       12.821        4.367      410.525      119.414        0.085      341.800       16.762      859.822
05/09/2014  16:07:00     -220.897     -137.059      -16.995      123.363      114.071       58.716    15218.355    13012.241     3447.515        4.977        1.584      259.963       51.029        0.039      341.828       16.810      859.803
05/09/2014  16:08:00     -314.480      -12.669        8.422      224.112      227.407      105.407    50226.152    51714.042    11110.534       10.607        5.653      314.735      116.702        0.137      341.871       16.883      859.752
05/09/2014  16:09:00     -239.847      -69.457        7.377      243.989      195.616       95.942    59530.752    38265.672     9204.831        8.468        5.350      249.702      113.750        0.208      342.153       17.362      859.700
05/09/2014  16:10:00     -476.787     -124.549       -5.207      232.219      187.652      102.877    53925.445    35213.252    10583.656       17.127        4.986      492.786      107.168        0.047      341.779       16.726      859.733
05/09/2014  16:11:00     -236.023      -45.720        3.574      184.278      148.519       78.711    33958.517    22057.858     6195.354        6.000        3.111      240.411       95.534        0.158      342.043       17.173      859.773
05/09/2014  16:12:00     -248.107     -107.636       24.590      234.516      170.609       97.344    54997.767    29107.276     9475.787        8.365        4.679      270.449      124.492        0.212      341.900       16.933      859.729
05/09/2014  16:13:00     -421.414     -117.149        3.909      202.911      179.270       89.151    41173.002    32137.832     7947.927       13.628        4.063      437.394       80.468        0.034      341.778       16.723      859.783
05/09/2014  16:14:00     -210.704      -78.671       20.648      191.156      166.401       94.457    36540.657    27689.134     8922.169        6.207        3.658      224.912       98.369        0.191      342.048       17.183      859.729
05/09/2014  16:15:00     -304.993     -219.530       -4.572      249.494      185.294       97.213    62247.170    34334.001     9450.293       12.361        5.302      375.784      122.537        0.106      341.781       16.731      859.762
05/09/2014  16:16:00     -153.593       18.908        5.844      111.438       80.214       55.585    12418.350     6434.238     3089.734        2.296        1.097      154.752       56.173        0.132      342.072       17.224      859.795
05/09/2014  16:17:00     -577.762       83.041      -61.836      267.246      145.750       85.879    71420.276    21243.127     7375.249       22.226        5.002      583.699      103.583        0.031      341.696       16.584      859.795
05/09/2014  16:18:00     -472.987      -29.614      -19.742      224.404      183.876       84.891    50357.059    33810.522     7206.493       15.816        4.569      473.914      101.418        0.046      341.848       16.841      859.805
05/09/2014  16:19:00     -459.304     -174.040       -5.663      220.257      157.458       84.802    48513.019    24792.909     7191.374       16.087        4.025      491.172       87.256        0.032      341.699       16.589      859.771
05/09/2014  16:20:00     -518.294      -53.758      -31.540      243.172      158.556       74.250    59132.861    25140.049     5513.001       18.113        4.489      521.074       82.793        0.025      341.839       16.828      859.797
05/09/2014  16:21:00     -406.154      -67.875       -6.543      217.674      168.980       97.017    47382.051    28554.237     9412.253       12.746        4.267      411.786       98.024        0.057      341.890       16.915      859.804
05/09/2014  16:22:00     -386.747     -180.033       -2.265      172.342      150.244       83.674    29701.787    22573.132     7001.325       12.062        2.964      426.597       92.818        0.047      341.916       16.958      859.827
05/09/2014  16:23:00     -332.137     -119.328        0.991      157.668      116.885       71.592    24859.338    13662.164     5125.403        8.409        2.182      352.922       68.518        0.038      342.015       17.127      859.835
05/09/2014  16:24:00     -526.597      -66.710      -23.391      206.179      151.664       82.667    42509.830    23001.979     6833.814       17.731        3.617      530.806       99.940        0.035      341.714       16.614      859.796
05/09/2014  16:25:00      -48.973     -101.755       20.222      117.614      110.736       66.348    13833.154    12262.518     4402.057        2.182        1.525      112.927       41.000        0.132      342.192       17.429      859.813
05/09/2014  16:26:00     -143.521     -113.624        1.696      157.115      118.206       55.862    24684.978    13972.626     3120.551        3.764        2.089      183.054       75.782        0.171      342.163       17.379      859.827
05/09/2014  16:27:00     -230.820     -165.918       10.151      167.158      141.707       81.756    27941.916    20080.755     6684.072        6.780        2.735      284.265       90.224        0.101      341.814       16.786      859.839
05/09/2014  16:28:00     -278.622      116.695      -15.091      160.656      130.691       87.441    25810.434    17080.030     7645.980        7.100        2.527      302.072       92.315        0.093      341.843       16.834      859.850
05/09/2014  16:29:00     -411.300      -19.175      -41.068      152.607      130.484       63.014    23288.790    17026.147     3970.770       10.774        2.214      411.746       63.999        0.024      341.898       16.927      859.828
05/09/2014  16:30:00     -246.221        0.510        6.851      134.573      156.786       68.315    18109.766    24581.740     4666.915        5.401        2.368      246.221       68.391        0.077      342.035       17.160      859.806
05/09/2014  16:31:00     -267.379     -131.300      -24.092      158.447      162.542       62.447    25105.608    26419.765     3899.645        7.236        2.771      297.878       74.218        0.062      341.814       16.784      859.854
05/09/2014  16:32:00     -212.705     -112.754        7.717      147.745      130.271       54.113    21828.703    16970.633     2928.207        4.986        2.086      240.743       48.682        0.041      341.803       16.767      859.850
05/09/2014  16:33:00     -380.545      -20.669       -5.273      241.238      176.262       83.555    58195.883    31068.299     6981.451       12.074        4.812      381.106       87.264        0.052      341.955       17.025      859.859
05/09/2014  16:34:00     -777.060     -175.381      -63.473      258.491      220.638       97.454    66817.613    48681.224     9497.227       38.178        6.250      796.606      113.888        0.020      341.455       16.177      859.832
05/09/2014  16:35:00     -270.520     -171.430      -18.736      175.751      176.002       77.046    30888.432    30976.792     5936.159        8.535        3.390      320.265       81.341        0.065      341.545       16.328      859.880
05/09/2014  16:36:00     -477.820     -138.603      -17.670      216.371      144.728       75.860    46816.478    20946.303     5754.757       16.066        3.676      497.517       79.573        0.026      341.510       16.269      859.823
05/09/2014  16:37:00     -457.084     -121.577      -19.213      206.163      149.825       78.353    42503.250    22447.533     6139.237       14.757        3.555      472.976       97.857        0.043      341.697       16.587      859.827
05/09/2014  16:38:00     -356.043     -178.342        5.466      278.375      196.167      113.827    77492.549    38481.423    12956.536       14.374        6.447      398.212      130.519        0.107      341.733       16.648      859.834
05/09/2014  16:39:00     -304.554     -216.384        0.193      226.810      157.619       98.939    51442.722    24843.661     9788.879       11.281        4.304      373.597       99.521        0.071      341.816       16.788      859.817
05/09/2014  16:40:00     -247.395     -113.621       -7.649      170.409      181.119       70.996    29039.295    32804.100     5040.403        7.051        3.344      272.239       61.114        0.050      342.089       17.252      859.810
05/09/2014  16:41:00     -246.238      -99.856       21.366      300.378      199.579      106.664    90227.195    39831.906    11377.213       10.622        7.072      265.715      136.385        0.263      342.046       17.179      859.758
05/09/2014  16:42:00     -372.620     -148.828       -3.568      173.403      218.817       88.468    30068.599    47880.959     7826.565       12.337        4.289      401.242       84.152        0.044      341.846       16.839      859.818
05/09/2014  16:43:00     -427.543     -255.016      -14.374      216.974      143.189       87.797    47077.636    20503.073     7708.324       16.165        3.764      497.821       90.443        0.033      341.625       16.463      859.872
05/09/2014  16:44:00     -344.190     -243.757        7.401      240.433      182.156       97.269    57807.854    33180.630     9461.285       13.917        5.022      421.763      109.668        0.068      341.486       16.230      859.817
05/09/2014  16:45:00     -217.574     -100.494       -3.830      203.129      107.525       77.915    41261.364    11561.697     6070.673        5.816        2.945      239.661       76.365        0.102      341.642       16.493      859.854
05/09/2014  16:46:00     -235.860     -116.811        4.890      162.603      116.507       81.176    26439.883    13573.896     6589.513        5.794        2.330      263.200       88.796        0.114      341.748       16.674      859.857
05/09/2014  16:47:00     -307.038       12.464      -18.209      149.263      122.630       60.459    22279.381    15038.231     3655.280        6.786        2.049      307.291       63.821        0.043      341.724       16.632      859.885
05/09/2014  16:48:00     -242.608        6.665      -11.184      147.656      115.575       61.722    21802.227    13357.592     3809.587        4.899        1.948      242.699       72.843        0.090      341.761       16.695      859.860
05/09/2014  16:49:00     -286.416      -87.175      -16.999      136.774      158.739       66.241    18707.242    25198.210     4387.876        6.910        2.415      299.389       75.614        0.064      341.791       16.744      859.820
05/09/2014  16:50:00     -426.667     -158.450      -20.812      274.995      192.388       96.196    75622.524    37013.293     9253.753       16.471        6.094      455.138      133.574        0.086      341.897       16.925      859.854
05/09/2014  16:51:00     -528.582     -220.332       -8.057      236.866      181.726      111.425    56105.608    33024.285    12415.454       21.476        5.077      572.665      120.711        0.044      341.598       16.419      859.839
05/09/2014  16:52:00     -376.737     -294.321        1.037      187.117      153.585      100.778    35012.761    23588.409    10156.185       14.864        3.438      478.074      105.715        0.049      341.639       16.487      859.873
05/09/2014  16:53:00     -347.837     -284.542        2.043      199.108      156.132       95.901    39643.839    24377.163     9197.029       13.757        3.661      449.394       98.081        0.048      341.471       16.202      859.870
05/09/2014  16:54:00     -250.278      -71.463        5.398      146.166      170.572       75.519    21364.513    29094.863     5703.122        6.196        2.808      260.280       82.243        0.100      341.604       16.429      859.855
05/09/2014  16:55:00     -432.561     -150.114      -19.480      234.741      196.919       86.744    55103.456    38777.185     7524.544       15.569        5.070      457.869      101.651        0.049      341.787       16.739      859.901
05/09/2014  16:56:00     -515.599     -311.957      -13.596      248.430      186.798      114.634    61717.670    34893.401    13140.970       23.653        5.488      602.627      115.541        0.037      341.588       16.403      859.858
05/09/2014  16:57:00     -371.019     -323.165        6.598      275.350      241.028      117.257    75817.426    58094.478    13749.283       19.487        7.383      492.027      123.399        0.063      341.589       16.403      859.874
05/09/2014  16:58:00     -495.543      -16.200      -27.125      145.186      159.638       73.665    21079.032    25484.276     5426.588       14.927        2.599      495.808       69.076        0.019      341.309       15.928      859.950
05/09/2014  16:59:00      -60.449      -38.923       53.090      168.272      117.953       93.511    28315.448    13912.899     8744.238        2.947        2.549       71.897      105.302        2.145      341.797       16.759      859.862
05/09/2014  17:00:00     -313.655     -100.717       -1.107      179.361      167.798       82.424    32170.358    28156.223     6793.797        8.781        3.356      329.429       84.208        0.065      341.844       16.836      859.905
05/09/2014  17:01:00     -263.975      -84.801       -1.557      141.664      119.467       62.403    20068.789    14272.420     3894.087        5.755        1.912      277.262       57.323        0.043      341.813       16.784      859.899
05/09/2014  17:02:00      -59.395      -34.763       12.438      108.251       73.392       57.333    11718.325     5386.413     3287.090        1.264        1.020       68.821       58.219        0.716      341.783       16.734      859.879
05/09/2014  17:03:00     -197.128      -15.457        2.130      186.930      101.777       93.484    34942.782    10358.650     8739.283        4.656        2.702      197.733      120.573        0.372      341.839       16.829      859.853
05/09/2014  17:04:00     -302.131     -105.708      -10.888      158.322      121.408       76.219    25065.809    14739.925     5809.406        7.409        2.281      320.089       75.219        0.055      341.635       16.483      859.843
05/09/2014  17:05:00     -237.703      -12.127      -10.559      170.521      141.336       74.194    29077.489    19975.801     5504.762        5.565        2.728      238.012       89.190        0.140      341.691       16.578      859.895
05/09/2014  17:06:00     -224.658     -110.155        5.217      201.723      148.430       89.527    40692.018    22031.385     8015.133        6.667        3.537      250.210      115.958        0.215      341.908       16.944      859.889
05/09/2014  17:07:00     -303.445     -149.944        8.578      168.392      185.569       81.918    28355.978    34435.688     6710.561        9.205        3.475      338.470       91.497        0.073      341.762       16.697      859.975
05/09/2014  17:08:00     -310.241     -137.729       -6.772      267.811      221.363      119.499    71722.662    49001.554    14280.128       12.511        6.750      339.439      109.154        0.103      341.500       16.252      860.008
05/09/2014  17:09:00     -418.936     -157.721        3.472      260.614      212.695      119.526    67919.533    45239.373    14286.569       16.389        6.372      447.642      114.433        0.065      341.446       16.162      859.967
05/09/2014  17:10:00     -301.038     -120.102      -15.237      142.681      103.882       61.045    20357.913    10791.450     3726.473        7.007        1.744      324.112       63.619        0.039      341.561       16.355      860.003
05/09/2014  17:11:00     -202.312     -150.319       19.042      195.765      136.641       86.961    38324.073    18670.664     7562.158        6.421        3.228      252.044       99.949        0.157      341.565       16.365      859.989
05/09/2014  17:12:00     -185.153      -49.193       -4.596      144.684      116.093       53.397    20933.553    13477.622     2851.273        3.699        1.863      191.577       52.500        0.075      341.669       16.541      859.929
05/09/2014  17:13:00     -384.396      -56.186      -15.774      148.342      133.849       72.436    22005.208    17915.497     5246.976        9.816        2.258      388.481       78.288        0.041      341.691       16.578      859.917
05/09/2014  17:14:00     -238.018     -182.821        6.242      176.865      131.484       78.220    31281.085    17288.088     6118.358        7.239        2.734      300.127       81.229        0.073      341.634       16.480      859.942
05/09/2014  17:15:00     -237.020     -145.097       -4.267      158.117      132.297       63.279    25000.847    17502.517     4004.237        6.187        2.325      277.906       56.911        0.042      341.601       16.423      859.957
05/09/2014  17:16:00     -207.969     -117.831        5.326      170.234       94.633       73.633    28979.629     8955.476     5421.766        5.025        2.168      239.029       82.958        0.120      341.789       16.744      859.942
05/09/2014  17:17:00     -323.874     -178.625       -9.006      205.666      153.196       80.433    42298.582    23469.041     6469.415       10.455        3.612      369.867       94.415        0.065      341.606       16.433      859.948
05/09/2014  17:18:00     -180.664     -106.642       19.753      181.792      119.796       60.287    33048.298    14350.966     3634.499        4.771        2.552      209.791       73.147        0.122      341.628       16.471      859.965
05/09/2014  17:19:00     -139.109     -138.420        5.833      108.494       81.987       51.176    11770.884     6721.817     2618.980        2.982        1.056      196.243       43.078        0.048      341.779       16.725      859.964
05/09/2014  17:20:00     -170.960     -198.006       21.585      238.178      196.523       87.569    56728.537    38621.204     7668.285        8.594        5.151      261.598       92.336        0.125      341.694       16.581      859.956
05/09/2014  17:21:00     -220.584      -90.982       12.284      210.546      145.178       90.337    44329.496    21076.742     8160.818        6.531        3.678      238.610       99.893        0.175      341.756       16.687      859.984
05/09/2014  17:22:00     -282.185       36.508      -16.747      209.343      136.105       68.720    43824.680    18524.563     4722.394        7.414        3.354      284.537       77.391        0.074      341.823       16.800      860.013
05/09/2014  17:23:00     -624.590      -90.913      -32.792      222.725      185.292       84.209    49606.575    34332.944     7091.199       24.522        4.552      631.172       97.075        0.024      341.255       15.838      859.998
05/09/2014  17:24:00     -428.461     -134.171       -8.770      181.777      123.378       76.204    33042.771    15222.026     5807.018       12.785        2.704      448.978       72.277        0.026      341.517       16.282      860.036
05/09/2014  17:25:00     -266.786     -168.846      -11.618      202.330      165.159      101.541    40937.542    27277.510    10310.539        8.916        3.926      315.727      102.067        0.105      341.576       16.381      860.000
05/09/2014  17:26:00     -266.223     -185.455       -0.785      240.830      197.011      100.545    57998.942    38813.354    10109.281       10.607        5.346      324.451      107.080        0.109      341.530       16.304      859.999
05/09/2014  17:27:00     -496.606      -89.575      -30.923      259.537      190.903       95.972    67359.650    36443.852     9210.668       18.428        5.651      504.620      112.762        0.050      341.448       16.164      859.998
05/09/2014  17:28:00     -707.403     -173.090      -30.892      258.677      182.121      104.239    66913.567    33168.194    10865.847       32.112        5.547      728.271      132.759        0.033      341.379       16.047      859.887
05/09/2014  17:29:00     -290.169      -91.761        8.280      231.774      166.406       91.189    53719.048    27690.808     8315.407        9.119        4.486      304.333      114.468        0.141      341.702       16.595      860.024
05/09/2014  17:30:00     -367.423     -143.145      -21.541      210.363      155.271       65.085    44252.780    24108.942     4236.036       11.426        3.630      394.322       67.366        0.029      341.555       16.346      860.069
05/09/2014  17:31:00     -442.038     -141.749      -31.843      213.864      152.271       92.297    45737.676    23186.459     8518.768       14.696        3.872      464.210      111.031        0.057      341.348       15.995      860.070
05/09/2014  17:32:00     -212.138     -183.886       12.345      179.307      138.236       70.885    32151.054    19109.101     5024.635        6.762        2.814      280.743       86.309        0.095      341.515       16.280      860.052
05/09/2014  17:33:00     -319.901      -76.328      -29.149      190.107      127.549       60.059    36140.768    16268.845     3607.059        8.250        2.801      328.881       60.973        0.034      341.450       16.166      860.062
05/09/2014  17:34:00     -279.710     -135.635       -7.524      189.777      206.402       68.727    36015.484    42601.610     4723.351        9.000        4.167      310.861       70.930        0.052      341.536       16.312      860.073
05/09/2014  17:35:00     -396.802     -292.580       12.623      238.514      194.264      100.347    56888.980    37738.642    10069.580       17.393        5.235      493.006      125.206        0.064      341.389       16.065      860.081
05/09/2014  17:36:00     -374.450     -221.294      -17.680      150.951      146.632       71.479    22786.214    21500.811     5109.230       11.944        2.470      434.953       76.200        0.031      341.222       15.781      860.106
05/09/2014  17:37:00     -228.275     -195.992       16.153      143.330      127.707       70.464    20543.563    16309.057     4965.128        6.629        2.091      300.869       69.118        0.053      341.343       15.986      860.096
05/09/2014  17:38:00     -347.075     -288.936        5.515      212.760      171.281      106.010    45266.775    29337.232    11238.077       14.489        4.292      451.602      106.104        0.055      341.296       15.907      860.089
05/09/2014  17:39:00     -360.910     -187.497       -1.906      165.982      136.197       84.355    27549.879    18549.560     7115.796       10.930        2.661      406.707       77.667        0.036      341.333       15.971      860.126
05/09/2014  17:40:00     -338.243     -215.741      -11.962      150.697      177.850       80.558    22709.562    31630.627     6489.592       11.095        3.041      401.189       85.118        0.045      341.367       16.027      860.092
05/09/2014  17:41:00     -201.808     -115.839       17.096      129.339      128.237       75.670    16728.458    16444.711     5725.997        4.666        1.945      232.691       73.161        0.099      341.550       16.338      860.113
05/09/2014  17:42:00     -132.650       47.035       10.687      165.228       80.400       73.436    27300.362     6464.134     5392.821        2.953        1.958      140.742       88.361        0.394      341.678       16.555      860.094
05/09/2014  17:43:00     -258.459       -7.947        9.680      163.736      108.673       75.305    26809.401    11809.855     5670.834        5.562        2.215      258.581       78.612        0.092      341.541       16.323      860.081
05/09/2014  17:44:00     -154.871      -97.211       12.576      126.965       96.501       63.227    16120.189     9312.525     3997.708        3.151        1.472      182.852       57.262        0.098      341.699       16.591      860.101
05/09/2014  17:45:00     -286.356     -190.159       -5.695      124.003      106.786       65.895    15376.810    11403.314     4342.155        7.465        1.556      343.745       66.265        0.037      341.532       16.307      860.085
05/09/2014  17:46:00     -164.139      -49.178      -15.912       67.906       76.613       38.224     4611.259     5869.534     1461.079        2.078        0.597      171.348       32.032        0.035      341.130       15.627      860.081
05/09/2014  17:47:00     -292.851     -197.551       -4.735      136.345      119.765       75.014    18589.844    14343.705     5627.151        8.168        1.928      353.254       78.125        0.049      341.298       15.910      860.071
05/09/2014  17:48:00     -143.669     -148.419        6.317      212.260      109.040       74.868    45054.298    11889.711     5605.239        5.262        3.127      206.565       97.497        0.223      341.547       16.333      860.083
05/09/2014  17:49:00     -189.518     -154.583        6.540      179.708      133.666       79.159    32295.007    17866.633     6266.221        5.813        2.821      244.567       89.969        0.135      341.496       16.245      860.079
05/09/2014  17:50:00     -214.167     -133.870        6.026      181.566      129.570       80.888    32966.096    16788.354     6542.860        6.005        2.815      252.564       67.943        0.072      341.497       16.248      860.106
05/09/2014  17:51:00     -346.567     -100.386       -8.364      136.985      125.866       76.916    18764.962    15842.150     5916.074        8.538        2.026      360.813       67.444        0.035      341.500       16.253      860.097
05/09/2014  17:52:00     -425.986     -142.959      -18.628      195.330      166.762       84.274    38153.685    27809.686     7102.047       13.764        3.653      449.335       92.250        0.042      341.197       15.738      860.105
05/09/2014  17:53:00     -510.485     -113.527      -25.180      219.449      166.933       74.887    48157.986    27866.613     5608.072       17.786        4.082      522.956       70.230        0.018      341.100       15.575      860.081
05/09/2014  17:54:00     -192.983     -149.287       10.138      191.814      132.178       79.314    36792.671    17471.146     6290.669        6.008        3.028      243.986       89.134        0.133      341.366       16.026      860.062
05/09/2014  17:55:00      -80.787      -50.497       11.328      105.589      107.116       57.299    11149.136    11473.924     3283.222        1.755        1.295       95.271       48.786        0.262      341.568       16.370      860.053
05/09/2014  17:56:00     -351.607     -341.441        4.716      219.297      157.884       92.483    48090.966    24927.320     8553.102       16.089        4.079      490.112      100.962        0.042      341.293       15.900      860.032
05/09/2014  17:57:00     -313.124     -159.709        0.717      185.296      115.500       73.375    34334.562    13340.214     5383.919        8.830        2.653      351.502       72.109        0.042      341.307       15.926      860.026
05/09/2014  17:58:00     -375.257     -239.326      -11.460      165.188      132.756       71.300    27287.012    17624.180     5083.623       12.410        2.500      445.079       78.480        0.031      341.214       15.768      860.052
05/09/2014  17:59:00     -250.305     -205.456       -4.302      177.495      140.592       68.887    31504.554    19766.017     4745.403        8.044        2.801      323.829       67.016        0.043      341.282       15.883      860.051
05/09/2014  18:00:00     -281.350     -208.886        6.622      182.323      143.385       79.318    33241.830    20559.310     6291.288        9.145        3.005      350.415       78.316        0.050      341.298       15.909      860.058
05/09/2014  18:01:00     -363.072     -182.351       11.749      188.821      218.935       93.786    35653.334    47932.635     8795.780       12.878        4.619      406.292       96.826        0.057      341.313       15.936      860.067
05/09/2014  18:02:00     -448.545     -109.845      -11.774      185.813      202.346       88.153    34526.625    40943.859     7770.871       14.830        4.162      461.799       60.901        0.017      341.189       15.726      860.114
05/09/2014  18:03:00     -402.026     -174.752       -7.290      226.109      250.538      103.024    51125.270    62769.494    10613.985       15.834        6.225      438.364      108.343        0.061      341.177       15.707      860.112
05/09/2014  18:04:00     -520.908     -325.516      -26.120      230.618      210.938      117.798    53184.736    44494.779    13876.271       24.475        5.578      614.253      114.001        0.034      341.102       15.579      860.090
05/09/2014  18:05:00     -351.751     -299.237       -6.658      200.886      161.406      100.647    40355.025    26052.002    10129.855       14.491        3.827      461.814      116.912        0.064      341.033       15.462      860.115
05/09/2014  18:06:00     -254.414     -239.575        0.527      149.169      139.797       70.584    22251.534    19543.084     4982.045        8.444        2.339      349.460       70.650        0.041      341.101       15.578      860.085
05/09/2014  18:07:00     -445.699     -261.079      -13.944      205.299      159.596       87.513    42147.792    25470.906     7658.491       17.113        3.764      516.537       91.660        0.031      341.133       15.631      860.079
05/09/2014  18:08:00     -361.448     -275.076      -11.545      196.470      166.635       89.696    38600.484    27767.171     8045.427       14.041        3.721      454.215       92.584        0.042      341.063       15.512      860.051
05/09/2014  18:09:00     -420.356     -215.641      -21.717      164.548      132.264       76.578    27076.195    17493.862     5864.236       13.704        2.522      472.440       75.567        0.026      341.098       15.572      860.081
05/09/2014  18:10:00     -366.773     -302.481       -8.190      229.601      176.468       91.355    52716.697    31140.871     8345.688       15.913        4.610      475.412      105.403        0.049      341.116       15.601      860.060
05/09/2014  18:11:00     -428.956     -262.506      -24.938      181.563      173.659       79.177    32965.135    30157.504     6268.998       16.145        3.470      502.904       81.671        0.026      341.039       15.472      860.082
05/09/2014  18:12:00     -383.542      -76.943      -19.305      156.656      163.473       85.301    24540.972    26723.575     7276.286       10.596        2.927      391.183       83.148        0.045      341.083       15.547      860.074
05/09/2014  18:13:00     -181.286     -149.687      -11.812      138.805      118.723       73.819    19266.691    14095.209     5449.185        4.710        1.941      235.098       69.689        0.088      341.192       15.730      860.082
05/09/2014  18:14:00     -341.567     -159.542       -0.110      178.599      145.042       82.512    31897.447    21037.274     6808.290       10.092        2.987      376.990       83.364        0.049      341.150       15.660      860.080
05/09/2014  18:15:00     -188.269     -203.811       12.383      163.222      141.884       77.919    26641.484    20131.205     6071.326        6.498        2.642      277.460       73.334        0.070      341.002       15.409      860.056
05/09/2014  18:16:00     -304.406     -104.627      -22.815      190.328      146.709       73.116    36224.572    21523.484     5345.913        8.360        3.155      321.885       95.357        0.088      341.098       15.572      860.100
05/09/2014  18:17:00     -232.960     -131.898       -5.879      173.337      184.289       77.616    30045.831    33962.423     6024.180        7.085        3.502      267.707       91.631        0.117      341.096       15.569      860.060
05/09/2014  18:18:00     -326.177     -206.015      -15.668      175.176      128.439       76.042    30686.530    16496.515     5782.419       10.101        2.648      385.790       78.752        0.042      341.132       15.630      860.040
05/09/2014  18:19:00     -322.388     -280.091      -19.235      183.996      155.027       87.701    33854.509    24033.517     7691.490       12.415        3.279      427.065       96.513        0.051      341.246       15.821      860.040
05/09/2014  18:20:00     -307.073     -192.157        1.415      190.072      128.159       70.458    36127.211    16424.741     4964.328        9.436        2.876      362.240       72.182        0.040      341.195       15.736      860.040
05/09/2014  18:21:00     -224.277      -96.743        1.855      159.548       76.572       56.788    25455.541     5863.264     3224.849        4.710        1.727      244.253       65.296        0.071      341.409       16.099      860.052
05/09/2014  18:22:00     -303.736     -128.221      -19.221      215.390      124.796       77.126    46392.938    15574.116     5948.441        8.848        3.396      329.691      101.081        0.094      341.353       16.002      860.084
05/09/2014  18:23:00     -317.441      -78.780      -19.767      175.653      122.534       74.704    30854.040    15014.529     5580.660        7.940        2.572      327.070       81.454        0.062      341.150       15.661      860.064
05/09/2014  18:24:00     -331.923     -150.851      -20.270      262.150      131.158       85.670    68722.850    17202.375     7339.309       11.328        4.663      364.594      100.836        0.076      341.046       15.485      860.055
05/09/2014  18:25:00     -307.937      -93.692      -17.810      117.241      117.738       56.979    13745.476    13862.211     3246.589        6.738        1.543      321.875       43.606        0.018      341.132       15.629      860.052
05/09/2014  18:26:00     -408.578      -90.442      -19.649      243.037      163.707       76.679    59067.151    26800.015     5879.705       13.361        4.587      418.468       92.411        0.049      341.063       15.512      860.032
05/09/2014  18:27:00     -442.282     -214.886      -14.211      251.035      178.911      101.396    63018.789    32009.075    10281.219       17.363        5.265      491.721      104.134        0.045      341.030       15.457      859.973
05/09/2014  18:28:00     -448.606      -61.984      -29.082      231.201      106.676       92.410    53453.937    11379.809     8539.691       13.964        3.669      452.868      103.409        0.052      340.943       15.309      860.024
05/09/2014  18:29:00     -293.647      -88.870      -17.934      156.768      105.160       55.082    24576.216    11058.641     3034.033        6.655        1.933      306.800       45.516        0.022      340.955       15.329      860.066
05/09/2014  18:30:00     -368.014     -106.966       -1.653      148.510      133.147       76.818    22055.344    17727.999     5901.075        9.627        2.284      383.244       73.029        0.036      340.963       15.344      860.021
05/09/2014  18:31:00     -393.124     -139.594       12.299      217.770      172.921       84.266    47423.683    29901.662     7100.721       12.929        4.221      417.173       76.437        0.034      340.996       15.399      860.023
05/09/2014  18:32:00     -344.911      -48.616      -24.751      177.468      149.426       88.642    31494.984    22328.254     7857.336        9.180        3.084      348.320       94.967        0.074      341.036       15.468      860.054
05/09/2014  18:33:00      -46.170      -19.990       26.069       96.270       82.103       49.963     9267.843     6740.961     2496.259        1.085        0.925       50.312       56.989        1.283      341.184       15.719      860.049
05/09/2014  18:34:00     -177.559      -16.446      -25.880      127.895      102.105       60.264    16357.215    10425.402     3631.713        3.143        1.521      178.319       65.918        0.137      341.242       15.816      860.039
05/09/2014  18:35:00     -284.637      -12.540      -15.725      117.085       86.974       50.504    13708.782     7564.439     2550.673        5.262        1.191      284.913       48.542        0.029      341.201       15.746      860.042
05/09/2014  18:36:00     -275.548     -122.396      -15.266       95.008      103.396       50.208     9026.459    10690.691     2520.841        5.668        1.112      301.508       52.302        0.030      341.163       15.682      860.046
05/09/2014  18:37:00     -167.574       -3.126       -6.903       94.094       70.596       45.803     8853.760     4983.786     2097.954        2.203        0.797      167.603       51.085        0.093      341.190       15.729      860.028
05/09/2014  18:38:00     -168.531      -39.834        4.810      102.694       65.964       50.042    10545.969     4351.309     2504.227        2.370        0.870      173.175       43.742        0.064      341.298       15.912      860.048
05/09/2014  18:39:00     -125.140      -65.925        5.441       92.721       51.527       40.423     8597.178     2655.019     1634.056        1.646        0.644      141.443       48.553        0.118      341.438       16.150      860.056
05/09/2014  18:40:00      -87.373     -189.649       14.180      108.605       98.685       62.235    11795.124     9738.795     3873.219        3.460        1.270      208.808       57.109        0.075      341.283       15.886      860.075
05/09/2014  18:41:00      -77.872      -94.736       24.824      115.924       90.479       44.139    13438.451     8186.394     1948.235        1.961        1.179      122.633       46.967        0.147      341.372       16.037      860.069
05/09/2014  18:42:00     -137.410      -87.000       24.840      150.807       89.442       45.791    22742.868     7999.950     2096.786        2.995        1.642      162.637       54.636        0.113      341.181       15.714      860.058
05/09/2014  18:43:00     -257.714     -120.493       -4.425      124.106      106.494       51.234    15402.177    11341.019     2624.895        5.516        1.468      284.491       56.553        0.040      341.004       15.412      860.059
05/09/2014  18:44:00     -195.881     -210.169       19.590      143.612      177.627       72.060    20624.407    31551.244     5192.713        7.013        2.868      287.298       74.772        0.068      341.111       15.596      860.080
05/09/2014  18:45:00     -206.306     -102.735        6.615      146.619      105.715       55.499    21497.275    11175.636     3080.189        4.445        1.788      230.470       57.455        0.062      341.121       15.612      860.104
05/09/2014  18:46:00     -434.258     -213.468       -7.324      166.714      110.837       63.230    27793.407    12284.834     3998.087       13.913        2.204      483.889       61.700        0.016      340.782       15.036      860.059
05/09/2014  18:47:00     -305.517      -66.508        9.593      173.214      123.002       67.882    30003.155    15129.416     4607.974        7.379        2.487      312.672       73.796        0.056      340.969       15.354      860.073
05/09/2014  18:48:00     -257.322      -77.909      -19.767      163.746       96.653       59.573    26812.812     9341.772     3548.971        5.618        1.985      268.857       66.398        0.061      340.854       15.160      860.078
05/09/2014  18:49:00     -274.551     -191.507       -5.355      211.474      164.627       72.589    44721.155    27102.081     5269.167        9.457        3.855      334.744       79.496        0.056      340.919       15.269      860.076
05/09/2014  18:50:00     -368.026     -166.568        4.794      253.471      151.901       96.805    64247.421    23073.857     9371.114       12.993        4.835      403.966      113.605        0.079      340.807       15.080      860.034
05/09/2014  18:51:00     -271.109     -189.235      -11.282      173.593      146.497       82.997    30134.701    21461.491     6888.521        8.395        2.924      330.621       89.418        0.073      340.846       15.145      860.062
05/09/2014  18:52:00     -118.958      -84.980       11.269      136.810      122.245       52.502    18716.972    14943.874     2756.486        2.895        1.821      146.194       76.742        0.276      340.981       15.375      860.064
05/09/2014  18:53:00     -161.835      -82.150        6.434      169.509       90.698       51.053    28733.306     8226.188     2606.416        3.627        1.978      181.492       54.304        0.090      340.967       15.351      860.048
05/09/2014  18:54:00     -280.903      -82.209       -3.965      104.958      124.639       50.107    11016.181    15534.863     2510.734        5.737        1.453      292.685       51.958        0.032      340.884       15.208      860.067
05/09/2014  18:55:00     -231.415       -2.947       -8.509      116.100      121.514       53.685    13479.205    14765.668     2882.028        4.237        1.556      231.434       59.304        0.066      340.945       15.311      860.048
05/09/2014  18:56:00     -194.660      -33.064       -2.693       86.452       99.746       51.722     7473.995     9949.192     2675.130        2.954        1.005      197.448       38.099        0.037      341.004       15.414      860.044
05/09/2014  18:57:00     -182.171     -101.812        8.872      143.359       97.930       60.808    20551.865     9590.237     3697.619        3.873        1.692      208.691       64.982        0.097      341.020       15.441      860.036
05/09/2014  18:58:00     -147.477      -62.660       -0.989      114.968       94.311       54.617    13217.704     8894.640     2982.996        2.538        1.255      160.237       53.287        0.111      341.037       15.471      860.060
05/09/2014  18:59:00     -177.440      -99.939       -7.569      118.239       65.169       41.573    13980.544     4246.954     1728.323        3.074        0.998      203.648       48.284        0.056      340.917       15.266      860.062
05/09/2014  19:00:00      -79.557     -158.779       14.889       97.336      116.523       52.087     9474.362    13577.616     2713.100        2.876        1.288      177.595       44.473        0.063      340.873       15.192      860.059
05/09/2014  19:01:00     -237.271     -189.385       -9.238      147.774      101.148       66.693    21837.086    10230.964     4447.908        6.438        1.826      303.586       65.321        0.046      340.746       14.977      860.044
05/09/2014  19:02:00     -225.454      -73.608      -15.822      121.994       83.078       47.187    14882.507     6901.985     2226.566        4.025        1.201      237.165       48.464        0.042      340.917       15.267      860.069
05/09/2014  19:03:00      -94.822     -114.741        7.652      121.728       75.202       47.692    14817.688     5655.325     2274.531        2.248        1.137      148.851       53.829        0.131      340.753       14.990      860.063
05/09/2014  19:04:00     -155.452       -0.707       -1.533       88.595       68.519       42.044     7849.143     4694.910     1767.713        1.924        0.716      155.453       27.507        0.031      340.970       15.358      860.045
05/09/2014  19:05:00     -140.424      -36.284       -5.892       96.968       73.826       45.680     9402.737     5450.230     2086.679        1.900        0.847      145.036       50.936        0.123      340.833       15.125      860.027
05/09/2014  19:06:00     -197.962     -102.392      -11.585      108.261       73.873       45.441    11720.463     5457.198     2064.915        3.452        0.962      222.875       49.331        0.049      340.865       15.178      860.036
05/09/2014  19:07:00     -288.093     -141.814      -16.508      139.779       97.763       57.452    19538.116     9557.579     3300.738        6.788        1.620      321.106       67.492        0.044      340.762       15.003      860.046
05/09/2014  19:08:00     -199.777      -91.818       -4.769      116.006       82.812       45.952    13457.282     6857.823     2111.541        3.539        1.121      219.867       53.181        0.059      340.760       14.999      860.051
05/09/2014  19:09:00     -149.885     -120.457        5.858       83.162       69.195       41.357     6915.899     4787.919     1710.363        2.521        0.671      192.290       48.781        0.064      340.868       15.183      860.054
05/09/2014  19:10:00     -231.623     -127.210       -8.985      153.975      110.575       62.351    23708.257    12226.751     3887.688        5.486        1.991      264.257       56.096        0.045      340.817       15.095      860.068
05/09/2014  19:11:00     -332.333     -127.962        7.268      213.242      122.291       69.980    45471.982    14955.073     4897.159        9.609        3.266      356.117       87.217        0.060      340.664       14.838      860.073
05/09/2014  19:12:00     -257.197     -169.314        1.180      129.318      123.172       59.389    16723.065    15171.318     3527.033        6.511        1.771      307.925       42.911        0.019      340.609       14.744      860.100
05/09/2014  19:13:00     -365.542     -226.189      -14.735      126.637       84.168       62.968    16037.035     7084.241     3964.967       10.604        1.354      429.864       59.293        0.019      340.531       14.612      860.067
05/09/2014  19:14:00     -253.883      -15.047      -27.172      131.945      132.006       55.485    17409.483    17425.559     3078.627        5.166        1.896      254.329       45.518        0.032      340.626       14.773      860.089
05/09/2014  19:15:00     -333.019       -5.913      -26.510      126.435      115.515       59.382    15985.894    13343.666     3526.181        7.224        1.643      333.072       55.266        0.028      340.652       14.815      860.086
05/09/2014  19:16:00     -268.803      -48.990      -13.797      133.700      117.671       60.557    17875.733    13846.420     3667.155        5.511        1.769      273.231       72.093        0.070      340.652       14.816      860.100
05/09/2014  19:17:00     -252.828      -14.878        8.029      130.648      118.944       67.906    17068.999    14147.697     4611.235        5.001        1.791      253.265       77.816        0.094      340.598       14.726      860.140
05/09/2014  19:18:00     -242.119      -50.749       10.450      199.995      114.697       61.597    39997.948    13155.390     3794.185        5.912        2.847      247.380       81.217        0.108      340.544       14.636      860.164
05/09/2014  19:19:00     -276.682     -119.592      -18.312      117.348       77.241       56.186    13770.561     5966.183     3156.877        5.704        1.145      301.422       42.157        0.020      340.495       14.552      860.171
05/09/2014  19:20:00     -252.595     -120.505       -5.562      131.585       97.051       55.584    17314.592     9418.964     3089.551        5.408        1.491      279.868       61.504        0.048      340.518       14.592      860.174
05/09/2014  19:21:00     -222.394     -185.098       -4.556      114.742      108.419       67.424    13165.709    11754.684     4545.999        5.660        1.473      289.345       71.863        0.062      340.488       14.539      860.230
05/09/2014  19:22:00     -284.907     -213.762        5.406      175.017      250.988       96.152    30631.042    62995.086     9245.194       11.486        5.144      356.183       94.268        0.070      340.347       14.301      860.200
05/09/2014  19:23:00     -339.523     -253.968        7.101      189.691      195.279       88.141    35982.618    38134.082     7768.809       13.084        4.094      424.000       99.848        0.055      340.417       14.420      860.201
05/09/2014  19:24:00     -202.992     -139.384       14.820      152.776      116.586       74.026    23340.513    13592.270     5479.782        5.162        2.121      246.239       89.892        0.133      340.448       14.471      860.265
05/09/2014  19:25:00     -237.931     -104.500       -0.095       99.933       99.949       56.687     9986.642     9989.810     3213.455        4.536        1.159      259.868       54.495        0.044      340.425       14.434      860.285
05/09/2014  19:26:00     -235.991     -208.053      -16.046      144.043      122.492       64.523    20748.481    15004.243     4163.253        6.957        1.996      314.608       58.895        0.035      340.350       14.306      860.283
05/09/2014  19:27:00     -268.072     -155.057       -3.041      141.553      114.334       60.843    20037.117    13072.176     3701.845        6.636        1.841      309.685       75.594        0.060      340.377       14.352      860.256
05/09/2014  19:28:00     -235.545       -9.433        2.498      131.027       84.388       63.366    17168.012     7121.361     4015.268        4.194        1.415      235.734       65.727        0.078      340.338       14.288      860.290
05/09/2014  19:29:00     -314.180      -34.861      -15.351      133.714      130.205       65.515    17879.321    16953.429     4292.226        6.963        1.956      316.108       69.924        0.049      340.326       14.266      860.296
05/09/2014  19:30:00     -227.118      -95.694        2.745       87.752       82.521       47.815     7700.474     6809.668     2286.281        3.877        0.840      246.454       42.935        0.030      340.390       14.373      860.338
05/09/2014  19:31:00     -199.557     -148.293        2.755      132.500       80.332       55.310    17556.286     6453.289     3059.234        4.444        1.353      248.624       49.509        0.040      340.268       14.169      860.347
05/09/2014  19:32:00     -374.108     -167.960      -21.152      137.804       94.769       64.218    18989.866     8981.237     4123.973       10.035        1.605      410.082       68.606        0.028      340.214       14.075      860.351
05/09/2014  19:33:00     -194.012      -82.338       -2.499      130.268       61.073       44.360    16969.714     3729.907     1967.792        3.354        1.133      210.761       38.263        0.033      340.248       14.135      860.366
05/09/2014  19:34:00     -369.787     -210.853       -7.440      151.074      126.906       67.100    22823.330    16105.044     4502.404       11.233        2.172      425.677       75.595        0.032      340.178       14.016      860.368
05/09/2014  19:35:00     -280.435     -109.932        6.027      165.668      130.990       80.076    27445.749    17158.388     6412.098        7.088        2.551      301.212       78.559        0.068      340.163       13.991      860.377
05/09/2014  19:36:00     -275.331      -24.861       11.862      139.000       81.763       47.703    19321.094     6685.111     2275.582        5.242        1.414      276.451       54.147        0.038      340.225       14.095      860.392
05/09/2014  19:37:00     -147.018     -132.273       11.518      121.436      109.081       48.748    14746.700    11898.624     2376.392        3.413        1.451      197.764       55.723        0.079      340.162       13.989      860.392
05/09/2014  19:38:00     -137.622     -198.651       -2.160       97.673      108.373       49.120     9540.008    11744.774     2412.813        4.105        1.185      241.665       42.262        0.031      340.219       14.085      860.406
05/09/2014  19:39:00     -315.991     -188.454       -8.408      128.763      114.992       55.127    16579.913    13223.142     3039.015        8.413        1.642      367.920       53.560        0.021      340.123       13.923      860.397
05/09/2014  19:40:00     -349.408     -228.194      -11.684      154.825       98.785       71.416    23970.780     9758.521     5100.197       10.655        1.941      417.323       65.658        0.025      340.112       13.904      860.425
05/09/2014  19:41:00     -123.472     -156.708       -0.383      114.666      124.568       54.131    13148.284    15517.153     2930.150        3.569        1.580      199.506       63.073        0.100      340.110       13.903      860.438
05/09/2014  19:42:00     -168.058     -124.884        2.170      118.548      114.034       52.724    14053.649    13003.856     2779.772        3.683        1.492      209.379       47.848        0.052      340.094       13.875      860.439
05/09/2014  19:43:00     -153.321      -89.865       13.268      117.301       85.638       50.401    13759.543     7333.915     2540.263        2.769        1.182      177.716       50.860        0.082      340.092       13.873      860.473
05/09/2014  19:44:00     -165.863      -94.349       -2.786       90.762       50.077       41.157     8237.728     2507.701     1693.869        2.443        0.622      190.820       39.198        0.042      340.116       13.911      860.480
05/09/2014  19:45:00     -163.100      -71.381        2.361       67.174       60.295       33.753     4512.343     3635.520     1139.243        2.049        0.464      178.036       27.394        0.024      340.108       13.901      860.503
05/09/2014  19:46:00     -127.700      -96.948        6.323       95.777       77.242       49.442     9173.302     5966.377     2444.525        2.166        0.879      160.332       52.103        0.106      340.097       13.880      860.504
05/09/2014  19:47:00     -125.274      -80.074        2.386       68.116       58.386       33.252     4639.800     3408.943     1105.682        1.563        0.458      148.679       36.130        0.059      340.127       13.932      860.517
05/09/2014  19:48:00     -228.895     -202.919        2.399      111.449      128.524       49.008    12420.980    16518.341     2401.796        6.245        1.567      305.890       61.786        0.041      340.034       13.772      860.538
05/09/2014  19:49:00     -187.323     -226.793       14.466      149.552      136.004       73.616    22365.812    18497.150     5419.300        6.650        2.314      294.151       70.235        0.057      339.962       13.653      860.539
05/09/2014  19:50:00     -178.635     -183.441       -1.997      130.956       99.063       65.070    17149.402     9813.566     4234.092        4.837        1.560      256.048       51.726        0.041      340.005       13.724      860.561
05/09/2014  19:51:00     -243.165      -89.650        1.709      140.508      138.367       71.330    19742.437    19145.402     5088.004        5.556        2.199      259.165       79.481        0.094      339.917       13.576      860.569
05/09/2014  19:52:00     -261.656     -185.973      -13.456      106.093       88.047       55.673    11255.626     7752.268     3099.479        6.266        1.105      321.013       43.879        0.019      339.931       13.599      860.558
05/09/2014  19:53:00     -280.013     -208.854      -19.712       78.446      107.652       53.266     6153.795    11588.994     2837.312        7.149        1.029      349.324       46.172        0.017      339.894       13.536      860.558
05/09/2014  19:54:00     -315.686     -171.319      -10.174      172.185      110.511       72.904    29647.831    12212.636     5314.940        8.813        2.359      359.176       86.233        0.058      339.857       13.473      860.588
05/09/2014  19:55:00     -247.693     -145.285       -6.895      156.089       92.860       65.073    24363.771     8622.924     4234.488        5.986        1.861      287.158       78.164        0.074      339.853       13.467      860.612
05/09/2014  19:56:00     -178.989     -138.801       -9.089      119.976       70.158       51.742    14394.252     4922.182     2677.266        3.669        1.100      226.502       61.237        0.073      339.888       13.525      860.645
05/09/2014  19:57:00     -214.163     -120.998       -7.266       98.632       73.607       43.266     9728.229     5417.953     1871.943        3.879        0.851      245.981       48.670        0.039      339.884       13.520      860.662
05/09/2014  19:58:00     -256.718     -153.162       -8.235      112.436      108.745       55.429    12641.892    11825.499     3072.423        5.848        1.377      298.936       64.583        0.047      339.850       13.462      860.682
05/09/2014  19:59:00     -176.849      -65.595      -14.466       84.177       61.643       35.563     7085.744     3799.904     1264.722        2.397        0.608      188.622       34.022        0.033      339.912       13.566      860.683
05/09/2014  20:00:00     -140.106      -20.410      -11.168      128.637       82.576       52.023    16547.573     6818.766     2706.361        2.312        1.304      141.585       68.790        0.236      339.920       13.583      860.713
05/09/2014  20:01:00     -102.864      -21.119       20.467      135.523       65.265       52.081    18366.547     4259.458     2712.446        1.839        1.267      105.010       67.676        0.415      339.877       13.510      860.721
05/09/2014  20:02:00     -280.943      -34.588      -23.045       95.467       74.037       45.494     9114.029     5481.437     2069.709        4.866        0.833      283.064       45.382        0.026      339.863       13.484      860.752
05/09/2014  20:03:00     -271.290      -15.177      -15.919      103.629       88.836       57.417    10738.997     7891.776     3296.708        4.800        1.096      271.715       56.465        0.043      339.808       13.393      860.757
05/09/2014  20:04:00     -176.265      -42.875       -1.364       90.794       69.904       41.002     8243.563     4886.509     1681.160        2.386        0.741      181.404       41.986        0.054      339.815       13.405      860.758
05/09/2014  20:05:00     -268.494      -71.653      -14.130       70.310       54.814       32.983     4943.552     3004.610     1087.877        4.323        0.452      277.891       28.703        0.011      339.742       13.280      860.781
05/09/2014  20:06:00     -101.622        9.480       -3.516       50.502       49.043       27.852     2550.464     2405.194      775.724        0.808        0.287      102.063       28.661        0.079      339.822       13.420      860.754
05/09/2014  20:07:00     -121.609      -65.729       -7.684       43.800       67.931       27.351     1918.482     4614.572      748.070        1.322        0.364      138.235       24.972        0.033      339.956       13.645      860.741
05/09/2014  20:08:00     -154.746      -90.930       -0.561       77.281       74.655       34.947     5972.294     5573.396     1221.305        2.249        0.638      179.484       34.267        0.036      339.749       13.293      860.756
05/09/2014  20:09:00     -130.702      -15.514        4.923       83.048       56.868       34.465     6896.903     3233.953     1187.834        1.433        0.566      131.619       40.086        0.093      339.832       13.435      860.750
05/09/2014  20:10:00     -210.017      -98.556       -3.183       75.866       59.273       37.234     5755.586     3513.318     1386.378        3.224        0.533      231.992       29.758        0.016      339.770       13.329      860.762
05/09/2014  20:11:00     -187.631      -33.821       -4.877       74.821       72.004       34.580     5598.154     5184.632     1195.794        2.417        0.599      190.655       33.620        0.031      339.710       13.227      860.762
05/09/2014  20:12:00     -110.082      -85.972       18.407       92.327       68.605       42.275     8524.194     4706.640     1787.174        1.743        0.751      139.676       44.640        0.102      339.715       13.235      860.768
05/09/2014  20:13:00     -181.980     -168.164       -2.889       95.408       99.123       46.804     9102.746     9825.379     2190.592        4.126        1.056      247.782       47.431        0.037      339.724       13.249      860.755
05/09/2014  20:14:00     -144.552      -85.371       -2.588       80.855       46.539       36.897     6537.476     2165.919     1361.423        1.913        0.503      167.880       35.065        0.044      339.742       13.284      860.760
05/09/2014  20:15:00     -194.263     -114.230        6.085       97.270       97.017       52.608     9461.486     9412.216     2767.644        3.623        1.082      225.359       49.579        0.048      339.692       13.196      860.771
05/09/2014  20:16:00     -274.597     -184.476      -14.984      132.255       84.890       68.424    17491.367     7206.258     4681.857        6.951        1.469      330.810       66.689        0.041      339.644       13.115      860.792
05/09/2014  20:17:00     -195.381      -78.043       -0.264      107.817       71.605       48.692    11624.516     5127.278     2370.937        3.169        0.956      210.391       53.123        0.064      339.658       13.139      860.799
05/09/2014  20:18:00     -148.230     -119.708       -6.979      100.909       79.137       53.403    10182.597     6262.640     2851.849        2.782        0.965      190.531       44.636        0.055      339.654       13.132      860.820
05/09/2014  20:19:00     -210.291     -102.719       -2.833       83.690       63.765       43.074     7003.988     4065.962     1855.345        3.385        0.646      234.037       41.439        0.031      339.644       13.116      860.841
05/09/2014  20:20:00     -101.056      -62.349        2.031       70.952       69.215       41.925     5034.222     4790.775     1757.735        1.284        0.579      118.742       42.341        0.127      339.659       13.143      860.879
05/09/2014  20:21:00     -179.182      -35.031       -5.009       84.751       57.277       36.606     7182.718     3280.650     1339.966        2.258        0.590      182.575       38.380        0.044      339.686       13.187      860.908
05/09/2014  20:22:00     -156.910     -109.374       -1.991      108.342       68.572       46.642    11737.995     4702.099     2175.482        2.760        0.931      191.268       51.219        0.072      339.648       13.124      860.909
05/09/2014  20:23:00     -294.600     -173.496       -8.203      130.812       84.740       53.067    17111.846     7180.851     2816.131        7.203        1.355      341.892       57.383        0.028      339.625       13.083      860.919
05/09/2014  20:24:00     -184.926     -158.381      -13.005      110.052      120.235       50.976    12111.534    14456.559     2598.511        4.430        1.458      243.480       51.969        0.046      339.519       12.904      860.914
05/09/2014  20:25:00     -225.123     -152.704       13.499      145.237      132.150       63.331    21093.742    17463.720     4010.830        5.837        2.128      272.027       65.404        0.058      339.552       12.962      860.900
05/09/2014  20:26:00     -314.346     -219.201        0.404      164.198      109.363       72.532    26960.955    11960.188     5260.939        9.551        2.209      383.226       83.712        0.048      339.521       12.908      860.916
05/09/2014  20:27:00     -289.237     -144.746       -0.509      102.065      109.905       60.918    10417.298    12079.172     3711.018        6.540        1.310      323.434       60.914        0.035      339.543       12.945      860.935
05/09/2014  20:28:00     -327.397     -155.617       -4.146      110.215      130.563       62.839    12147.251    17046.690     3948.802        8.228        1.657      362.499       62.661        0.030      339.507       12.883      860.928
05/09/2014  20:29:00     -285.808     -120.678       -6.317      122.070      149.150       66.177    14900.970    22245.743     4379.400        6.890        2.076      310.241       73.095        0.056      339.477       12.834      860.932
05/09/2014  20:30:00     -248.831      -36.160      -14.608      136.873      123.024       60.537    18734.258    15134.983     3664.711        5.048        1.877      251.445       69.381        0.076      339.504       12.881      860.945
05/09/2014  20:31:00     -413.957      -34.867      -31.776      167.844      143.166       64.588    28171.718    20496.451     4171.652       11.320        2.642      415.423       69.848        0.028      339.468       12.819      860.940
05/09/2014  20:32:00     -310.183      -94.783      -16.317      157.131      101.266       51.454    24690.046    10254.790     2647.538        7.152        1.880      324.341       59.602        0.034      339.467       12.817      860.950
05/09/2014  20:33:00     -416.329      -70.513      -15.806      159.636      135.449       87.803    25483.501    18346.443     7709.431       11.504        2.577      422.258       90.794        0.046      339.407       12.715      860.943
05/09/2014  20:34:00     -504.432     -101.464      -24.425      189.351      139.976       90.661    35853.727    19593.166     8219.414       16.449        3.183      514.536       95.161        0.034      339.382       12.675      860.931
05/09/2014  20:35:00     -485.661     -128.909      -28.477      271.957      180.107       79.357    73960.615    32438.358     6297.524       18.297        5.635      502.478       89.746        0.032      339.372       12.658      860.934
05/09/2014  20:36:00     -363.527      -96.829       -5.285      231.963      173.239       82.279    53806.746    30011.760     6769.833       11.605        4.529      376.202       99.377        0.070      339.339       12.600      860.928
05/09/2014  20:37:00     -397.628     -105.858      -20.983      144.838       95.510       79.537    20977.946     9122.199     6326.169       10.308        1.821      411.478       87.926        0.046      339.356       12.629      860.928
05/09/2014  20:38:00     -375.022      -97.149       -4.201      176.736      120.977       73.100    31235.550    14635.533     5343.658       10.065        2.561      387.401       82.980        0.046      339.316       12.561      860.939
05/09/2014  20:39:00     -310.512      -94.014       -0.555      153.444      143.861       68.597    23545.141    20695.964     4705.596        7.709        2.447      324.432       76.849        0.056      339.314       12.559      860.944
05/09/2014  20:40:00     -274.521     -148.299        3.539      155.450      119.686       60.637    24164.671    14324.735     3676.797        6.976        2.108      312.016       81.374        0.068      339.344       12.611      860.941
05/09/2014  20:41:00     -218.173      -99.493        2.215      144.990      153.956       73.331    21022.125    23702.480     5377.498        5.379        2.505      239.788       75.104        0.098      339.318       12.566      860.968
05/09/2014  20:42:00     -346.504      -24.714       -3.720      223.527      119.700       85.057    49964.167    14327.989     7234.715        9.609        3.576      347.384      104.595        0.091      339.275       12.493      860.983
05/09/2014  20:43:00     -276.481      -94.233       -0.230      140.971      126.344       73.815    19872.865    15962.891     5448.587        6.329        2.064      292.099       84.225        0.083      339.282       12.505      860.993
05/09/2014  20:44:00     -392.920     -126.532       -5.306      166.862      100.914       66.696    27843.032    10183.725     4448.390       10.644        2.124      412.791       79.538        0.037      339.242       12.437      861.002
05/09/2014  20:45:00     -334.569      -79.906       -9.823      169.474      141.139       78.114    28721.490    19920.258     6101.826        8.657        2.737      343.979       75.778        0.049      339.257       12.464      860.995
05/09/2014  20:46:00     -340.365      -10.897      -12.887      180.343      154.389       81.722    32523.603    23835.880     6678.522        8.957        3.152      340.539       84.886        0.062      339.251       12.452      861.001
05/09/2014  20:47:00     -257.795      -46.494        5.549      219.988      153.201       91.664    48394.836    23470.423     8402.372        7.444        4.013      261.954      107.793        0.169      339.228       12.416      861.028
05/09/2014  20:48:00     -311.684      -73.480      -25.367      153.359      138.517       64.525    23519.084    19186.864     4163.508        7.502        2.343      320.229       53.712        0.028      339.281       12.502      861.028
05/09/2014  20:49:00     -366.046     -120.342      -19.017      233.900      156.210       70.642    54709.051    24401.696     4990.263       11.645        4.205      385.320       80.179        0.043      339.200       12.368      861.036
05/09/2014  20:50:00     -362.232      -51.336       -9.519      175.332      165.372       86.509    30741.429    27347.825     7483.884        9.974        3.279      365.852       87.455        0.057      339.200       12.366      861.025
05/09/2014  20:51:00     -424.482      -61.345       -6.948      210.937      132.022       86.016    44494.504    17429.736     7398.784       12.665        3.466      428.892       97.607        0.052      339.172       12.320      861.026
05/09/2014  20:52:00     -466.421      -64.849       -1.499      278.507      175.437      102.539    77566.143    30778.269    10514.259       17.028        5.943      470.908      138.018        0.086      339.165       12.309      861.049
05/09/2014  20:53:00     -487.272      -23.996       -9.009      228.358      162.738      107.219    52147.230    26483.500    11495.977       16.409        4.506      487.862      115.894        0.056      339.148       12.280      861.034
05/09/2014  20:54:00     -370.922       -0.604        5.858      179.283      119.069       75.132    32142.449    14177.486     5644.779        9.478        2.598      370.923       89.009        0.058      339.150       12.283      861.063
05/09/2014  20:55:00     -449.710      -78.108      -22.664      157.334      125.032       76.198    24753.873    15632.889     5806.075       12.751        2.310      456.442       80.676        0.031      339.120       12.232      861.086
05/09/2014  20:56:00     -350.705     -267.126      -13.783      197.962      173.928       92.245    39188.792    30251.117     8509.058       13.623        3.897      440.852       99.982        0.051      339.127       12.245      861.050
05/09/2014  20:57:00     -178.574      -67.352        3.191      181.599       98.075       75.583    32978.078     9618.799     5712.729        4.236        2.415      190.853       72.319        0.144      339.157       12.295      861.076
05/09/2014  20:58:00     -413.928     -139.761       -7.290      260.146      171.547       97.760    67675.848    29428.447     9556.936       14.877        5.333      436.886      113.459        0.067      339.122       12.235      861.096
05/09/2014  20:59:00     -369.982     -137.364      -11.111      198.690      146.187       71.549    39477.783    21370.671     5119.247       11.091        3.298      394.658       83.488        0.045      339.082       12.168      861.098
05/09/2014  21:00:00     -280.736     -105.699        6.819      206.336      176.822      102.184    42574.639    31265.869    10441.532        8.714        4.214      299.975      125.671        0.176      339.095       12.192      861.096
05/09/2014  21:01:00     -267.765     -110.423       18.285      203.979      138.885       79.988    41607.451    19289.084     6398.090        7.575        3.365      289.640      108.109        0.139      339.090       12.183      861.117
05/09/2014  21:02:00     -323.955     -120.954       -6.554      156.646      137.248       56.632    24537.950    18837.096     3207.172        8.309        2.329      345.799       53.433        0.024      339.062       12.136      861.123
05/09/2014  21:03:00     -504.323       -9.014      -37.247      155.201       99.827       74.341    24087.350     9965.486     5526.534       14.769        1.979      504.404       71.794        0.020      339.059       12.130      861.131
05/09/2014  21:04:00     -330.303      -51.778      -21.999      161.211      125.754       66.845    25989.076    15813.988     4468.230        7.926        2.314      334.337       70.911        0.045      339.080       12.165      861.130
05/09/2014  21:05:00     -259.252     -170.178       14.626      184.042      158.142       85.811    33871.555    25008.974     7363.480        8.130        3.312      310.117      103.415        0.111      339.061       12.133      861.126
05/09/2014  21:06:00     -273.698     -113.855      -14.565      146.025      119.690       69.748    21323.187    14325.747     4864.852        6.429        2.026      296.435       73.139        0.061      339.070       12.147      861.092
05/09/2014  21:07:00     -304.646     -183.680      -11.860      177.933      149.257       68.906    31660.173    22277.559     4747.975        9.268        2.934      355.735       74.251        0.044      339.041       12.101      861.098
05/09/2014  21:08:00     -399.869     -185.796      -29.392      134.743      110.832       77.022    18155.542    12283.697     5932.385       11.582        1.819      440.925       73.665        0.028      339.028       12.078      861.093
05/09/2014  21:09:00     -282.568     -183.678        0.146      152.220      146.343       81.398    23170.880    21416.192     6625.685        8.239        2.561      337.020       73.788        0.048      339.028       12.078      861.117
05/09/2014  21:10:00     -234.316     -160.694        6.446      174.352      121.835       83.779    30398.529    14843.854     7018.841        6.650        2.613      284.125       95.638        0.113      339.027       12.076      861.103
05/09/2014  21:11:00     -269.284      -98.998      -16.518      151.462      132.376       66.490    22940.651    17523.400     4420.973        6.373        2.244      286.905       71.191        0.062      339.105       12.209      861.121
05/09/2014  21:12:00     -363.004     -115.085       -7.089      148.200      117.362       67.972    21963.200    13773.953     4620.252        9.270        2.018      380.810       74.024        0.038      339.018       12.062      861.127
05/09/2014  21:13:00     -248.410      -90.552        2.352      158.098      103.095       60.750    24994.976    10628.522     3690.505        5.461        1.966      264.400       62.123        0.055      339.029       12.079      861.138
05/09/2014  21:14:00     -291.218      -79.887       -6.041      151.040      119.810       65.705    22813.159    14354.321     4317.158        6.635        2.074      301.977       66.780        0.049      339.018       12.062      861.143
05/09/2014  21:15:00     -254.163     -124.217       -6.236      168.807      132.420       63.338    28495.768    17535.008     4011.671        6.505        2.502      282.894       70.451        0.062      338.990       12.014      861.160
05/09/2014  21:16:00     -199.458      -70.637       14.961      180.089       95.510       72.279    32431.875     9122.207     5224.185        4.588        2.339      211.596       87.906        0.173      338.972       11.986      861.141
05/09/2014  21:17:00     -158.341      -83.516       20.548      164.573      103.234       69.696    27084.232    10657.316     4857.530        3.753        2.130      179.016       82.250        0.211      338.995       12.024      861.145
05/09/2014  21:18:00     -196.514        8.769        8.750      166.945       88.203       66.190    27870.780     7779.812     4381.055        3.939        2.002      196.710       85.513        0.189      339.004       12.039      861.151
05/09/2014  21:19:00     -474.592      -50.421      -32.745      218.115      146.561       78.809    47574.360    21480.137     6210.923       15.204        3.763      477.263      102.930        0.047      338.920       11.897      861.141
05/09/2014  21:20:00     -377.517      -79.882      -18.289      143.759      143.117       83.039    20666.642    20482.516     6895.399        9.863        2.402      385.876       78.119        0.041      338.909       11.877      861.157
05/09/2014  21:21:00     -342.251      -50.499      -16.616      136.240      142.064       67.328    18561.304    20182.045     4533.093        8.161        2.164      345.956       57.959        0.028      338.899       11.860      861.159
05/09/2014  21:22:00     -368.367      -37.794      -20.284      212.399      112.281       71.150    45113.385    12607.053     5062.261       10.015        3.139      370.301       88.870        0.058      338.913       11.885      861.169
05/09/2014  21:23:00     -350.990      -83.553       -2.755      131.139      116.103       60.135    17197.489    13479.837     3616.179        8.223        1.715      360.797       57.461        0.025      338.854       11.785      861.196
05/09/2014  21:24:00     -459.865      -38.957      -21.743      187.672      124.571       75.536    35220.610    15517.933     5705.694       13.494        2.822      461.512       80.447        0.030      338.886       11.840      861.207
05/09/2014  21:25:00     -317.075     -168.402      -22.825      169.799      152.494       73.373    28831.759    23254.365     5383.638        9.343        2.873      359.021       77.006        0.046      338.873       11.818      861.189
05/09/2014  21:26:00     -199.027      -72.858        2.353      156.778      119.299       64.227    24579.473    14232.185     4125.166        4.392        2.147      211.943       79.941        0.142      338.892       11.850      861.213
05/09/2014  21:27:00     -276.751      -41.408      -32.923       96.339       91.394       61.211     9281.204     8352.773     3746.811        5.038        1.069      279.831       47.168        0.028      338.867       11.808      861.229
05/09/2014  21:28:00     -325.616      -10.977       -7.213      131.872       81.095       56.651    17390.294     6576.357     3209.311        6.668        1.359      325.801       58.530        0.032      338.836       11.754      861.245
05/09/2014  21:29:00     -247.572      -54.902        1.250      125.595      118.082       60.166    15774.098    13943.321     3619.990        4.882        1.667      253.587       64.570        0.065      338.863       11.802      861.269
05/09/2014  21:30:00     -388.626     -118.775      -19.083      156.133      100.555       66.913    24377.638    10111.355     4477.380       10.223        1.948      406.372       68.970        0.029      338.820       11.729      861.285
05/09/2014  21:31:00     -446.068      -94.130      -14.759      132.586      126.935       73.565    17579.007    16112.462     5411.878       12.357        1.955      455.892       72.890        0.026      338.774       11.650      861.333
05/09/2014  21:32:00     -415.521     -145.529      -14.979      163.293      122.430       63.322    26664.475    14989.073     4009.737       11.985        2.283      440.268       69.553        0.025      338.772       11.648      861.340
05/09/2014  21:33:00     -299.292      -64.837      -26.383      146.081       92.782       64.561    21339.586     8608.586     4168.109        6.429        1.706      306.234       74.504        0.059      338.814       11.719      861.344
05/09/2014  21:34:00     -329.614      -28.874        4.256      173.762      135.223       69.612    30193.132    18285.204     4845.836        8.140        2.666      330.877       70.663        0.046      338.772       11.647      861.354
05/09/2014  21:35:00     -195.629     -106.722        6.422      125.120      131.175       78.952    15654.929    17206.777     6233.441        4.439        1.955      222.846       80.393        0.130      338.765       11.636      861.333
05/09/2014  21:36:00     -391.813      -34.830      -16.140      113.019      114.463       64.564    12773.384    13101.747     4168.519        9.251        1.502      393.358       53.233        0.018      338.734       11.584      861.353
05/09/2014  21:37:00     -296.880       12.914       -0.776      124.144       94.293       69.430    15411.716     8891.216     4820.590        5.871        1.456      297.161       64.500        0.047      338.786       11.671      861.359
05/09/2014  21:38:00     -292.012      -58.102       -0.788      143.968       91.941       60.517    20726.834     8453.113     3662.253        6.074        1.642      297.737       69.114        0.054      338.725       11.568      861.378
05/09/2014  21:39:00     -325.105      -78.233       -8.224      149.262      102.337       61.931    22279.068    10472.888     3835.399        7.423        1.829      334.386       58.130        0.030      338.705       11.534      861.384
05/09/2014  21:40:00     -168.530      -28.646        1.616      114.433       95.060       60.439    13094.940     9036.386     3652.823        2.750        1.289      170.947       63.735        0.139      338.734       11.583      861.406
05/09/2014  21:41:00     -175.431      -54.168       11.215      144.400       85.897       63.301    20851.281     7378.280     4007.015        3.303        1.612      183.604       73.167        0.159      338.727       11.573      861.391
05/09/2014  21:42:00     -220.605      -36.026        8.496      205.140       68.631       59.401    42082.438     4710.267     3528.454        5.017        2.516      223.528       74.889        0.112      338.733       11.583      861.406
05/09/2014  21:43:00     -217.491      -31.394        7.040      184.384       99.750       63.876    33997.434     9950.093     4080.119        4.817        2.401      219.745       73.139        0.111      338.674       11.482      861.401
05/09/2014  21:44:00     -272.200      -57.692       -5.743      152.490       77.871       52.072    23253.091     6063.938     2711.444        5.473        1.601      278.246       62.187        0.050      338.625       11.401      861.416
05/09/2014  21:45:00     -173.379      -56.425      -11.502      102.046       66.381       41.142    10413.294     4406.434     1692.674        2.494        0.826      182.330       52.365        0.082      338.672       11.481      861.434
05/09/2014  21:46:00     -223.880      -23.368       -9.813      123.050       79.590       50.983    15141.245     6334.620     2599.222        3.741        1.204      225.096       61.989        0.076      338.707       11.539      861.441
05/09/2014  21:47:00     -400.288     -115.738      -30.350      134.935       95.348       64.140    18207.463     9091.232     4113.989       10.297        1.571      416.684       60.606        0.021      338.595       11.350      861.439
05/09/2014  21:48:00     -348.836      -55.228       -6.471      158.027      111.793       71.125    24972.429    12497.599     5058.793        8.365        2.126      353.181       77.468        0.048      338.622       11.395      861.468
05/09/2014  21:49:00     -193.472      -69.546        0.378      113.694       92.970       47.772    12926.287     8643.356     2282.121        3.306        1.193      205.592       44.879        0.048      338.651       11.445      861.467
05/09/2014  21:50:00     -193.468     -109.706       -4.197      105.426       72.242       51.112    11114.599     5218.959     2612.433        3.421        0.947      222.408       50.324        0.051      338.615       11.384      861.468
05/09/2014  21:51:00     -201.005      -38.740      -11.890      115.637       81.340       56.703    13371.998     6616.144     3215.285        3.262        1.160      204.704       67.733        0.109      338.721       11.563      861.487
05/09/2014  21:52:00     -321.123      -90.150      -22.956      108.992       97.116       60.779    11879.318     9431.524     3694.029        6.838        1.250      333.538       62.280        0.035      338.640       11.424      861.498
05/09/2014  21:53:00     -308.037      -23.787       -5.661      129.925       90.490       62.178    16880.541     8188.410     3866.128        6.220        1.447      308.955       65.302        0.045      338.584       11.332      861.503
05/09/2014  21:54:00     -325.915      -47.655        5.260      164.940      106.104       70.373    27205.284    11258.055     4952.315        7.596        2.171      329.380       66.186        0.040      338.588       11.339      861.521
05/09/2014  21:55:00     -336.232     -105.111       -7.702      197.505      104.521       69.120    39008.309    10924.556     4777.528        8.942        2.736      352.279       81.057        0.053      338.578       11.323      861.533
05/09/2014  21:56:00     -383.417      -65.010      -17.606      150.485      115.625       77.716    22645.741    13369.221     6039.844        9.679        2.103      388.890       88.676        0.052      338.600       11.357      861.553
05/09/2014  21:57:00     -328.841        6.797      -11.352      119.425      100.922       58.287    14262.439    10185.337     3397.380        6.807        1.392      328.912       54.884        0.028      338.648       11.438      861.559
05/09/2014  21:58:00     -427.952     -110.594      -54.147      134.745      128.958       62.159    18156.244    16630.205     3863.756       11.847        1.933      442.011       57.604        0.017      338.626       11.402      861.562
05/09/2014  21:59:00     -370.149      -67.812      -11.277      144.845      101.621       68.200    20980.167    10326.811     4651.204        8.884        1.798      376.309       70.905        0.036      338.603       11.364      861.575
05/09/2014  22:00:00     -186.318      -26.452        8.706      103.052       81.158       52.387    10619.612     6586.583     2744.434        2.772        0.998      188.186       56.170        0.089      338.624       11.399      861.593
05/09/2014  22:01:00     -177.590      -20.698        6.586       88.204       85.723       43.863     7779.903     7348.495     1923.934        2.453        0.853      178.792       43.023        0.058      338.647       11.440      861.594
05/09/2014  22:02:00     -283.533      -87.822        0.404      126.961       97.217       56.203    16119.144     9451.082     3158.735        5.841        1.436      296.823       57.380        0.037      338.573       11.314      861.596
05/09/2014  22:03:00     -241.097      -44.040        1.502      131.157       96.241       56.219    17202.239     9262.394     3160.623        4.484        1.481      245.086       68.777        0.079      338.577       11.320      861.615
05/09/2014  22:04:00     -270.595     -146.170      -11.963       84.623       71.513       44.894     7161.085     5114.069     2015.500        5.451        0.715      307.551       30.379        0.010      338.529       11.239      861.630
05/09/2014  22:05:00     -297.659     -175.534      -20.665       97.175       86.787       50.459     9442.924     7532.065     2546.126        6.968        0.976      345.562       43.280        0.016      338.526       11.235      861.635
05/09/2014  22:06:00     -264.319     -116.417       -2.080      141.985       92.076       57.943    20159.809     8477.916     3357.366        5.770        1.600      288.821       68.774        0.057      338.529       11.240      861.649
05/09/2014  22:07:00     -164.258      -72.092       -0.102      110.524       79.947       46.777    12215.654     6391.493     2188.104        2.648        1.040      179.382       54.267        0.092      338.539       11.258      861.641
05/09/2014  22:08:00     -256.257      -78.643       -9.707       89.439       76.277       54.666     7999.303     5818.133     2988.334        4.437        0.840      268.053       54.247        0.041      338.489       11.169      861.667
05/09/2014  22:09:00     -301.901      -68.195      -10.261      112.918       96.283       48.431    12750.410     9270.448     2345.571        6.013        1.218      309.507       48.274        0.024      338.482       11.159      861.642
05/09/2014  22:10:00     -324.127      -95.385      -16.203      109.676       85.408       55.178    12028.859     7294.475     3044.663        6.839        1.118      337.871       52.948        0.025      338.482       11.159      861.640
05/09/2014  22:11:00     -264.673      -78.459       -3.751      131.804      104.998       58.372    17372.341    11024.658     3407.277        5.401        1.590      276.058       62.465        0.051      338.559       11.291      861.644
05/09/2014  22:12:00     -343.623     -102.890       -3.395      127.090      114.900       67.908    16151.920    13202.008     4611.493        8.131        1.698      358.696       73.927        0.042      338.518       11.220      861.664
05/09/2014  22:13:00     -183.571     -160.860        9.747      142.174      121.750       71.348    20213.394    14823.013     5090.566        4.989        2.006      244.079       80.108        0.108      338.517       11.220      861.673
05/09/2014  22:14:00     -264.144      -67.749      -13.557       99.515      103.390       52.037     9903.258    10689.451     2707.824        4.892        1.165      272.694       44.392        0.027      338.572       11.312      861.695
05/09/2014  22:15:00     -351.562       73.756      -27.794       94.516       88.539       49.240     8933.261     7839.073     2424.573        7.450        0.960      359.216       39.645        0.012      338.639       11.425      861.708
05/09/2014  22:16:00     -304.272      -84.401      -12.212       90.318       68.721       48.495     8157.405     4722.629     2351.741        5.754        0.762      315.761       44.409        0.020      338.511       11.209      861.708
05/09/2014  22:17:00     -274.495      -53.664       -4.531      125.076       96.624       52.941    15644.058     9336.124     2802.747        5.301        1.389      279.691       63.698        0.052      338.461       11.125      861.705
05/09/2014  22:18:00     -308.464      -18.591      -16.465      107.295       60.692       50.606    11512.243     3683.574     2560.996        5.676        0.888      309.023       48.495        0.025      338.442       11.093      861.718
05/09/2014  22:19:00     -225.008      -37.326       -3.253       77.477       59.011       48.084     6002.699     3482.264     2312.025        3.191        0.590      228.083       46.740        0.042      338.461       11.124      861.714
05/09/2014  22:20:00     -164.418      -53.692      -16.140       77.585       43.709       33.900     6019.367     1910.439     1149.196        1.963        0.454      172.963       30.708        0.032      338.495       11.184      861.715
05/09/2014  22:21:00     -208.219      -91.224      -22.610       92.120       66.944       50.541     8486.008     4481.501     2554.379        3.385        0.776      227.326       38.368        0.028      338.525       11.232      861.705
05/09/2014  22:22:00     -197.360      -43.459       -4.584       71.005       51.399       37.226     5041.699     2641.809     1385.763        2.496        0.453      202.088       36.044        0.032      338.426       11.066      861.708
05/09/2014  22:23:00     -200.214     -108.392       -9.259       86.141      132.047       43.959     7420.349    17436.306     1932.413        3.935        1.339      227.672       42.112        0.034      338.429       11.071      861.709
05/09/2014  22:24:00     -210.897      -66.140       -6.863       91.831       72.633       38.904     8432.887     5275.516     1513.510        3.206        0.761      221.025       27.932        0.016      338.461       11.126      861.722
05/09/2014  22:25:00     -360.909       -8.077      -25.007      129.866      125.129       58.062    16865.153    15657.169     3371.231        8.341        1.795      360.999       52.699        0.021      338.537       11.253      861.733
05/09/2014  22:26:00     -300.963      -82.883       -0.826      117.459      100.602       58.989    13796.554    10120.804     3479.711        6.242        1.370      312.167       59.937        0.037      338.474       11.146      861.736
05/09/2014  22:27:00     -237.707      -82.022       -2.356      126.164       94.199       53.765    15917.346     8873.470     2890.699        4.545        1.384      251.460       60.624        0.058      338.434       11.080      861.743
05/09/2014  22:28:00     -298.266     -108.559      -14.035       89.684       70.650       47.113     8043.268     4991.461     2219.655        5.810        0.763      317.408       50.928        0.026      338.460       11.122      861.741
05/09/2014  22:29:00     -146.078      -42.528       -5.036       76.132       81.643       33.941     5796.142     6665.576     1151.970        1.839        0.681      152.143       32.300        0.045      338.481       11.158      861.731
05/09/2014  22:30:00     -150.774      -55.457       -0.035       74.607       97.738       35.125     5566.202     9552.757     1233.780        2.108        0.818      160.649       39.311        0.060      338.486       11.169      861.727
05/09/2014  22:31:00     -220.794      -37.922      -23.783       59.317      105.662       43.376     3518.465    11164.355     1881.477        3.366        0.828      224.027       30.976        0.019      338.552       11.278      861.728
05/09/2014  22:32:00     -307.095      -55.287      -29.809       65.152       72.713       43.726     4244.757     5287.124     1911.985        5.485        0.572      312.032       33.910        0.012      338.468       11.133      861.724
05/09/2014  22:33:00     -315.892      -28.059      -34.022       80.951       83.549       50.323     6553.101     6980.507     2532.438        5.890        0.803      317.136       51.064        0.026      338.538       11.254      861.711
05/09/2014  22:34:00     -240.350      -46.507      -26.810       64.163       68.618       40.874     4116.930     4708.456     1670.716        3.557        0.525      244.809       32.773        0.018      338.559       11.288      861.698
05/09/2014  22:35:00     -195.719        4.452      -17.723       63.888       56.727       37.626     4081.640     3217.982     1415.679        2.368        0.436      195.769       27.524        0.020      338.554       11.283      861.703
05/09/2014  22:36:00     -181.914      -35.333      -13.790       53.540       52.529       22.886     2866.482     2759.304      523.792        2.034        0.307      185.313       25.167        0.018      338.442       11.095      861.691
05/09/2014  22:37:00      -92.494      -78.048        6.806       75.817       55.169       32.894     5748.223     3043.582     1082.005        1.228        0.494      121.023       35.451        0.086      338.402       11.029      861.674
05/09/2014  22:38:00      -57.396      -62.275       10.111       58.087       54.521       38.164     3374.056     2972.489     1456.474        0.754        0.390       84.690       35.206        0.173      338.400       11.025      861.663
05/09/2014  22:39:00      -62.185      -25.798        4.773       37.501       32.307       19.562     1406.301     1043.758      382.667        0.369        0.142       67.324       10.118        0.023      338.483       11.165      861.650
05/09/2014  22:40:00     -164.055      -28.008      -13.276       47.758       42.376       29.132     2280.823     1795.684      848.685        1.640        0.246      166.429       26.769        0.026      338.400       11.025      861.639
05/09/2014  22:41:00     -144.952      -56.086        1.553       90.425       54.778       32.069     8176.750     3000.680     1028.411        1.818        0.610      155.425       38.597        0.062      338.344       10.930      861.641
05/09/2014  22:42:00     -225.725      -82.584       -8.412      101.454       66.942       42.972    10292.891     4481.268     1846.560        3.723        0.831      240.358       42.905        0.032      338.321       10.891      861.660
05/09/2014  22:43:00     -111.760      -69.349        6.425       79.177       68.975       40.395     6268.980     4757.517     1631.740        1.500        0.633      131.528       32.287        0.060      338.290       10.840      861.697
05/09/2014  22:44:00     -276.298      -16.507      -21.678       85.077       57.924       47.426     7238.053     3355.143     2249.213        4.496        0.642      276.791       38.859        0.020      338.332       10.908      861.704
05/09/2014  22:45:00     -188.238      -44.342       -0.407       74.130       49.593       35.982     5495.284     2459.501     1294.705        2.332        0.462      193.390       35.160        0.033      338.313       10.877      861.693
05/09/2014  22:46:00      -68.089       85.670      -14.463       58.782       74.414       28.136     3455.318     5537.412      791.643        1.098        0.489      109.433       33.825        0.096      338.432       11.077      861.688
05/09/2014  22:47:00     -148.999      121.858      -28.705       55.115       73.347       34.820     3037.661     5379.851     1212.458        2.375        0.481      192.484       35.910        0.035      338.472       11.144      861.687
05/09/2014  22:48:00     -106.273      189.974      -19.891       72.553       81.241       39.162     5263.977     6600.147     1533.630        3.059        0.670      217.678       33.543        0.024      338.446       11.099      861.697
05/09/2014  22:49:00     -119.692      127.750      -27.374       57.601       67.854       33.508     3317.880     4604.162     1122.799        2.022        0.452      175.061       27.463        0.025      338.438       11.088      861.718
05/09/2014  22:50:00     -172.517       57.100      -22.981       71.591       88.470       44.106     5125.228     7826.933     1945.309        2.422        0.745      181.720       42.151        0.054      338.453       11.112      861.728
05/09/2014  22:51:00     -103.773       61.453       -0.870       43.806       63.262       37.592     1918.941     4002.032     1413.168        1.094        0.367      120.604       26.803        0.049      338.499       11.191      861.720
05/09/2014  22:52:00      -34.060      -26.482       12.167       58.151       43.818       25.833     3381.555     1919.980      667.318        0.399        0.298       43.144       18.857        0.191      338.443       11.097      861.713
05/09/2014  22:53:00     -160.366      -40.206      -15.933       87.124       51.877       37.210     7590.514     2691.206     1384.563        1.962        0.583      165.330       37.952        0.053      338.583       11.331      861.710
05/09/2014  22:54:00     -271.407      -88.168      -12.240       74.593       59.191       34.685     5564.165     3503.530     1203.043        4.593        0.514      285.369       30.184        0.011      338.373       10.976      861.710
05/09/2014  22:55:00     -182.267      -46.025       -5.762       40.319       43.636       28.720     1625.659     1904.090      824.836        1.986        0.218      187.988       21.653        0.013      338.377       10.987      861.709
05/09/2014  22:56:00     -178.255      -48.767      -12.891       40.883       56.581       26.741     1671.439     3201.395      715.060        1.995        0.279      184.805       21.850        0.014      338.472       11.144      861.720
05/09/2014  22:57:00     -348.687     -142.497      -13.803      125.991       94.159       59.373    15873.694     8865.853     3525.193        8.517        1.413      376.680       61.381        0.027      338.358       10.952      861.730
05/09/2014  22:58:00     -304.406      -38.557      -20.911       86.453       78.316       44.332     7474.080     6133.447     1965.318        5.508        0.779      306.838       49.223        0.026      338.416       11.048      861.709
05/09/2014  22:59:00     -324.567      -64.849      -16.519      107.766       86.244       50.373    11613.562     7438.036     2537.435        6.570        1.079      330.982       50.898        0.024      338.368       10.969      861.686
05/09/2014  23:00:00     -242.362      -90.737        5.989      106.133       74.161       48.609    11264.193     5499.798     2362.834        4.306        0.956      258.790       53.038        0.042      338.319       10.887      861.704
05/09/2014  23:01:00     -205.322      -88.367       -9.597      123.370       70.748       52.297    15220.156     5005.326     2734.970        3.650        1.148      223.530       56.336        0.064      338.305       10.864      861.699
05/09/2014  23:02:00     -244.766      -73.297       -3.160       90.555       66.581       41.737     8200.138     4433.075     1741.939        3.983        0.719      255.505       47.603        0.035      338.339       10.919      861.700
05/09/2014  23:03:00     -294.048       19.721      -28.345       81.836      100.565       47.743     6697.166    10113.363     2279.430        5.337        0.954      294.708       38.691        0.017      338.392       11.009      861.711
05/09/2014  23:04:00     -249.022      -86.607       -0.306      140.984      114.569       65.846    19876.460    13126.066     4335.672        5.342        1.867      263.652       72.819        0.076      338.339       10.921      861.715
05/09/2014  23:05:00     -153.558      -77.798        7.942      106.587       77.998       57.182    11360.736     6083.645     3269.821        2.520        1.036      172.141       60.501        0.124      338.347       10.936      861.733
05/09/2014  23:06:00     -219.763      -24.487      -17.913       79.720       49.824       34.150     6355.321     2482.452     1166.251        2.961        0.500      221.123       34.879        0.025      338.294       10.845      861.756
05/09/2014  23:07:00     -124.126        4.708      -16.888       74.807      101.911       35.111     5596.046    10385.917     1232.794        1.646        0.861      124.216       38.048        0.094      338.335       10.914      861.734
05/09/2014  23:08:00     -112.324       17.633       -0.495       66.888       44.026       26.992     4474.041     1938.306      728.565        1.003        0.357      113.700       30.365        0.071      338.543       11.266      861.740
05/09/2014  23:09:00     -232.418       22.208      -34.307       60.562       76.120       34.967     3667.727     5794.241     1222.665        3.318        0.534      233.476       35.365        0.023      338.385       10.998      861.732
05/09/2014  23:10:00     -241.523      -36.056      -25.010       58.208       70.811       33.912     3388.143     5014.195     1149.994        3.490        0.478      244.199       30.376        0.015      338.376       10.982      861.706
05/09/2014  23:11:00     -157.569      -87.363      -12.770       82.600       67.505       35.958     6822.769     4556.957     1292.985        2.265        0.634      180.167       34.836        0.037      338.321       10.892      861.701
05/09/2014  23:12:00     -136.407        4.989      -22.195       71.577       80.863       42.760     5123.208     6538.749     1828.415        1.630        0.675      136.498       32.454        0.057      338.376       10.985      861.729
05/09/2014  23:13:00     -196.018      101.315      -35.248       66.112       84.825       45.691     4370.751     7195.275     2087.679        3.179        0.683      220.653       30.632        0.019      338.420       11.056      861.715
05/09/2014  23:14:00     -202.091       29.326      -19.507       59.233       50.110       32.296     3508.607     2510.996     1043.062        2.457        0.353      204.208       30.184        0.022      338.395       11.015      861.692
05/09/2014  23:15:00     -123.142      -29.869      -15.322       97.409       58.661       36.779     9488.437     3441.072     1352.688        1.528        0.714      126.713       30.407        0.058      338.478       11.157      861.673
05/09/2014  23:16:00     -270.447      -60.125       -0.957      114.986      108.790       47.979    13221.876    11835.298     2302.025        5.205        1.368      277.049       47.179        0.029      338.382       10.993      861.680
05/09/2014  23:17:00     -236.198     -107.785       -3.841       96.732       71.332       46.417     9357.140     5088.254     2154.554        4.201        0.830      259.629       45.078        0.030      338.258       10.783      861.692
05/09/2014  23:18:00      -88.238     -140.817        2.652       67.926       90.567       39.841     4613.885     8202.354     1587.268        2.101        0.720      166.179       42.642        0.066      338.324       10.897      861.662
05/09/2014  23:19:00     -103.626     -125.179       22.787      129.084       81.095       70.224    16662.800     6576.381     4931.342        2.754        1.409      162.506       75.674        0.217      338.319       10.888      861.656
05/09/2014  23:20:00     -239.251     -104.472       -0.050      104.067       79.792       48.109    10830.033     6366.799     2314.489        4.383        0.976      261.066       47.916        0.034      338.291       10.838      861.648
05/09/2014  23:21:00     -184.645      -31.354        0.135       88.677       80.045       39.846     7863.634     6407.174     1587.719        2.546        0.793      187.288       45.108        0.058      338.344       10.929      861.629
05/09/2014  23:22:00     -142.974      -25.054       -8.405       43.811       43.482       29.311     1919.393     1890.665      859.152        1.290        0.233      145.153       18.846        0.017      338.282       10.826      861.623
05/09/2014  23:23:00     -215.871      -82.400        5.429       85.787       88.417       40.364     7359.407     7817.609     1629.223        3.511        0.840      231.063       40.351        0.030      338.307       10.866      861.619
05/09/2014  23:24:00     -124.155     -100.688        3.739       94.678       73.680       44.289     8963.961     5428.712     1961.478        2.096        0.818      159.851       45.518        0.081      338.262       10.793      861.632
05/09/2014  23:25:00     -117.358      -50.022       -9.368       35.954       38.667       22.432     1292.706     1495.159      503.200        0.983        0.165      127.574       14.138        0.012      338.296       10.851      861.578
05/09/2014  23:26:00     -143.224       27.501      -18.227       66.922       57.932       33.074     4478.564     3356.132     1093.888        1.526        0.446      145.840       31.759        0.047      338.342       10.927      861.570
05/09/2014  23:27:00     -356.604      -37.400      -24.959      160.076       86.920       57.218    25624.371     7555.075     3273.925        8.281        1.823      358.560       68.717        0.037      338.326       10.899      861.603
05/09/2014  23:28:00     -264.944     -105.151        5.051      130.860       85.341       56.755    17124.441     7283.079     3221.175        5.445        1.381      285.047       67.204        0.056      338.221       10.722      861.600
05/09/2014  23:29:00     -217.548      -49.464       -7.255      106.686      116.213       53.369    11381.823    13505.370     2848.205        3.878        1.387      223.101       55.489        0.062      338.272       10.808      861.601
05/09/2014  23:30:00     -252.524       57.850      -16.467      117.471       91.544       50.340    13799.368     8380.254     2534.069        4.605        1.236      259.066       46.716        0.033      338.326       10.897      861.580
05/09/2014  23:31:00     -214.153      -34.723       -0.642      116.385       97.411       42.733    13545.357     9488.902     1826.079        3.596        1.243      216.950       43.375        0.040      338.297       10.851      861.570
05/09/2014  23:32:00     -248.391      -44.570       -3.772      204.811      127.397       79.214    41947.457    16229.994     6274.828        6.406        3.223      252.358       95.196        0.142      338.338       10.918      861.562
05/09/2014  23:33:00     -442.234     -154.939       -7.883      175.277      113.715       74.047    30722.089    12931.215     5482.932       13.438        2.457      468.591       73.714        0.025      338.278       10.818      861.545
05/09/2014  23:34:00     -352.608      -90.641       -8.162      118.520      113.132       65.541    14046.922    12798.757     4295.572        8.187        1.557      364.072       59.284        0.027      338.224       10.727      861.572
05/09/2014  23:35:00     -309.465      -49.954       -8.898      116.847      101.989       55.874    13653.145    10401.802     3121.857        6.275        1.359      313.471       54.904        0.031      338.234       10.743      861.574
05/09/2014  23:36:00     -283.916      -37.533      -15.161       98.169       80.168       48.613     9637.242     6426.927     2363.213        5.033        0.921      286.386       46.968        0.027      338.268       10.801      861.560
05/09/2014  23:37:00     -263.234      -59.282      -14.830       91.466       70.986       46.344     8365.962     5038.952     2147.786        4.429        0.778      269.827       44.232        0.027      338.208       10.700      861.545
05/09/2014  23:38:00     -228.980     -104.405       -1.807       89.298       65.777       41.644     7974.089     4326.565     1734.229        3.868        0.702      251.659       48.142        0.037      338.212       10.706      861.530
05/09/2014  23:39:00     -271.763     -123.254       -1.567       98.993       78.269       51.360     9799.522     6126.040     2637.853        5.380        0.928      298.407       50.469        0.029      338.174       10.641      861.529
05/09/2014  23:40:00     -358.606       16.500      -32.695      108.023       73.278       54.698    11668.939     5369.700     2991.874        7.498        1.002      358.986       56.366        0.025      338.294       10.843      861.521
05/09/2014  23:41:00     -178.806      -31.735       -7.148       97.685      100.027       45.677     9542.301    10005.335     2086.387        2.733        1.082      181.601       43.532        0.057      338.332       10.909      861.493
05/09/2014  23:42:00     -244.032       -9.749      -12.503      130.659       92.052       57.378    17071.707     8473.574     3292.248        4.431        1.442      244.227       62.108        0.065      338.351       10.940      861.471
05/09/2014  23:43:00     -257.790      -65.383      -24.335       86.266       80.859       55.759     7441.848     6538.121     3109.082        4.420        0.854      265.952       50.262        0.036      338.296       10.847      861.450
05/09/2014  23:44:00     -275.993        2.900      -22.145       90.034       94.151       44.881     8106.203     8864.444     2014.336        4.782        0.949      276.008       41.794        0.023      338.305       10.863      861.442
05/09/2014  23:45:00     -218.762      -42.020      -26.358      114.985       65.853       36.244    13221.489     4336.583     1313.647        3.459        0.944      222.762       50.283        0.051      338.258       10.785      861.433
05/09/2014  23:46:00     -202.016      -66.621       -3.545       88.806       75.776       39.056     7886.490     5741.955     1525.347        3.020        0.758      212.718       44.554        0.044      338.266       10.799      861.408
05/09/2014  23:47:00     -345.024     -100.129      -29.849      102.689       79.518       44.589    10544.975     6323.065     1988.162        7.440        0.943      359.260       47.660        0.018      338.238       10.752      861.402
05/09/2014  23:48:00     -352.815      -52.156      -29.346      123.873      110.706       56.016    15344.561    12255.808     3137.801        7.939        1.537      356.650       49.339        0.019      338.254       10.778      861.398
05/09/2014  23:49:00     -309.713      -74.366      -10.057      116.437      120.762       60.897    13557.506    14583.562     3708.397        6.670        1.592      318.516       51.733        0.026      338.242       10.757      861.406
05/09/2014  23:50:00     -477.434     -117.247      -22.184      115.095      117.193       70.855    13246.966    13734.316     5020.420       13.709        1.600      491.620       62.664        0.016      338.256       10.781      861.419
05/09/2014  23:51:00     -149.792     -151.582        3.675      137.087       73.704       59.732    18792.751     5432.348     3567.870        3.661        1.390      213.108       68.028        0.102      338.294       10.845      861.388
05/09/2014  23:52:00     -195.920     -138.378       -0.354      111.805       87.198       50.259    12500.282     7603.530     2525.984        4.008        1.131      239.861       51.251        0.046      338.284       10.829      861.362
05/09/2014  23:53:00     -184.175      -76.100        1.795       97.830       51.104       38.949     9570.747     2611.638     1517.050        2.670        0.685      199.278       45.375        0.052      338.278       10.818      861.396
05/09/2014  23:54:00     -219.652      -30.573       -0.738       75.934       59.237       41.833     5765.938     3509.063     1750.038        3.010        0.551      221.770       36.994        0.028      338.298       10.852      861.405
05/09/2014  23:55:00     -276.657      -51.020       -9.278       70.952       47.541       40.073     5034.192     2260.179     1605.878        4.406        0.445      281.322       36.136        0.016      338.187       10.663      861.397
05/09/2014  23:56:00     -285.780      -92.030      -24.526      111.438      130.682       61.958    12418.452    17077.853     3838.744        6.203        1.667      300.233       55.263        0.034      338.220       10.718      861.410
05/09/2014  23:57:00     -268.510      -57.020        4.082      166.518      120.881       59.097    27728.165    14612.323     3492.456        6.059        2.292      274.497       61.638        0.050      338.264       10.797      861.397
05/09/2014  23:58:00     -158.969      -45.292       10.786      108.076       73.420       45.948    11680.430     5390.482     2111.247        2.331        0.959      165.295       52.435        0.101      338.246       10.766      861.374
05/09/2014  23:59:00     -298.259       -8.431      -36.842      129.353       96.726       53.835    16732.223     9355.857     2898.257        5.968        1.449      298.379       51.832        0.030      338.311       10.873      861.351
